<?xml version="1.0" encoding="UTF-8" standalone="no" ?>
<gpx xmlns="http://www.topografix.com/GPX/1/1" xmlns:xsi="http://www.w3.org/2001/XMLSchema-instance" xsi:schemaLocation="http://www.topografix.com/GPX/1/1 http://www.topografix.com/GPX/1/1/gpx.xsd" version="1.1" creator="VisuGPX - https://www.visugpx.com">
  <metadata>
    <name>Tour des plateaux du sud Vercors - 28147 - UtagawaVTT.com</name>
  </metadata>
  <trk>
    <name><![CDATA[Tour des plateaux du sud Vercors - 28147 - UtagawaVTT.com]]></name>
    <trkseg>
      <trkpt lat="44.89549" lon="5.37089">
        <ele>1042.978271</ele>
      </trkpt>
      <trkpt lat="44.89586" lon="5.37261">
        <ele>1043.46106</ele>
        <time>2020-08-18T06:37:39Z</time>
      </trkpt>
      <trkpt lat="44.8959" lon="5.37273">
        <ele>1043.38501</ele>
        <time>2020-08-18T06:37:42Z</time>
      </trkpt>
      <trkpt lat="44.89604" lon="5.37294">
        <ele>1042.974976</ele>
        <time>2020-08-18T06:37:48Z</time>
      </trkpt>
      <trkpt lat="44.89612" lon="5.37318">
        <ele>1042.837524</ele>
        <time>2020-08-18T06:37:54Z</time>
      </trkpt>
      <trkpt lat="44.8963" lon="5.37334">
        <ele>1042.65625</ele>
        <time>2020-08-18T06:38:00Z</time>
      </trkpt>
      <trkpt lat="44.89647" lon="5.37354">
        <ele>1042.575073</ele>
        <time>2020-08-18T06:38:05Z</time>
      </trkpt>
      <trkpt lat="44.89658" lon="5.37406">
        <ele>1043.102539</ele>
        <time>2020-08-18T06:38:13Z</time>
      </trkpt>
      <trkpt lat="44.89661" lon="5.37437">
        <ele>1043.527466</ele>
        <time>2020-08-18T06:38:18Z</time>
      </trkpt>
      <trkpt lat="44.8966" lon="5.37432">
        <ele>1043.466309</ele>
        <time>2020-08-18T06:38:56Z</time>
      </trkpt>
      <trkpt lat="44.89667" lon="5.37446">
        <ele>1043.488525</ele>
        <time>2020-08-18T06:39:03Z</time>
      </trkpt>
      <trkpt lat="44.89677" lon="5.37486">
        <ele>1043.379883</ele>
        <time>2020-08-18T06:39:09Z</time>
      </trkpt>
      <trkpt lat="44.89685" lon="5.37534">
        <ele>1043.036255</ele>
        <time>2020-08-18T06:39:15Z</time>
      </trkpt>
      <trkpt lat="44.89695" lon="5.37562">
        <ele>1042.339966</ele>
        <time>2020-08-18T06:39:19Z</time>
      </trkpt>
      <trkpt lat="44.89703" lon="5.37575">
        <ele>1041.727173</ele>
        <time>2020-08-18T06:39:21Z</time>
      </trkpt>
      <trkpt lat="44.89752" lon="5.37611">
        <ele>1039.482544</ele>
        <time>2020-08-18T06:39:29Z</time>
      </trkpt>
      <trkpt lat="44.89783" lon="5.37647">
        <ele>1039</ele>
        <time>2020-08-18T06:39:35Z</time>
      </trkpt>
      <trkpt lat="44.89811" lon="5.37709">
        <ele>1039</ele>
        <time>2020-08-18T06:39:43Z</time>
      </trkpt>
      <trkpt lat="44.89815" lon="5.37722">
        <ele>1039</ele>
        <time>2020-08-18T06:39:45Z</time>
      </trkpt>
      <trkpt lat="44.89816" lon="5.37735">
        <ele>1039</ele>
        <time>2020-08-18T06:39:47Z</time>
      </trkpt>
      <trkpt lat="44.8981" lon="5.37768">
        <ele>1039</ele>
        <time>2020-08-18T06:39:53Z</time>
      </trkpt>
      <trkpt lat="44.89807" lon="5.37799">
        <ele>1039</ele>
        <time>2020-08-18T06:42:04Z</time>
      </trkpt>
      <trkpt lat="44.89814" lon="5.37814">
        <ele>1039</ele>
        <time>2020-08-18T06:42:07Z</time>
      </trkpt>
      <trkpt lat="44.89844" lon="5.37831">
        <ele>1039</ele>
        <time>2020-08-18T06:42:13Z</time>
      </trkpt>
      <trkpt lat="44.89852" lon="5.37839">
        <ele>1038.989258</ele>
        <time>2020-08-18T06:42:15Z</time>
      </trkpt>
      <trkpt lat="44.89872" lon="5.37872">
        <ele>1039</ele>
        <time>2020-08-18T06:42:21Z</time>
      </trkpt>
      <trkpt lat="44.89876" lon="5.37885">
        <ele>1039</ele>
        <time>2020-08-18T06:42:23Z</time>
      </trkpt>
      <trkpt lat="44.89877" lon="5.37898">
        <ele>1039</ele>
        <time>2020-08-18T06:42:25Z</time>
      </trkpt>
      <trkpt lat="44.89869" lon="5.37943">
        <ele>1039.225342</ele>
        <time>2020-08-18T06:42:33Z</time>
      </trkpt>
      <trkpt lat="44.8987" lon="5.37974">
        <ele>1039.432495</ele>
        <time>2020-08-18T06:42:39Z</time>
      </trkpt>
      <trkpt lat="44.89879" lon="5.38037">
        <ele>1040.087524</ele>
        <time>2020-08-18T06:43:59Z</time>
      </trkpt>
      <trkpt lat="44.89884" lon="5.38048">
        <ele>1040.178955</ele>
        <time>2020-08-18T06:44:02Z</time>
      </trkpt>
      <trkpt lat="44.89894" lon="5.38052">
        <ele>1040.493042</ele>
        <time>2020-08-18T06:44:05Z</time>
      </trkpt>
      <trkpt lat="44.89927" lon="5.38054">
        <ele>1040.970337</ele>
        <time>2020-08-18T06:44:13Z</time>
      </trkpt>
      <trkpt lat="44.89939" lon="5.38061">
        <ele>1040.944458</ele>
        <time>2020-08-18T06:44:16Z</time>
      </trkpt>
      <trkpt lat="44.89946" lon="5.38069">
        <ele>1040.917358</ele>
        <time>2020-08-18T06:44:18Z</time>
      </trkpt>
      <trkpt lat="44.89954" lon="5.38084">
        <ele>1040.809937</ele>
        <time>2020-08-18T06:44:21Z</time>
      </trkpt>
      <trkpt lat="44.89967" lon="5.38125">
        <ele>1041.717529</ele>
        <time>2020-08-18T06:44:28Z</time>
      </trkpt>
      <trkpt lat="44.89983" lon="5.38158">
        <ele>1043.023804</ele>
        <time>2020-08-18T06:44:34Z</time>
      </trkpt>
      <trkpt lat="44.9" lon="5.38219">
        <ele>1047.11377</ele>
        <time>2020-08-18T06:44:45Z</time>
      </trkpt>
      <trkpt lat="44.90008" lon="5.38275">
        <ele>1050.178223</ele>
        <time>2020-08-18T06:44:54Z</time>
      </trkpt>
      <trkpt lat="44.90012" lon="5.38287">
        <ele>1050.764404</ele>
        <time>2020-08-18T06:44:56Z</time>
      </trkpt>
      <trkpt lat="44.90026" lon="5.38311">
        <ele>1051.809937</ele>
        <time>2020-08-18T06:45:01Z</time>
      </trkpt>
      <trkpt lat="44.90095" lon="5.38386">
        <ele>1053.199097</ele>
        <time>2020-08-18T06:45:19Z</time>
      </trkpt>
      <trkpt lat="44.90157" lon="5.38435">
        <ele>1051.983032</ele>
        <time>2020-08-18T06:45:31Z</time>
      </trkpt>
      <trkpt lat="44.90192" lon="5.38481">
        <ele>1051.944702</ele>
        <time>2020-08-18T06:45:39Z</time>
      </trkpt>
      <trkpt lat="44.90217" lon="5.38523">
        <ele>1051.413208</ele>
        <time>2020-08-18T06:45:45Z</time>
      </trkpt>
      <trkpt lat="44.90247" lon="5.38545">
        <ele>1050.803711</ele>
        <time>2020-08-18T06:45:51Z</time>
      </trkpt>
      <trkpt lat="44.90292" lon="5.38569">
        <ele>1050.126221</ele>
        <time>2020-08-18T06:45:59Z</time>
      </trkpt>
      <trkpt lat="44.90353" lon="5.38617">
        <ele>1049.45752</ele>
        <time>2020-08-18T06:46:09Z</time>
      </trkpt>
      <trkpt lat="44.90395" lon="5.38672">
        <ele>1049.314941</ele>
        <time>2020-08-18T06:46:20Z</time>
      </trkpt>
      <trkpt lat="44.90406" lon="5.38693">
        <ele>1049.439331</ele>
        <time>2020-08-18T06:46:24Z</time>
      </trkpt>
      <trkpt lat="44.90463" lon="5.38734">
        <ele>1049.387451</ele>
        <time>2020-08-18T06:46:38Z</time>
      </trkpt>
      <trkpt lat="44.9048" lon="5.38753">
        <ele>1049.565063</ele>
        <time>2020-08-18T06:47:59Z</time>
      </trkpt>
      <trkpt lat="44.90471" lon="5.38756">
        <ele>1049.835327</ele>
        <time>2020-08-18T06:48:01Z</time>
      </trkpt>
      <trkpt lat="44.90452" lon="5.38773">
        <ele>1050.536255</ele>
        <time>2020-08-18T06:48:06Z</time>
      </trkpt>
      <trkpt lat="44.9044" lon="5.3878">
        <ele>1050.923706</ele>
        <time>2020-08-18T06:48:09Z</time>
      </trkpt>
      <trkpt lat="44.90418" lon="5.38783">
        <ele>1051.472412</ele>
        <time>2020-08-18T06:48:14Z</time>
      </trkpt>
      <trkpt lat="44.90369" lon="5.38799">
        <ele>1051.836304</ele>
        <time>2020-08-18T06:48:24Z</time>
      </trkpt>
      <trkpt lat="44.9036" lon="5.38807">
        <ele>1052.188721</ele>
        <time>2020-08-18T06:48:26Z</time>
      </trkpt>
      <trkpt lat="44.90353" lon="5.3882">
        <ele>1052.390015</ele>
        <time>2020-08-18T06:48:28Z</time>
      </trkpt>
      <trkpt lat="44.90325" lon="5.38912">
        <ele>1052.944946</ele>
        <time>2020-08-18T06:48:42Z</time>
      </trkpt>
      <trkpt lat="44.90307" lon="5.38951">
        <ele>1053</ele>
        <time>2020-08-18T06:48:48Z</time>
      </trkpt>
      <trkpt lat="44.9026" lon="5.3898">
        <ele>1053.431274</ele>
        <time>2020-08-18T06:48:58Z</time>
      </trkpt>
      <trkpt lat="44.9024" lon="5.38989">
        <ele>1053.861572</ele>
        <time>2020-08-18T06:49:02Z</time>
      </trkpt>
      <trkpt lat="44.90195" lon="5.39019">
        <ele>1054.870605</ele>
        <time>2020-08-18T06:49:12Z</time>
      </trkpt>
      <trkpt lat="44.90185" lon="5.39032">
        <ele>1054.995483</ele>
        <time>2020-08-18T06:49:15Z</time>
      </trkpt>
      <trkpt lat="44.90178" lon="5.39056">
        <ele>1055.160767</ele>
        <time>2020-08-18T06:49:19Z</time>
      </trkpt>
      <trkpt lat="44.90173" lon="5.39097">
        <ele>1055.742432</ele>
        <time>2020-08-18T06:49:25Z</time>
      </trkpt>
      <trkpt lat="44.90175" lon="5.39149">
        <ele>1056.497559</ele>
        <time>2020-08-18T06:49:33Z</time>
      </trkpt>
      <trkpt lat="44.90167" lon="5.39174">
        <ele>1056.89624</ele>
        <time>2020-08-18T06:49:37Z</time>
      </trkpt>
      <trkpt lat="44.90155" lon="5.39203">
        <ele>1057.159302</ele>
        <time>2020-08-18T06:49:41Z</time>
      </trkpt>
      <trkpt lat="44.9014" lon="5.39252">
        <ele>1057.150024</ele>
        <time>2020-08-18T06:49:47Z</time>
      </trkpt>
      <trkpt lat="44.90127" lon="5.39327">
        <ele>1057.107544</ele>
        <time>2020-08-18T06:49:57Z</time>
      </trkpt>
      <trkpt lat="44.9011" lon="5.39399">
        <ele>1057.708862</ele>
        <time>2020-08-18T06:50:08Z</time>
      </trkpt>
      <trkpt lat="44.9011" lon="5.39414">
        <ele>1057.848999</ele>
        <time>2020-08-18T06:50:11Z</time>
      </trkpt>
      <trkpt lat="44.90112" lon="5.39429">
        <ele>1057.983398</ele>
        <time>2020-08-18T06:50:14Z</time>
      </trkpt>
      <trkpt lat="44.90125" lon="5.39452">
        <ele>1058.025513</ele>
        <time>2020-08-18T06:50:19Z</time>
      </trkpt>
      <trkpt lat="44.90195" lon="5.39521">
        <ele>1058</ele>
        <time>2020-08-18T06:50:36Z</time>
      </trkpt>
      <trkpt lat="44.90298" lon="5.39577">
        <ele>1058.022705</ele>
        <time>2020-08-18T06:51:00Z</time>
      </trkpt>
      <trkpt lat="44.90351" lon="5.39624">
        <ele>1056.043701</ele>
        <time>2020-08-18T06:51:12Z</time>
      </trkpt>
      <trkpt lat="44.90372" lon="5.39653">
        <ele>1054.900024</ele>
        <time>2020-08-18T06:51:18Z</time>
      </trkpt>
      <trkpt lat="44.90403" lon="5.39715">
        <ele>1053.963745</ele>
        <time>2020-08-18T06:51:29Z</time>
      </trkpt>
      <trkpt lat="44.90433" lon="5.39758">
        <ele>1053.918701</ele>
        <time>2020-08-18T06:51:37Z</time>
      </trkpt>
      <trkpt lat="44.90444" lon="5.39766">
        <ele>1054.006714</ele>
        <time>2020-08-18T06:51:39Z</time>
      </trkpt>
      <trkpt lat="44.90483" lon="5.3978">
        <ele>1054.19873</ele>
        <time>2020-08-18T06:51:45Z</time>
      </trkpt>
      <trkpt lat="44.90529" lon="5.39783">
        <ele>1054.081299</ele>
        <time>2020-08-18T06:51:54Z</time>
      </trkpt>
      <trkpt lat="44.9055" lon="5.39789">
        <ele>1053.694946</ele>
        <time>2020-08-18T06:52:00Z</time>
      </trkpt>
      <trkpt lat="44.9056" lon="5.39796">
        <ele>1053.578735</ele>
        <time>2020-08-18T06:52:03Z</time>
      </trkpt>
      <trkpt lat="44.90564" lon="5.3981">
        <ele>1053.696289</ele>
        <time>2020-08-18T06:52:06Z</time>
      </trkpt>
      <trkpt lat="44.90572" lon="5.3982">
        <ele>1053.686279</ele>
        <time>2020-08-18T06:52:09Z</time>
      </trkpt>
      <trkpt lat="44.90602" lon="5.39847">
        <ele>1053.361206</ele>
        <time>2020-08-18T06:52:18Z</time>
      </trkpt>
      <trkpt lat="44.90628" lon="5.39881">
        <ele>1053.28125</ele>
        <time>2020-08-18T06:52:24Z</time>
      </trkpt>
      <trkpt lat="44.90662" lon="5.39907">
        <ele>1052.882446</ele>
        <time>2020-08-18T06:52:32Z</time>
      </trkpt>
      <trkpt lat="44.90681" lon="5.39912">
        <ele>1052.536255</ele>
        <time>2020-08-18T06:52:36Z</time>
      </trkpt>
      <trkpt lat="44.90706" lon="5.39928">
        <ele>1052.19751</ele>
        <time>2020-08-18T06:52:42Z</time>
      </trkpt>
      <trkpt lat="44.90719" lon="5.39926">
        <ele>1051.882568</ele>
        <time>2020-08-18T06:52:45Z</time>
      </trkpt>
      <trkpt lat="44.90739" lon="5.39912">
        <ele>1051.201294</ele>
        <time>2020-08-18T06:52:51Z</time>
      </trkpt>
      <trkpt lat="44.90785" lon="5.39945">
        <ele>1050.170044</ele>
        <time>2020-08-18T06:53:03Z</time>
      </trkpt>
      <trkpt lat="44.90813" lon="5.39961">
        <ele>1049.464966</ele>
        <time>2020-08-18T06:53:09Z</time>
      </trkpt>
      <trkpt lat="44.90828" lon="5.39978">
        <ele>1049.199951</ele>
        <time>2020-08-18T06:53:13Z</time>
      </trkpt>
      <trkpt lat="44.90847" lon="5.40024">
        <ele>1050.851318</ele>
        <time>2020-08-18T06:53:21Z</time>
      </trkpt>
      <trkpt lat="44.90887" lon="5.40078">
        <ele>1052.913452</ele>
        <time>2020-08-18T06:53:31Z</time>
      </trkpt>
      <trkpt lat="44.90912" lon="5.40097">
        <ele>1052.971802</ele>
        <time>2020-08-18T06:53:35Z</time>
      </trkpt>
      <trkpt lat="44.90937" lon="5.40107">
        <ele>1052.527466</ele>
        <time>2020-08-18T06:53:39Z</time>
      </trkpt>
      <trkpt lat="44.90949" lon="5.40107">
        <ele>1052.262451</ele>
        <time>2020-08-18T06:53:41Z</time>
      </trkpt>
      <trkpt lat="44.90992" lon="5.40094">
        <ele>1051.415039</ele>
        <time>2020-08-18T06:53:49Z</time>
      </trkpt>
      <trkpt lat="44.91032" lon="5.40069">
        <ele>1050.383179</ele>
        <time>2020-08-18T06:53:57Z</time>
      </trkpt>
      <trkpt lat="44.91057" lon="5.40045">
        <ele>1048.768799</ele>
        <time>2020-08-18T06:54:03Z</time>
      </trkpt>
      <trkpt lat="44.91085" lon="5.40025">
        <ele>1048.422729</ele>
        <time>2020-08-18T06:54:09Z</time>
      </trkpt>
      <trkpt lat="44.91105" lon="5.40017">
        <ele>1048.192505</ele>
        <time>2020-08-18T06:54:13Z</time>
      </trkpt>
      <trkpt lat="44.91164" lon="5.40013">
        <ele>1047.469971</ele>
        <time>2020-08-18T06:54:23Z</time>
      </trkpt>
      <trkpt lat="44.91174" lon="5.40015">
        <ele>1047.33374</ele>
        <time>2020-08-18T06:54:25Z</time>
      </trkpt>
      <trkpt lat="44.91213" lon="5.40046">
        <ele>1046.858765</ele>
        <time>2020-08-18T06:54:35Z</time>
      </trkpt>
      <trkpt lat="44.91245" lon="5.40098">
        <ele>1048.914429</ele>
        <time>2020-08-18T06:54:45Z</time>
      </trkpt>
      <trkpt lat="44.91269" lon="5.40161">
        <ele>1053.465942</ele>
        <time>2020-08-18T06:54:55Z</time>
      </trkpt>
      <trkpt lat="44.91306" lon="5.40227">
        <ele>1057.909912</ele>
        <time>2020-08-18T06:55:07Z</time>
      </trkpt>
      <trkpt lat="44.91321" lon="5.40245">
        <ele>1058.473389</ele>
        <time>2020-08-18T06:55:11Z</time>
      </trkpt>
      <trkpt lat="44.91332" lon="5.40252">
        <ele>1058.544556</ele>
        <time>2020-08-18T06:55:14Z</time>
      </trkpt>
      <trkpt lat="44.91421" lon="5.40255">
        <ele>1056.871826</ele>
        <time>2020-08-18T06:55:32Z</time>
      </trkpt>
      <trkpt lat="44.91451" lon="5.40246">
        <ele>1057.082275</ele>
        <time>2020-08-18T06:55:38Z</time>
      </trkpt>
      <trkpt lat="44.91518" lon="5.4021">
        <ele>1050.31604</ele>
        <time>2020-08-18T06:55:52Z</time>
      </trkpt>
      <trkpt lat="44.91538" lon="5.40207">
        <ele>1048.033081</ele>
        <time>2020-08-18T06:55:56Z</time>
      </trkpt>
      <trkpt lat="44.91568" lon="5.40214">
        <ele>1045.356812</ele>
        <time>2020-08-18T06:56:14Z</time>
      </trkpt>
      <trkpt lat="44.91586" lon="5.40172">
        <ele>1044.401001</ele>
        <time>2020-08-18T06:57:54Z</time>
      </trkpt>
      <trkpt lat="44.91608" lon="5.4017">
        <ele>1043.025269</ele>
        <time>2020-08-18T06:57:58Z</time>
      </trkpt>
      <trkpt lat="44.91618" lon="5.40163">
        <ele>1042.759521</ele>
        <time>2020-08-18T06:58:00Z</time>
      </trkpt>
      <trkpt lat="44.91632" lon="5.40146">
        <ele>1042.556519</ele>
        <time>2020-08-18T06:58:04Z</time>
      </trkpt>
      <trkpt lat="44.91653" lon="5.40114">
        <ele>1043.694336</ele>
        <time>2020-08-18T06:58:10Z</time>
      </trkpt>
      <trkpt lat="44.91677" lon="5.40084">
        <ele>1043.753296</ele>
        <time>2020-08-18T06:58:16Z</time>
      </trkpt>
      <trkpt lat="44.91701" lon="5.4006">
        <ele>1043.937988</ele>
        <time>2020-08-18T06:58:22Z</time>
      </trkpt>
      <trkpt lat="44.9172" lon="5.40029">
        <ele>1044.644897</ele>
        <time>2020-08-18T06:58:28Z</time>
      </trkpt>
      <trkpt lat="44.91729" lon="5.39996">
        <ele>1047.047729</ele>
        <time>2020-08-18T06:58:34Z</time>
      </trkpt>
      <trkpt lat="44.91732" lon="5.39964">
        <ele>1049.925903</ele>
        <time>2020-08-18T06:58:40Z</time>
      </trkpt>
      <trkpt lat="44.91759" lon="5.39945">
        <ele>1050.029053</ele>
        <time>2020-08-18T06:58:51Z</time>
      </trkpt>
      <trkpt lat="44.91805" lon="5.39932">
        <ele>1050.583374</ele>
        <time>2020-08-18T06:59:03Z</time>
      </trkpt>
      <trkpt lat="44.91823" lon="5.39934">
        <ele>1050.723633</ele>
        <time>2020-08-18T06:59:07Z</time>
      </trkpt>
      <trkpt lat="44.91844" lon="5.39926">
        <ele>1052.282471</ele>
        <time>2020-08-18T06:59:16Z</time>
      </trkpt>
      <trkpt lat="44.91853" lon="5.39929">
        <ele>1052.307007</ele>
        <time>2020-08-18T06:59:19Z</time>
      </trkpt>
      <trkpt lat="44.91874" lon="5.39925">
        <ele>1053.643066</ele>
        <time>2020-08-18T06:59:25Z</time>
      </trkpt>
      <trkpt lat="44.91885" lon="5.39919">
        <ele>1055.359375</ele>
        <time>2020-08-18T06:59:29Z</time>
      </trkpt>
      <trkpt lat="44.91895" lon="5.39918">
        <ele>1056.203003</ele>
        <time>2020-08-18T06:59:32Z</time>
      </trkpt>
      <trkpt lat="44.91931" lon="5.39929">
        <ele>1057.067505</ele>
        <time>2020-08-18T06:59:41Z</time>
      </trkpt>
      <trkpt lat="44.91967" lon="5.39932">
        <ele>1058.854126</ele>
        <time>2020-08-18T06:59:49Z</time>
      </trkpt>
      <trkpt lat="44.92009" lon="5.39943">
        <ele>1057.543335</ele>
        <time>2020-08-18T06:59:57Z</time>
      </trkpt>
      <trkpt lat="44.92022" lon="5.3995">
        <ele>1057.172363</ele>
        <time>2020-08-18T06:59:59Z</time>
      </trkpt>
      <trkpt lat="44.9204" lon="5.39966">
        <ele>1055.682861</ele>
        <time>2020-08-18T07:00:03Z</time>
      </trkpt>
      <trkpt lat="44.92062" lon="5.39974">
        <ele>1054.630005</ele>
        <time>2020-08-18T07:00:09Z</time>
      </trkpt>
      <trkpt lat="44.92071" lon="5.39981">
        <ele>1053.54126</ele>
        <time>2020-08-18T07:00:11Z</time>
      </trkpt>
      <trkpt lat="44.92097" lon="5.39991">
        <ele>1051.493286</ele>
        <time>2020-08-18T07:00:16Z</time>
      </trkpt>
      <trkpt lat="44.9213" lon="5.40013">
        <ele>1046.306274</ele>
        <time>2020-08-18T07:00:22Z</time>
      </trkpt>
      <trkpt lat="44.92151" lon="5.40017">
        <ele>1044.445557</ele>
        <time>2020-08-18T07:00:26Z</time>
      </trkpt>
      <trkpt lat="44.92167" lon="5.40035">
        <ele>1042.716431</ele>
        <time>2020-08-18T07:00:30Z</time>
      </trkpt>
      <trkpt lat="44.92175" lon="5.40047">
        <ele>1042.197632</ele>
        <time>2020-08-18T07:00:32Z</time>
      </trkpt>
      <trkpt lat="44.92179" lon="5.4006">
        <ele>1042.790039</ele>
        <time>2020-08-18T07:00:34Z</time>
      </trkpt>
      <trkpt lat="44.92185" lon="5.40071">
        <ele>1043.459473</ele>
        <time>2020-08-18T07:00:36Z</time>
      </trkpt>
      <trkpt lat="44.92195" lon="5.40079">
        <ele>1043.718384</ele>
        <time>2020-08-18T07:00:38Z</time>
      </trkpt>
      <trkpt lat="44.92219" lon="5.40091">
        <ele>1043.642334</ele>
        <time>2020-08-18T07:00:42Z</time>
      </trkpt>
      <trkpt lat="44.92239" lon="5.40091">
        <ele>1042.787842</ele>
        <time>2020-08-18T07:00:46Z</time>
      </trkpt>
      <trkpt lat="44.92273" lon="5.4008">
        <ele>1041.765015</ele>
        <time>2020-08-18T07:00:52Z</time>
      </trkpt>
      <trkpt lat="44.92282" lon="5.40073">
        <ele>1042.66626</ele>
        <time>2020-08-18T07:00:54Z</time>
      </trkpt>
      <trkpt lat="44.92288" lon="5.40063">
        <ele>1043.382446</ele>
        <time>2020-08-18T07:00:56Z</time>
      </trkpt>
      <trkpt lat="44.92293" lon="5.40038">
        <ele>1043.728394</ele>
        <time>2020-08-18T07:01:00Z</time>
      </trkpt>
      <trkpt lat="44.92298" lon="5.39995">
        <ele>1043.717651</ele>
        <time>2020-08-18T07:01:06Z</time>
      </trkpt>
      <trkpt lat="44.92303" lon="5.3998">
        <ele>1043.894043</ele>
        <time>2020-08-18T07:01:08Z</time>
      </trkpt>
      <trkpt lat="44.92339" lon="5.39925">
        <ele>1045.298828</ele>
        <time>2020-08-18T07:01:18Z</time>
      </trkpt>
      <trkpt lat="44.92355" lon="5.39909">
        <ele>1046.23291</ele>
        <time>2020-08-18T07:01:22Z</time>
      </trkpt>
      <trkpt lat="44.92361" lon="5.39897">
        <ele>1045.90686</ele>
        <time>2020-08-18T07:01:24Z</time>
      </trkpt>
      <trkpt lat="44.9238" lon="5.39841">
        <ele>1043.539551</ele>
        <time>2020-08-18T07:01:32Z</time>
      </trkpt>
      <trkpt lat="44.92388" lon="5.39832">
        <ele>1043.003052</ele>
        <time>2020-08-18T07:01:34Z</time>
      </trkpt>
      <trkpt lat="44.92398" lon="5.39831">
        <ele>1042.695313</ele>
        <time>2020-08-18T07:01:36Z</time>
      </trkpt>
      <trkpt lat="44.92431" lon="5.39839">
        <ele>1042.695068</ele>
        <time>2020-08-18T07:01:43Z</time>
      </trkpt>
      <trkpt lat="44.9245" lon="5.39848">
        <ele>1043.076294</ele>
        <time>2020-08-18T07:01:47Z</time>
      </trkpt>
      <trkpt lat="44.92477" lon="5.39869">
        <ele>1045.00769</ele>
        <time>2020-08-18T07:01:53Z</time>
      </trkpt>
      <trkpt lat="44.92505" lon="5.39881">
        <ele>1045.327026</ele>
        <time>2020-08-18T07:01:59Z</time>
      </trkpt>
      <trkpt lat="44.9253" lon="5.39909">
        <ele>1047.019165</ele>
        <time>2020-08-18T07:02:05Z</time>
      </trkpt>
      <trkpt lat="44.9256" lon="5.39929">
        <ele>1044.958618</ele>
        <time>2020-08-18T07:02:12Z</time>
      </trkpt>
      <trkpt lat="44.92576" lon="5.39957">
        <ele>1043.141724</ele>
        <time>2020-08-18T07:02:18Z</time>
      </trkpt>
      <trkpt lat="44.92584" lon="5.39985">
        <ele>1041.965942</ele>
        <time>2020-08-18T07:02:22Z</time>
      </trkpt>
      <trkpt lat="44.9261" lon="5.40026">
        <ele>1040.007324</ele>
        <time>2020-08-18T07:02:30Z</time>
      </trkpt>
      <trkpt lat="44.92636" lon="5.4005">
        <ele>1037.876343</ele>
        <time>2020-08-18T07:02:36Z</time>
      </trkpt>
      <trkpt lat="44.92639" lon="5.40063">
        <ele>1037.53064</ele>
        <time>2020-08-18T07:02:41Z</time>
      </trkpt>
      <trkpt lat="44.92636" lon="5.40079">
        <ele>1037.198975</ele>
        <time>2020-08-18T07:02:45Z</time>
      </trkpt>
      <trkpt lat="44.92657" lon="5.40129">
        <ele>1040.227783</ele>
        <time>2020-08-18T07:03:00Z</time>
      </trkpt>
      <trkpt lat="44.92652" lon="5.40202">
        <ele>1043.197388</ele>
        <time>2020-08-18T07:03:18Z</time>
      </trkpt>
      <trkpt lat="44.92643" lon="5.40233">
        <ele>1043.873657</ele>
        <time>2020-08-18T07:03:26Z</time>
      </trkpt>
      <trkpt lat="44.92609" lon="5.40286">
        <ele>1044.309448</ele>
        <time>2020-08-18T07:03:47Z</time>
      </trkpt>
      <trkpt lat="44.92584" lon="5.40313">
        <ele>1043.25769</ele>
        <time>2020-08-18T07:03:59Z</time>
      </trkpt>
      <trkpt lat="44.92566" lon="5.40318">
        <ele>1044.777954</ele>
        <time>2020-08-18T07:04:05Z</time>
      </trkpt>
      <trkpt lat="44.92555" lon="5.40317">
        <ele>1046.376587</ele>
        <time>2020-08-18T07:04:09Z</time>
      </trkpt>
      <trkpt lat="44.92546" lon="5.40321">
        <ele>1047.59375</ele>
        <time>2020-08-18T07:04:13Z</time>
      </trkpt>
      <trkpt lat="44.92527" lon="5.40353">
        <ele>1050.182495</ele>
        <time>2020-08-18T07:04:23Z</time>
      </trkpt>
      <trkpt lat="44.92515" lon="5.40393">
        <ele>1051.931274</ele>
        <time>2020-08-18T07:04:44Z</time>
      </trkpt>
      <trkpt lat="44.92508" lon="5.40448">
        <ele>1053.959961</ele>
        <time>2020-08-18T07:05:04Z</time>
      </trkpt>
      <trkpt lat="44.92501" lon="5.4049">
        <ele>1058.60144</ele>
        <time>2020-08-18T07:05:18Z</time>
      </trkpt>
      <trkpt lat="44.92495" lon="5.40503">
        <ele>1060.238281</ele>
        <time>2020-08-18T07:05:23Z</time>
      </trkpt>
      <trkpt lat="44.92498" lon="5.40517">
        <ele>1061.39624</ele>
        <time>2020-08-18T07:05:29Z</time>
      </trkpt>
      <trkpt lat="44.92496" lon="5.4053">
        <ele>1063.882446</ele>
        <time>2020-08-18T07:05:32Z</time>
      </trkpt>
      <trkpt lat="44.92498" lon="5.40572">
        <ele>1070.736206</ele>
        <time>2020-08-18T07:05:46Z</time>
      </trkpt>
      <trkpt lat="44.92502" lon="5.40586">
        <ele>1071.736694</ele>
        <time>2020-08-18T07:05:51Z</time>
      </trkpt>
      <trkpt lat="44.92503" lon="5.40669">
        <ele>1076.800781</ele>
        <time>2020-08-18T07:06:27Z</time>
      </trkpt>
      <trkpt lat="44.925" lon="5.40684">
        <ele>1077.794067</ele>
        <time>2020-08-18T07:06:31Z</time>
      </trkpt>
      <trkpt lat="44.92502" lon="5.40713">
        <ele>1077.56543</ele>
        <time>2020-08-18T07:06:40Z</time>
      </trkpt>
      <trkpt lat="44.92506" lon="5.40724">
        <ele>1076.44812</ele>
        <time>2020-08-18T07:06:43Z</time>
      </trkpt>
      <trkpt lat="44.92508" lon="5.40739">
        <ele>1075.891357</ele>
        <time>2020-08-18T07:06:47Z</time>
      </trkpt>
      <trkpt lat="44.92513" lon="5.40751">
        <ele>1075.077271</ele>
        <time>2020-08-18T07:06:52Z</time>
      </trkpt>
      <trkpt lat="44.92516" lon="5.40782">
        <ele>1074.737061</ele>
        <time>2020-08-18T07:07:00Z</time>
      </trkpt>
      <trkpt lat="44.9252" lon="5.40795">
        <ele>1074.523315</ele>
        <time>2020-08-18T07:07:04Z</time>
      </trkpt>
      <trkpt lat="44.92536" lon="5.40828">
        <ele>1078.883301</ele>
        <time>2020-08-18T07:07:16Z</time>
      </trkpt>
      <trkpt lat="44.92538" lon="5.40842">
        <ele>1080.116943</ele>
        <time>2020-08-18T07:07:21Z</time>
      </trkpt>
      <trkpt lat="44.9255" lon="5.40865">
        <ele>1083.940674</ele>
        <time>2020-08-18T07:07:29Z</time>
      </trkpt>
      <trkpt lat="44.92549" lon="5.40878">
        <ele>1084.276978</ele>
        <time>2020-08-18T07:07:32Z</time>
      </trkpt>
      <trkpt lat="44.92554" lon="5.40919">
        <ele>1085.659912</ele>
        <time>2020-08-18T07:07:45Z</time>
      </trkpt>
      <trkpt lat="44.92537" lon="5.4099">
        <ele>1081.037964</ele>
        <time>2020-08-18T07:08:01Z</time>
      </trkpt>
      <trkpt lat="44.92539" lon="5.41045">
        <ele>1079.909546</ele>
        <time>2020-08-18T07:08:13Z</time>
      </trkpt>
      <trkpt lat="44.92542" lon="5.41061">
        <ele>1079.969604</ele>
        <time>2020-08-18T07:08:16Z</time>
      </trkpt>
      <trkpt lat="44.92536" lon="5.41093">
        <ele>1079.198242</ele>
        <time>2020-08-18T07:08:22Z</time>
      </trkpt>
      <trkpt lat="44.92544" lon="5.41136">
        <ele>1080.315552</ele>
        <time>2020-08-18T07:08:31Z</time>
      </trkpt>
      <trkpt lat="44.92557" lon="5.4116">
        <ele>1081.578613</ele>
        <time>2020-08-18T07:08:38Z</time>
      </trkpt>
      <trkpt lat="44.92561" lon="5.41172">
        <ele>1082.412476</ele>
        <time>2020-08-18T07:08:41Z</time>
      </trkpt>
      <trkpt lat="44.92564" lon="5.41201">
        <ele>1083.897949</ele>
        <time>2020-08-18T07:08:47Z</time>
      </trkpt>
      <trkpt lat="44.92574" lon="5.4124">
        <ele>1086.852173</ele>
        <time>2020-08-18T07:08:57Z</time>
      </trkpt>
      <trkpt lat="44.92575" lon="5.41269">
        <ele>1089.01355</ele>
        <time>2020-08-18T07:09:06Z</time>
      </trkpt>
      <trkpt lat="44.92579" lon="5.41282">
        <ele>1090.12915</ele>
        <time>2020-08-18T07:09:12Z</time>
      </trkpt>
      <trkpt lat="44.92606" lon="5.41304">
        <ele>1092.865601</ele>
        <time>2020-08-18T07:10:04Z</time>
      </trkpt>
      <trkpt lat="44.92617" lon="5.41309">
        <ele>1093.5625</ele>
        <time>2020-08-18T07:10:08Z</time>
      </trkpt>
      <trkpt lat="44.92622" lon="5.4132">
        <ele>1094.50708</ele>
        <time>2020-08-18T07:10:12Z</time>
      </trkpt>
      <trkpt lat="44.92622" lon="5.41335">
        <ele>1095.515625</ele>
        <time>2020-08-18T07:10:15Z</time>
      </trkpt>
      <trkpt lat="44.9263" lon="5.41364">
        <ele>1096.323975</ele>
        <time>2020-08-18T07:10:21Z</time>
      </trkpt>
      <trkpt lat="44.9263" lon="5.4138">
        <ele>1096.541504</ele>
        <time>2020-08-18T07:10:24Z</time>
      </trkpt>
      <trkpt lat="44.92619" lon="5.4144">
        <ele>1097.579102</ele>
        <time>2020-08-18T07:10:35Z</time>
      </trkpt>
      <trkpt lat="44.92623" lon="5.41528">
        <ele>1096.042603</ele>
        <time>2020-08-18T07:10:50Z</time>
      </trkpt>
      <trkpt lat="44.9262" lon="5.41566">
        <ele>1097.411133</ele>
        <time>2020-08-18T07:10:56Z</time>
      </trkpt>
      <trkpt lat="44.92612" lon="5.41595">
        <ele>1098.074829</ele>
        <time>2020-08-18T07:11:02Z</time>
      </trkpt>
      <trkpt lat="44.92581" lon="5.41633">
        <ele>1095.707031</ele>
        <time>2020-08-18T07:11:12Z</time>
      </trkpt>
      <trkpt lat="44.9258" lon="5.4165">
        <ele>1095.526855</ele>
        <time>2020-08-18T07:11:15Z</time>
      </trkpt>
      <trkpt lat="44.92585" lon="5.41667">
        <ele>1094.594971</ele>
        <time>2020-08-18T07:11:18Z</time>
      </trkpt>
      <trkpt lat="44.92608" lon="5.41698">
        <ele>1093.442505</ele>
        <time>2020-08-18T07:11:25Z</time>
      </trkpt>
      <trkpt lat="44.92629" lon="5.41712">
        <ele>1094.160034</ele>
        <time>2020-08-18T07:11:29Z</time>
      </trkpt>
      <trkpt lat="44.92596" lon="5.41709">
        <ele>1090.675049</ele>
        <time>2020-08-18T07:11:42Z</time>
      </trkpt>
      <trkpt lat="44.92583" lon="5.4171">
        <ele>1089.02002</ele>
        <time>2020-08-18T07:11:45Z</time>
      </trkpt>
      <trkpt lat="44.92549" lon="5.41722">
        <ele>1084.49646</ele>
        <time>2020-08-18T07:11:51Z</time>
      </trkpt>
      <trkpt lat="44.92508" lon="5.41722">
        <ele>1081.928833</ele>
        <time>2020-08-18T07:11:57Z</time>
      </trkpt>
      <trkpt lat="44.92494" lon="5.41727">
        <ele>1079.535767</ele>
        <time>2020-08-18T07:11:59Z</time>
      </trkpt>
      <trkpt lat="44.92465" lon="5.41748">
        <ele>1072.079102</ele>
        <time>2020-08-18T07:12:05Z</time>
      </trkpt>
      <trkpt lat="44.92426" lon="5.41756">
        <ele>1068.922729</ele>
        <time>2020-08-18T07:12:10Z</time>
      </trkpt>
      <trkpt lat="44.92411" lon="5.41756">
        <ele>1069.290527</ele>
        <time>2020-08-18T07:12:12Z</time>
      </trkpt>
      <trkpt lat="44.92385" lon="5.41767">
        <ele>1065.216919</ele>
        <time>2020-08-18T07:12:16Z</time>
      </trkpt>
      <trkpt lat="44.92371" lon="5.41768">
        <ele>1064.991211</ele>
        <time>2020-08-18T07:12:18Z</time>
      </trkpt>
      <trkpt lat="44.92325" lon="5.41785">
        <ele>1061.920288</ele>
        <time>2020-08-18T07:12:24Z</time>
      </trkpt>
      <trkpt lat="44.92299" lon="5.41783">
        <ele>1064.944946</ele>
        <time>2020-08-18T07:12:28Z</time>
      </trkpt>
      <trkpt lat="44.92292" lon="5.41794">
        <ele>1061.463257</ele>
        <time>2020-08-18T07:12:30Z</time>
      </trkpt>
      <trkpt lat="44.92303" lon="5.418">
        <ele>1058.402954</ele>
        <time>2020-08-18T07:12:35Z</time>
      </trkpt>
      <trkpt lat="44.92334" lon="5.41797">
        <ele>1057.042114</ele>
        <time>2020-08-18T07:12:42Z</time>
      </trkpt>
      <trkpt lat="44.92399" lon="5.41812">
        <ele>1049.76355</ele>
        <time>2020-08-18T07:12:54Z</time>
      </trkpt>
      <trkpt lat="44.92409" lon="5.41818">
        <ele>1048.079834</ele>
        <time>2020-08-18T07:12:56Z</time>
      </trkpt>
      <trkpt lat="44.9245" lon="5.41821">
        <ele>1047.494019</ele>
        <time>2020-08-18T07:13:04Z</time>
      </trkpt>
      <trkpt lat="44.92474" lon="5.41836">
        <ele>1044.827393</ele>
        <time>2020-08-18T07:13:08Z</time>
      </trkpt>
      <trkpt lat="44.92498" lon="5.41855">
        <ele>1041.150146</ele>
        <time>2020-08-18T07:13:12Z</time>
      </trkpt>
      <trkpt lat="44.9257" lon="5.41898">
        <ele>1035.821411</ele>
        <time>2020-08-18T07:13:24Z</time>
      </trkpt>
      <trkpt lat="44.92582" lon="5.41899">
        <ele>1036.54248</ele>
        <time>2020-08-18T07:13:26Z</time>
      </trkpt>
      <trkpt lat="44.92591" lon="5.41905">
        <ele>1035.592407</ele>
        <time>2020-08-18T07:13:28Z</time>
      </trkpt>
      <trkpt lat="44.92612" lon="5.41911">
        <ele>1036.199463</ele>
        <time>2020-08-18T07:13:30Z</time>
      </trkpt>
      <trkpt lat="44.92657" lon="5.41929">
        <ele>1037.055542</ele>
        <time>2020-08-18T07:13:35Z</time>
      </trkpt>
      <trkpt lat="44.927" lon="5.41958">
        <ele>1035.027588</ele>
        <time>2020-08-18T07:13:41Z</time>
      </trkpt>
      <trkpt lat="44.92733" lon="5.41997">
        <ele>1027.67749</ele>
        <time>2020-08-18T07:13:46Z</time>
      </trkpt>
      <trkpt lat="44.92738" lon="5.42007">
        <ele>1025.383789</ele>
        <time>2020-08-18T07:13:47Z</time>
      </trkpt>
      <trkpt lat="44.92779" lon="5.42042">
        <ele>1021.760803</ele>
        <time>2020-08-18T07:13:53Z</time>
      </trkpt>
      <trkpt lat="44.92792" lon="5.42064">
        <ele>1017.361389</ele>
        <time>2020-08-18T07:13:55Z</time>
      </trkpt>
      <trkpt lat="44.92814" lon="5.42087">
        <ele>1014.750427</ele>
        <time>2020-08-18T07:13:58Z</time>
      </trkpt>
      <trkpt lat="44.92894" lon="5.42156">
        <ele>1009.789978</ele>
        <time>2020-08-18T07:14:09Z</time>
      </trkpt>
      <trkpt lat="44.92907" lon="5.42165">
        <ele>1010.3125</ele>
        <time>2020-08-18T07:14:11Z</time>
      </trkpt>
      <trkpt lat="44.92917" lon="5.42168">
        <ele>1012.044983</ele>
        <time>2020-08-18T07:14:13Z</time>
      </trkpt>
      <trkpt lat="44.92912" lon="5.42178">
        <ele>1007.150024</ele>
        <time>2020-08-18T07:14:20Z</time>
      </trkpt>
      <trkpt lat="44.92814" lon="5.42162">
        <ele>990.276428</ele>
        <time>2020-08-18T07:14:37Z</time>
      </trkpt>
      <trkpt lat="44.9277" lon="5.42136">
        <ele>989.476563</ele>
        <time>2020-08-18T07:14:43Z</time>
      </trkpt>
      <trkpt lat="44.92723" lon="5.42115">
        <ele>986.494141</ele>
        <time>2020-08-18T07:14:49Z</time>
      </trkpt>
      <trkpt lat="44.92667" lon="5.42096">
        <ele>982.543579</ele>
        <time>2020-08-18T07:14:57Z</time>
      </trkpt>
      <trkpt lat="44.92646" lon="5.42103">
        <ele>977.424988</ele>
        <time>2020-08-18T07:15:02Z</time>
      </trkpt>
      <trkpt lat="44.9263" lon="5.42104">
        <ele>975.595032</ele>
        <time>2020-08-18T07:15:04Z</time>
      </trkpt>
      <trkpt lat="44.92575" lon="5.42114">
        <ele>968.203979</ele>
        <time>2020-08-18T07:15:12Z</time>
      </trkpt>
      <trkpt lat="44.92514" lon="5.42112">
        <ele>967.907471</ele>
        <time>2020-08-18T07:15:21Z</time>
      </trkpt>
      <trkpt lat="44.92457" lon="5.42127">
        <ele>962.245605</ele>
        <time>2020-08-18T07:15:30Z</time>
      </trkpt>
      <trkpt lat="44.92442" lon="5.42137">
        <ele>958.868713</ele>
        <time>2020-08-18T07:15:32Z</time>
      </trkpt>
      <trkpt lat="44.92402" lon="5.42146">
        <ele>955.927551</ele>
        <time>2020-08-18T07:15:36Z</time>
      </trkpt>
      <trkpt lat="44.92371" lon="5.42143">
        <ele>956.846558</ele>
        <time>2020-08-18T07:15:40Z</time>
      </trkpt>
      <trkpt lat="44.92358" lon="5.42145">
        <ele>956.378479</ele>
        <time>2020-08-18T07:15:42Z</time>
      </trkpt>
      <trkpt lat="44.92323" lon="5.4216">
        <ele>952.551025</ele>
        <time>2020-08-18T07:15:47Z</time>
      </trkpt>
      <trkpt lat="44.9229" lon="5.42183">
        <ele>947.634155</ele>
        <time>2020-08-18T07:15:51Z</time>
      </trkpt>
      <trkpt lat="44.92274" lon="5.42191">
        <ele>945.758911</ele>
        <time>2020-08-18T07:15:53Z</time>
      </trkpt>
      <trkpt lat="44.92207" lon="5.42211">
        <ele>939.135681</ele>
        <time>2020-08-18T07:16:01Z</time>
      </trkpt>
      <trkpt lat="44.92172" lon="5.42213">
        <ele>937.27948</ele>
        <time>2020-08-18T07:16:05Z</time>
      </trkpt>
      <trkpt lat="44.92125" lon="5.42225">
        <ele>932.667725</ele>
        <time>2020-08-18T07:16:10Z</time>
      </trkpt>
      <trkpt lat="44.92078" lon="5.42242">
        <ele>926.491028</ele>
        <time>2020-08-18T07:16:15Z</time>
      </trkpt>
      <trkpt lat="44.92018" lon="5.42274">
        <ele>920.44751</ele>
        <time>2020-08-18T07:16:22Z</time>
      </trkpt>
      <trkpt lat="44.92013" lon="5.42285">
        <ele>918.467468</ele>
        <time>2020-08-18T07:16:24Z</time>
      </trkpt>
      <trkpt lat="44.92023" lon="5.42294">
        <ele>916.60498</ele>
        <time>2020-08-18T07:16:28Z</time>
      </trkpt>
      <trkpt lat="44.92071" lon="5.42312">
        <ele>912.437927</ele>
        <time>2020-08-18T07:16:37Z</time>
      </trkpt>
      <trkpt lat="44.92083" lon="5.42319">
        <ele>911.493469</ele>
        <time>2020-08-18T07:16:39Z</time>
      </trkpt>
      <trkpt lat="44.92093" lon="5.4233">
        <ele>910.043884</ele>
        <time>2020-08-18T07:16:41Z</time>
      </trkpt>
      <trkpt lat="44.92119" lon="5.42375">
        <ele>904.336487</ele>
        <time>2020-08-18T07:16:47Z</time>
      </trkpt>
      <trkpt lat="44.9213" lon="5.4239">
        <ele>902.584045</ele>
        <time>2020-08-18T07:16:49Z</time>
      </trkpt>
      <trkpt lat="44.92172" lon="5.42421">
        <ele>898.14032</ele>
        <time>2020-08-18T07:16:57Z</time>
      </trkpt>
      <trkpt lat="44.92179" lon="5.42434">
        <ele>895.51001</ele>
        <time>2020-08-18T07:17:00Z</time>
      </trkpt>
      <trkpt lat="44.92215" lon="5.42451">
        <ele>891.240967</ele>
        <time>2020-08-18T07:17:07Z</time>
      </trkpt>
      <trkpt lat="44.9226" lon="5.42476">
        <ele>885.287476</ele>
        <time>2020-08-18T07:17:13Z</time>
      </trkpt>
      <trkpt lat="44.9233" lon="5.42495">
        <ele>880.49408</ele>
        <time>2020-08-18T07:17:20Z</time>
      </trkpt>
      <trkpt lat="44.92378" lon="5.42484">
        <ele>877.36969</ele>
        <time>2020-08-18T07:17:25Z</time>
      </trkpt>
      <trkpt lat="44.92421" lon="5.4248">
        <ele>869.465027</ele>
        <time>2020-08-18T07:17:29Z</time>
      </trkpt>
      <trkpt lat="44.9244" lon="5.42484">
        <ele>864.885925</ele>
        <time>2020-08-18T07:17:31Z</time>
      </trkpt>
      <trkpt lat="44.9246" lon="5.42482">
        <ele>861.542786</ele>
        <time>2020-08-18T07:17:33Z</time>
      </trkpt>
      <trkpt lat="44.92498" lon="5.42472">
        <ele>859.848755</ele>
        <time>2020-08-18T07:17:37Z</time>
      </trkpt>
      <trkpt lat="44.92516" lon="5.42475">
        <ele>857.601257</ele>
        <time>2020-08-18T07:17:39Z</time>
      </trkpt>
      <trkpt lat="44.92534" lon="5.42487">
        <ele>854.577515</ele>
        <time>2020-08-18T07:17:41Z</time>
      </trkpt>
      <trkpt lat="44.92583" lon="5.42492">
        <ele>851.849548</ele>
        <time>2020-08-18T07:17:46Z</time>
      </trkpt>
      <trkpt lat="44.92603" lon="5.42498">
        <ele>849.212097</ele>
        <time>2020-08-18T07:17:48Z</time>
      </trkpt>
      <trkpt lat="44.92624" lon="5.425">
        <ele>847.304749</ele>
        <time>2020-08-18T07:17:50Z</time>
      </trkpt>
      <trkpt lat="44.92664" lon="5.42489">
        <ele>847.997375</ele>
        <time>2020-08-18T07:17:54Z</time>
      </trkpt>
      <trkpt lat="44.92704" lon="5.42497">
        <ele>846.456238</ele>
        <time>2020-08-18T07:17:58Z</time>
      </trkpt>
      <trkpt lat="44.92744" lon="5.42521">
        <ele>841.539978</ele>
        <time>2020-08-18T07:18:02Z</time>
      </trkpt>
      <trkpt lat="44.92796" lon="5.42564">
        <ele>833.075928</ele>
        <time>2020-08-18T07:18:08Z</time>
      </trkpt>
      <trkpt lat="44.92808" lon="5.42569">
        <ele>832.198608</ele>
        <time>2020-08-18T07:18:10Z</time>
      </trkpt>
      <trkpt lat="44.92815" lon="5.42579">
        <ele>829.649597</ele>
        <time>2020-08-18T07:18:13Z</time>
      </trkpt>
      <trkpt lat="44.92805" lon="5.42587">
        <ele>827.305054</ele>
        <time>2020-08-18T07:18:16Z</time>
      </trkpt>
      <trkpt lat="44.92792" lon="5.42585">
        <ele>827.464294</ele>
        <time>2020-08-18T07:18:18Z</time>
      </trkpt>
      <trkpt lat="44.92782" lon="5.4259">
        <ele>826.072754</ele>
        <time>2020-08-18T07:18:20Z</time>
      </trkpt>
      <trkpt lat="44.92783" lon="5.42605">
        <ele>822.351501</ele>
        <time>2020-08-18T07:18:22Z</time>
      </trkpt>
      <trkpt lat="44.92797" lon="5.42631">
        <ele>816.659973</ele>
        <time>2020-08-18T07:18:26Z</time>
      </trkpt>
      <trkpt lat="44.92792" lon="5.42661">
        <ele>810.929993</ele>
        <time>2020-08-18T07:18:34Z</time>
      </trkpt>
      <trkpt lat="44.92783" lon="5.42672">
        <ele>808.724976</ele>
        <time>2020-08-18T07:18:36Z</time>
      </trkpt>
      <trkpt lat="44.92762" lon="5.42682">
        <ele>806.744507</ele>
        <time>2020-08-18T07:18:40Z</time>
      </trkpt>
      <trkpt lat="44.92753" lon="5.4269">
        <ele>805.720032</ele>
        <time>2020-08-18T07:18:42Z</time>
      </trkpt>
      <trkpt lat="44.92748" lon="5.42719">
        <ele>801.830078</ele>
        <time>2020-08-18T07:18:47Z</time>
      </trkpt>
      <trkpt lat="44.92737" lon="5.42747">
        <ele>798.591675</ele>
        <time>2020-08-18T07:18:54Z</time>
      </trkpt>
      <trkpt lat="44.92738" lon="5.42778">
        <ele>796.194397</ele>
        <time>2020-08-18T07:19:01Z</time>
      </trkpt>
      <trkpt lat="44.92726" lon="5.42824">
        <ele>793.941284</ele>
        <time>2020-08-18T07:19:09Z</time>
      </trkpt>
      <trkpt lat="44.92695" lon="5.42913">
        <ele>793.77417</ele>
        <time>2020-08-18T07:19:25Z</time>
      </trkpt>
      <trkpt lat="44.92688" lon="5.42924">
        <ele>793.919556</ele>
        <time>2020-08-18T07:19:28Z</time>
      </trkpt>
      <trkpt lat="44.92677" lon="5.42929">
        <ele>793.994995</ele>
        <time>2020-08-18T07:19:31Z</time>
      </trkpt>
      <trkpt lat="44.92655" lon="5.42929">
        <ele>794.03302</ele>
        <time>2020-08-18T07:19:37Z</time>
      </trkpt>
      <trkpt lat="44.92633" lon="5.42941">
        <ele>795.279663</ele>
        <time>2020-08-18T07:19:43Z</time>
      </trkpt>
      <trkpt lat="44.92603" lon="5.42988">
        <ele>800.265442</ele>
        <time>2020-08-18T07:19:55Z</time>
      </trkpt>
      <trkpt lat="44.92575" lon="5.4306">
        <ele>801.330017</ele>
        <time>2020-08-18T07:20:10Z</time>
      </trkpt>
      <trkpt lat="44.92554" lon="5.43079">
        <ele>801.584595</ele>
        <time>2020-08-18T07:20:16Z</time>
      </trkpt>
      <trkpt lat="44.92542" lon="5.43085">
        <ele>801.828552</ele>
        <time>2020-08-18T07:20:19Z</time>
      </trkpt>
      <trkpt lat="44.92472" lon="5.43098">
        <ele>805.326233</ele>
        <time>2020-08-18T07:20:35Z</time>
      </trkpt>
      <trkpt lat="44.9246" lon="5.43105">
        <ele>805.074707</ele>
        <time>2020-08-18T07:20:38Z</time>
      </trkpt>
      <trkpt lat="44.92428" lon="5.43134">
        <ele>806.237122</ele>
        <time>2020-08-18T07:20:47Z</time>
      </trkpt>
      <trkpt lat="44.92413" lon="5.43157">
        <ele>804.696899</ele>
        <time>2020-08-18T07:20:52Z</time>
      </trkpt>
      <trkpt lat="44.92398" lon="5.43185">
        <ele>803.987183</ele>
        <time>2020-08-18T07:20:58Z</time>
      </trkpt>
      <trkpt lat="44.92396" lon="5.43202">
        <ele>804.312256</ele>
        <time>2020-08-18T07:21:01Z</time>
      </trkpt>
      <trkpt lat="44.92404" lon="5.43274">
        <ele>804.135315</ele>
        <time>2020-08-18T07:21:13Z</time>
      </trkpt>
      <trkpt lat="44.92408" lon="5.43329">
        <ele>805.834839</ele>
        <time>2020-08-18T07:21:22Z</time>
      </trkpt>
      <trkpt lat="44.92405" lon="5.43366">
        <ele>808.256348</ele>
        <time>2020-08-18T07:21:28Z</time>
      </trkpt>
      <trkpt lat="44.92399" lon="5.43401">
        <ele>811.273743</ele>
        <time>2020-08-18T07:21:34Z</time>
      </trkpt>
      <trkpt lat="44.92397" lon="5.43438">
        <ele>813.102722</ele>
        <time>2020-08-18T07:21:40Z</time>
      </trkpt>
      <trkpt lat="44.92409" lon="5.43517">
        <ele>815.14502</ele>
        <time>2020-08-18T07:21:55Z</time>
      </trkpt>
      <trkpt lat="44.9241" lon="5.43549">
        <ele>816.867493</ele>
        <time>2020-08-18T07:22:01Z</time>
      </trkpt>
      <trkpt lat="44.92404" lon="5.43593">
        <ele>820.164978</ele>
        <time>2020-08-18T07:22:10Z</time>
      </trkpt>
      <trkpt lat="44.92406" lon="5.43622">
        <ele>822.178345</ele>
        <time>2020-08-18T07:22:17Z</time>
      </trkpt>
      <trkpt lat="44.92419" lon="5.43729">
        <ele>830.804993</ele>
        <time>2020-08-18T07:22:42Z</time>
      </trkpt>
      <trkpt lat="44.92421" lon="5.4379">
        <ele>834.762146</ele>
        <time>2020-08-18T07:22:57Z</time>
      </trkpt>
      <trkpt lat="44.92419" lon="5.43805">
        <ele>836.033752</ele>
        <time>2020-08-18T07:23:01Z</time>
      </trkpt>
      <trkpt lat="44.92411" lon="5.43797">
        <ele>836.826904</ele>
        <time>2020-08-18T07:23:06Z</time>
      </trkpt>
      <trkpt lat="44.92406" lon="5.43768">
        <ele>836.083801</ele>
        <time>2020-08-18T07:23:14Z</time>
      </trkpt>
      <trkpt lat="44.92402" lon="5.43756">
        <ele>836.303894</ele>
        <time>2020-08-18T07:23:18Z</time>
      </trkpt>
      <trkpt lat="44.92364" lon="5.43685">
        <ele>840.052185</ele>
        <time>2020-08-18T07:23:47Z</time>
      </trkpt>
      <trkpt lat="44.92348" lon="5.43667">
        <ele>842.372681</ele>
        <time>2020-08-18T07:23:55Z</time>
      </trkpt>
      <trkpt lat="44.92319" lon="5.43648">
        <ele>848.985535</ele>
        <time>2020-08-18T07:24:07Z</time>
      </trkpt>
      <trkpt lat="44.92284" lon="5.43611">
        <ele>854.846069</ele>
        <time>2020-08-18T07:24:24Z</time>
      </trkpt>
      <trkpt lat="44.92273" lon="5.43586">
        <ele>856.070068</ele>
        <time>2020-08-18T07:24:32Z</time>
      </trkpt>
      <trkpt lat="44.92265" lon="5.4356">
        <ele>855.260437</ele>
        <time>2020-08-18T07:24:41Z</time>
      </trkpt>
      <trkpt lat="44.92266" lon="5.43514">
        <ele>849.840942</ele>
        <time>2020-08-18T07:24:52Z</time>
      </trkpt>
      <trkpt lat="44.92264" lon="5.43494">
        <ele>848.749146</ele>
        <time>2020-08-18T07:24:57Z</time>
      </trkpt>
      <trkpt lat="44.92258" lon="5.43481">
        <ele>848.306519</ele>
        <time>2020-08-18T07:25:00Z</time>
      </trkpt>
      <trkpt lat="44.92249" lon="5.43475">
        <ele>848.453491</ele>
        <time>2020-08-18T07:25:04Z</time>
      </trkpt>
      <trkpt lat="44.92239" lon="5.43478">
        <ele>849.883667</ele>
        <time>2020-08-18T07:25:08Z</time>
      </trkpt>
      <trkpt lat="44.9223" lon="5.43486">
        <ele>852.472229</ele>
        <time>2020-08-18T07:25:12Z</time>
      </trkpt>
      <trkpt lat="44.92209" lon="5.43518">
        <ele>862.360291</ele>
        <time>2020-08-18T07:25:24Z</time>
      </trkpt>
      <trkpt lat="44.922" lon="5.43524">
        <ele>865.015015</ele>
        <time>2020-08-18T07:25:28Z</time>
      </trkpt>
      <trkpt lat="44.92189" lon="5.43526">
        <ele>867.315979</ele>
        <time>2020-08-18T07:25:32Z</time>
      </trkpt>
      <trkpt lat="44.92159" lon="5.43519">
        <ele>868.976501</ele>
        <time>2020-08-18T07:25:42Z</time>
      </trkpt>
      <trkpt lat="44.92144" lon="5.43505">
        <ele>866.479187</ele>
        <time>2020-08-18T07:25:48Z</time>
      </trkpt>
      <trkpt lat="44.92135" lon="5.43508">
        <ele>868.227356</ele>
        <time>2020-08-18T07:25:52Z</time>
      </trkpt>
      <trkpt lat="44.92138" lon="5.43523">
        <ele>871.759827</ele>
        <time>2020-08-18T07:25:56Z</time>
      </trkpt>
      <trkpt lat="44.92147" lon="5.43532">
        <ele>873.541687</ele>
        <time>2020-08-18T07:26:00Z</time>
      </trkpt>
      <trkpt lat="44.92184" lon="5.43558">
        <ele>877.975708</ele>
        <time>2020-08-18T07:26:18Z</time>
      </trkpt>
      <trkpt lat="44.92203" lon="5.43579">
        <ele>880.1297</ele>
        <time>2020-08-18T07:26:26Z</time>
      </trkpt>
      <trkpt lat="44.92223" lon="5.43617">
        <ele>883.211609</ele>
        <time>2020-08-18T07:26:38Z</time>
      </trkpt>
      <trkpt lat="44.92239" lon="5.43731">
        <ele>895.490845</ele>
        <time>2020-08-18T07:27:14Z</time>
      </trkpt>
      <trkpt lat="44.92238" lon="5.43804">
        <ele>904.286194</ele>
        <time>2020-08-18T07:27:31Z</time>
      </trkpt>
      <trkpt lat="44.92246" lon="5.43846">
        <ele>903.707275</ele>
        <time>2020-08-18T07:27:43Z</time>
      </trkpt>
      <trkpt lat="44.9225" lon="5.43933">
        <ele>910.487488</ele>
        <time>2020-08-18T07:28:10Z</time>
      </trkpt>
      <trkpt lat="44.92254" lon="5.43946">
        <ele>911.179199</ele>
        <time>2020-08-18T07:28:14Z</time>
      </trkpt>
      <trkpt lat="44.92295" lon="5.44006">
        <ele>917.929016</ele>
        <time>2020-08-18T07:28:38Z</time>
      </trkpt>
      <trkpt lat="44.92304" lon="5.44012">
        <ele>918.418701</ele>
        <time>2020-08-18T07:28:42Z</time>
      </trkpt>
      <trkpt lat="44.92341" lon="5.44024">
        <ele>915.4375</ele>
        <time>2020-08-18T07:28:58Z</time>
      </trkpt>
      <trkpt lat="44.92351" lon="5.44022">
        <ele>913.114746</ele>
        <time>2020-08-18T07:29:02Z</time>
      </trkpt>
      <trkpt lat="44.92382" lon="5.44026">
        <ele>910.742859</ele>
        <time>2020-08-18T07:29:15Z</time>
      </trkpt>
      <trkpt lat="44.9239" lon="5.44032">
        <ele>913.121887</ele>
        <time>2020-08-18T07:29:19Z</time>
      </trkpt>
      <trkpt lat="44.924" lon="5.44058">
        <ele>926.438293</ele>
        <time>2020-08-18T07:29:29Z</time>
      </trkpt>
      <trkpt lat="44.92407" lon="5.44068">
        <ele>931.334778</ele>
        <time>2020-08-18T07:29:33Z</time>
      </trkpt>
      <trkpt lat="44.92426" lon="5.44083">
        <ele>937.295776</ele>
        <time>2020-08-18T07:29:42Z</time>
      </trkpt>
      <trkpt lat="44.92484" lon="5.44105">
        <ele>946.893921</ele>
        <time>2020-08-18T07:30:06Z</time>
      </trkpt>
      <trkpt lat="44.92513" lon="5.441">
        <ele>945.769958</ele>
        <time>2020-08-18T07:30:18Z</time>
      </trkpt>
      <trkpt lat="44.92523" lon="5.44102">
        <ele>946.945496</ele>
        <time>2020-08-18T07:30:22Z</time>
      </trkpt>
      <trkpt lat="44.92549" lon="5.4412">
        <ele>955.316345</ele>
        <time>2020-08-18T07:30:35Z</time>
      </trkpt>
      <trkpt lat="44.926" lon="5.44133">
        <ele>960.736511</ele>
        <time>2020-08-18T07:30:56Z</time>
      </trkpt>
      <trkpt lat="44.92621" lon="5.44135">
        <ele>961.274231</ele>
        <time>2020-08-18T07:31:05Z</time>
      </trkpt>
      <trkpt lat="44.92641" lon="5.44133">
        <ele>959.385498</ele>
        <time>2020-08-18T07:31:13Z</time>
      </trkpt>
      <trkpt lat="44.92662" lon="5.44126">
        <ele>955.565674</ele>
        <time>2020-08-18T07:31:22Z</time>
      </trkpt>
      <trkpt lat="44.92683" lon="5.44127">
        <ele>956.548889</ele>
        <time>2020-08-18T07:31:30Z</time>
      </trkpt>
      <trkpt lat="44.92702" lon="5.44137">
        <ele>961.744873</ele>
        <time>2020-08-18T07:31:39Z</time>
      </trkpt>
      <trkpt lat="44.92719" lon="5.44153">
        <ele>972.295227</ele>
        <time>2020-08-18T07:31:48Z</time>
      </trkpt>
      <trkpt lat="44.92741" lon="5.44159">
        <ele>977.337585</ele>
        <time>2020-08-18T07:31:56Z</time>
      </trkpt>
      <trkpt lat="44.92781" lon="5.4415">
        <ele>979.006653</ele>
        <time>2020-08-18T07:32:12Z</time>
      </trkpt>
      <trkpt lat="44.92801" lon="5.4415">
        <ele>984.212708</ele>
        <time>2020-08-18T07:32:20Z</time>
      </trkpt>
      <trkpt lat="44.92821" lon="5.44143">
        <ele>985.785889</ele>
        <time>2020-08-18T07:32:28Z</time>
      </trkpt>
      <trkpt lat="44.92846" lon="5.4412">
        <ele>978.887512</ele>
        <time>2020-08-18T07:32:40Z</time>
      </trkpt>
      <trkpt lat="44.92857" lon="5.44117">
        <ele>978.533508</ele>
        <time>2020-08-18T07:32:44Z</time>
      </trkpt>
      <trkpt lat="44.92898" lon="5.44129">
        <ele>993.96283</ele>
        <time>2020-08-18T07:33:00Z</time>
      </trkpt>
      <trkpt lat="44.92919" lon="5.44128">
        <ele>995.321899</ele>
        <time>2020-08-18T07:33:08Z</time>
      </trkpt>
      <trkpt lat="44.92938" lon="5.44121">
        <ele>990.614319</ele>
        <time>2020-08-18T07:33:16Z</time>
      </trkpt>
      <trkpt lat="44.92969" lon="5.44126">
        <ele>994.35083</ele>
        <time>2020-08-18T07:33:29Z</time>
      </trkpt>
      <trkpt lat="44.92973" lon="5.44138">
        <ele>1003.682007</ele>
        <time>2020-08-18T07:33:34Z</time>
      </trkpt>
      <trkpt lat="44.92953" lon="5.44138">
        <ele>1003.475586</ele>
        <time>2020-08-18T07:33:45Z</time>
      </trkpt>
      <trkpt lat="44.92914" lon="5.44165">
        <ele>1017.20459</ele>
        <time>2020-08-18T07:34:01Z</time>
      </trkpt>
      <trkpt lat="44.92853" lon="5.44189">
        <ele>1018.348816</ele>
        <time>2020-08-18T07:34:25Z</time>
      </trkpt>
      <trkpt lat="44.92846" lon="5.44199">
        <ele>1021.693848</ele>
        <time>2020-08-18T07:34:29Z</time>
      </trkpt>
      <trkpt lat="44.92856" lon="5.44205">
        <ele>1026.928955</ele>
        <time>2020-08-18T07:34:35Z</time>
      </trkpt>
      <trkpt lat="44.92874" lon="5.44193">
        <ele>1024.77002</ele>
        <time>2020-08-18T07:34:43Z</time>
      </trkpt>
      <trkpt lat="44.92915" lon="5.44198">
        <ele>1032.665039</ele>
        <time>2020-08-18T07:34:59Z</time>
      </trkpt>
      <trkpt lat="44.92946" lon="5.44191">
        <ele>1031.626465</ele>
        <time>2020-08-18T07:35:11Z</time>
      </trkpt>
      <trkpt lat="44.92966" lon="5.44197">
        <ele>1035.29248</ele>
        <time>2020-08-18T07:35:20Z</time>
      </trkpt>
      <trkpt lat="44.92992" lon="5.44215">
        <ele>1044.027466</ele>
        <time>2020-08-18T07:35:32Z</time>
      </trkpt>
      <trkpt lat="44.93023" lon="5.44221">
        <ele>1046.451294</ele>
        <time>2020-08-18T07:35:44Z</time>
      </trkpt>
      <trkpt lat="44.93043" lon="5.44221">
        <ele>1046.11792</ele>
        <time>2020-08-18T07:35:52Z</time>
      </trkpt>
      <trkpt lat="44.93061" lon="5.44231">
        <ele>1050.780029</ele>
        <time>2020-08-18T07:35:58Z</time>
      </trkpt>
      <trkpt lat="44.93103" lon="5.44241">
        <ele>1056.181152</ele>
        <time>2020-08-18T07:36:14Z</time>
      </trkpt>
      <trkpt lat="44.93123" lon="5.4424">
        <ele>1055.037109</ele>
        <time>2020-08-18T07:36:22Z</time>
      </trkpt>
      <trkpt lat="44.93155" lon="5.4425">
        <ele>1059.213745</ele>
        <time>2020-08-18T07:36:34Z</time>
      </trkpt>
      <trkpt lat="44.93176" lon="5.44251">
        <ele>1059.252441</ele>
        <time>2020-08-18T07:36:43Z</time>
      </trkpt>
      <trkpt lat="44.93215" lon="5.4427">
        <ele>1067.210938</ele>
        <time>2020-08-18T07:36:57Z</time>
      </trkpt>
      <trkpt lat="44.93237" lon="5.44272">
        <ele>1067.679443</ele>
        <time>2020-08-18T07:37:05Z</time>
      </trkpt>
      <trkpt lat="44.93288" lon="5.44297">
        <ele>1078.451782</ele>
        <time>2020-08-18T07:37:25Z</time>
      </trkpt>
      <trkpt lat="44.93332" lon="5.4431">
        <ele>1083.44104</ele>
        <time>2020-08-18T07:37:41Z</time>
      </trkpt>
      <trkpt lat="44.93354" lon="5.44314">
        <ele>1084.253906</ele>
        <time>2020-08-18T07:37:50Z</time>
      </trkpt>
      <trkpt lat="44.93407" lon="5.44331">
        <ele>1089.490479</ele>
        <time>2020-08-18T07:38:10Z</time>
      </trkpt>
      <trkpt lat="44.93448" lon="5.4435">
        <ele>1093.665039</ele>
        <time>2020-08-18T07:38:26Z</time>
      </trkpt>
      <trkpt lat="44.93489" lon="5.44363">
        <ele>1093.055054</ele>
        <time>2020-08-18T07:38:42Z</time>
      </trkpt>
      <trkpt lat="44.93547" lon="5.44399">
        <ele>1097.030151</ele>
        <time>2020-08-18T07:39:05Z</time>
      </trkpt>
      <trkpt lat="44.93567" lon="5.44407">
        <ele>1093.533325</ele>
        <time>2020-08-18T07:39:14Z</time>
      </trkpt>
      <trkpt lat="44.93605" lon="5.44435">
        <ele>1091.766968</ele>
        <time>2020-08-18T07:39:28Z</time>
      </trkpt>
      <trkpt lat="44.93617" lon="5.44459">
        <ele>1096.839966</ele>
        <time>2020-08-18T07:39:36Z</time>
      </trkpt>
      <trkpt lat="44.93633" lon="5.44483">
        <ele>1100.827515</ele>
        <time>2020-08-18T07:39:44Z</time>
      </trkpt>
      <trkpt lat="44.93622" lon="5.44484">
        <ele>1104.920288</ele>
        <time>2020-08-18T07:39:49Z</time>
      </trkpt>
      <trkpt lat="44.93599" lon="5.44458">
        <ele>1103.557861</ele>
        <time>2020-08-18T07:40:01Z</time>
      </trkpt>
      <trkpt lat="44.9355" lon="5.44452">
        <ele>1120.858887</ele>
        <time>2020-08-18T07:40:21Z</time>
      </trkpt>
      <trkpt lat="44.93531" lon="5.44443">
        <ele>1122.963867</ele>
        <time>2020-08-18T07:40:28Z</time>
      </trkpt>
      <trkpt lat="44.93512" lon="5.4443">
        <ele>1121.548096</ele>
        <time>2020-08-18T07:40:36Z</time>
      </trkpt>
      <trkpt lat="44.9348" lon="5.44427">
        <ele>1124.805908</ele>
        <time>2020-08-18T07:40:48Z</time>
      </trkpt>
      <trkpt lat="44.93459" lon="5.44431">
        <ele>1129.308594</ele>
        <time>2020-08-18T07:40:56Z</time>
      </trkpt>
      <trkpt lat="44.93437" lon="5.44431">
        <ele>1132.431152</ele>
        <time>2020-08-18T07:41:04Z</time>
      </trkpt>
      <trkpt lat="44.93403" lon="5.44422">
        <ele>1132.892456</ele>
        <time>2020-08-18T07:41:16Z</time>
      </trkpt>
      <trkpt lat="44.93382" lon="5.44422">
        <ele>1134.66626</ele>
        <time>2020-08-18T07:41:24Z</time>
      </trkpt>
      <trkpt lat="44.93327" lon="5.44436">
        <ele>1143.039307</ele>
        <time>2020-08-18T07:41:44Z</time>
      </trkpt>
      <trkpt lat="44.93267" lon="5.4446">
        <ele>1154.301758</ele>
        <time>2020-08-18T07:42:08Z</time>
      </trkpt>
      <trkpt lat="44.93239" lon="5.44466">
        <ele>1156.773071</ele>
        <time>2020-08-18T07:42:18Z</time>
      </trkpt>
      <trkpt lat="44.93218" lon="5.44476">
        <ele>1160.581543</ele>
        <time>2020-08-18T07:42:27Z</time>
      </trkpt>
      <trkpt lat="44.93147" lon="5.44481">
        <ele>1163.230469</ele>
        <time>2020-08-18T07:42:52Z</time>
      </trkpt>
      <trkpt lat="44.93114" lon="5.44473">
        <ele>1161.94873</ele>
        <time>2020-08-18T07:43:04Z</time>
      </trkpt>
      <trkpt lat="44.93095" lon="5.44472">
        <ele>1163.374023</ele>
        <time>2020-08-18T07:43:12Z</time>
      </trkpt>
      <trkpt lat="44.93055" lon="5.44477">
        <ele>1168.627563</ele>
        <time>2020-08-18T07:43:25Z</time>
      </trkpt>
      <trkpt lat="44.93005" lon="5.44492">
        <ele>1175.300781</ele>
        <time>2020-08-18T07:43:43Z</time>
      </trkpt>
      <trkpt lat="44.92984" lon="5.44502">
        <ele>1179.920044</ele>
        <time>2020-08-18T07:43:51Z</time>
      </trkpt>
      <trkpt lat="44.92973" lon="5.44501">
        <ele>1179.525024</ele>
        <time>2020-08-18T07:43:55Z</time>
      </trkpt>
      <trkpt lat="44.92954" lon="5.44485">
        <ele>1171.786011</ele>
        <time>2020-08-18T07:44:03Z</time>
      </trkpt>
      <trkpt lat="44.92933" lon="5.44476">
        <ele>1171.302856</ele>
        <time>2020-08-18T07:44:11Z</time>
      </trkpt>
      <trkpt lat="44.92911" lon="5.44476">
        <ele>1174.945313</ele>
        <time>2020-08-18T07:44:19Z</time>
      </trkpt>
      <trkpt lat="44.92792" lon="5.4449">
        <ele>1188.387695</ele>
        <time>2020-08-18T07:45:03Z</time>
      </trkpt>
      <trkpt lat="44.92768" lon="5.4452">
        <ele>1203.458252</ele>
        <time>2020-08-18T07:45:15Z</time>
      </trkpt>
      <trkpt lat="44.92722" lon="5.44565">
        <ele>1208.527222</ele>
        <time>2020-08-18T07:45:35Z</time>
      </trkpt>
      <trkpt lat="44.92703" lon="5.44579">
        <ele>1206.824463</ele>
        <time>2020-08-18T07:45:43Z</time>
      </trkpt>
      <trkpt lat="44.92673" lon="5.44635">
        <ele>1221.50061</ele>
        <time>2020-08-18T07:48:00Z</time>
      </trkpt>
      <trkpt lat="44.92604" lon="5.44694">
        <ele>1225.217651</ele>
        <time>2020-08-18T07:48:32Z</time>
      </trkpt>
      <trkpt lat="44.92556" lon="5.44722">
        <ele>1227.043945</ele>
        <time>2020-08-18T07:48:52Z</time>
      </trkpt>
      <trkpt lat="44.9255" lon="5.44732">
        <ele>1230.183472</ele>
        <time>2020-08-18T07:48:56Z</time>
      </trkpt>
      <trkpt lat="44.92521" lon="5.44821">
        <ele>1265.51416</ele>
        <time>2020-08-18T07:49:24Z</time>
      </trkpt>
      <trkpt lat="44.92507" lon="5.44839">
        <ele>1267.421021</ele>
        <time>2020-08-18T07:49:32Z</time>
      </trkpt>
      <trkpt lat="44.92496" lon="5.44844">
        <ele>1263.81189</ele>
        <time>2020-08-18T07:49:37Z</time>
      </trkpt>
      <trkpt lat="44.92444" lon="5.44844">
        <ele>1255.99231</ele>
        <time>2020-08-18T07:49:57Z</time>
      </trkpt>
      <trkpt lat="44.92434" lon="5.44837">
        <ele>1256.786377</ele>
        <time>2020-08-18T07:50:01Z</time>
      </trkpt>
      <trkpt lat="44.92427" lon="5.44825">
        <ele>1254.660645</ele>
        <time>2020-08-18T07:50:05Z</time>
      </trkpt>
      <trkpt lat="44.9241" lon="5.44789">
        <ele>1246.465332</ele>
        <time>2020-08-18T07:50:18Z</time>
      </trkpt>
      <trkpt lat="44.92402" lon="5.44782">
        <ele>1245.267944</ele>
        <time>2020-08-18T07:50:22Z</time>
      </trkpt>
      <trkpt lat="44.92354" lon="5.44812">
        <ele>1267.036255</ele>
        <time>2020-08-18T07:50:43Z</time>
      </trkpt>
      <trkpt lat="44.92344" lon="5.44811">
        <ele>1268.492554</ele>
        <time>2020-08-18T07:50:47Z</time>
      </trkpt>
      <trkpt lat="44.92337" lon="5.44803">
        <ele>1267.92041</ele>
        <time>2020-08-18T07:50:51Z</time>
      </trkpt>
      <trkpt lat="44.92335" lon="5.44761">
        <ele>1259.834473</ele>
        <time>2020-08-18T07:51:03Z</time>
      </trkpt>
      <trkpt lat="44.92329" lon="5.44734">
        <ele>1258.387085</ele>
        <time>2020-08-18T07:51:11Z</time>
      </trkpt>
      <trkpt lat="44.92315" lon="5.44716">
        <ele>1263.937866</ele>
        <time>2020-08-18T07:51:19Z</time>
      </trkpt>
      <trkpt lat="44.92304" lon="5.44717">
        <ele>1270.702393</ele>
        <time>2020-08-18T07:51:25Z</time>
      </trkpt>
      <trkpt lat="44.92303" lon="5.44729">
        <ele>1273.151855</ele>
        <time>2020-08-18T07:51:31Z</time>
      </trkpt>
      <trkpt lat="44.92316" lon="5.44748">
        <ele>1267.774536</ele>
        <time>2020-08-18T07:51:39Z</time>
      </trkpt>
      <trkpt lat="44.92318" lon="5.44774">
        <ele>1269.675293</ele>
        <time>2020-08-18T07:51:47Z</time>
      </trkpt>
      <trkpt lat="44.92312" lon="5.44815">
        <ele>1277.469482</ele>
        <time>2020-08-18T07:51:59Z</time>
      </trkpt>
      <trkpt lat="44.92314" lon="5.44842">
        <ele>1280.652588</ele>
        <time>2020-08-18T07:52:07Z</time>
      </trkpt>
      <trkpt lat="44.92319" lon="5.44854">
        <ele>1281.496094</ele>
        <time>2020-08-18T07:52:11Z</time>
      </trkpt>
      <trkpt lat="44.92322" lon="5.44882">
        <ele>1286.841675</ele>
        <time>2020-08-18T07:52:19Z</time>
      </trkpt>
      <trkpt lat="44.9232" lon="5.44912">
        <ele>1290.586304</ele>
        <time>2020-08-18T07:52:27Z</time>
      </trkpt>
      <trkpt lat="44.92323" lon="5.44943">
        <ele>1294.925781</ele>
        <time>2020-08-18T07:52:35Z</time>
      </trkpt>
      <trkpt lat="44.92323" lon="5.4496">
        <ele>1296.182007</ele>
        <time>2020-08-18T07:52:40Z</time>
      </trkpt>
      <trkpt lat="44.92301" lon="5.45026">
        <ele>1299.575439</ele>
        <time>2020-08-18T07:52:56Z</time>
      </trkpt>
      <trkpt lat="44.92277" lon="5.45087">
        <ele>1298.656738</ele>
        <time>2020-08-18T07:53:12Z</time>
      </trkpt>
      <trkpt lat="44.92271" lon="5.45147">
        <ele>1300.567749</ele>
        <time>2020-08-18T07:53:24Z</time>
      </trkpt>
      <trkpt lat="44.9226" lon="5.45171">
        <ele>1299.557739</ele>
        <time>2020-08-18T07:53:30Z</time>
      </trkpt>
      <trkpt lat="44.92252" lon="5.45216">
        <ele>1300.088989</ele>
        <time>2020-08-18T07:53:39Z</time>
      </trkpt>
      <trkpt lat="44.92242" lon="5.45246">
        <ele>1298.895264</ele>
        <time>2020-08-18T07:53:45Z</time>
      </trkpt>
      <trkpt lat="44.92232" lon="5.4529">
        <ele>1296.376221</ele>
        <time>2020-08-18T07:53:54Z</time>
      </trkpt>
      <trkpt lat="44.92235" lon="5.45363">
        <ele>1300.34082</ele>
        <time>2020-08-18T07:54:09Z</time>
      </trkpt>
      <trkpt lat="44.92238" lon="5.45377">
        <ele>1301.669556</ele>
        <time>2020-08-18T07:54:12Z</time>
      </trkpt>
      <trkpt lat="44.92253" lon="5.454">
        <ele>1304.475586</ele>
        <time>2020-08-18T07:54:18Z</time>
      </trkpt>
      <trkpt lat="44.92257" lon="5.45414">
        <ele>1304.800415</ele>
        <time>2020-08-18T07:54:21Z</time>
      </trkpt>
      <trkpt lat="44.9226" lon="5.45526">
        <ele>1312.272339</ele>
        <time>2020-08-18T07:54:46Z</time>
      </trkpt>
      <trkpt lat="44.92259" lon="5.45543">
        <ele>1312.957153</ele>
        <time>2020-08-18T07:54:50Z</time>
      </trkpt>
      <trkpt lat="44.92255" lon="5.45557">
        <ele>1312.14978</ele>
        <time>2020-08-18T07:54:54Z</time>
      </trkpt>
      <trkpt lat="44.92247" lon="5.45569">
        <ele>1313.040161</ele>
        <time>2020-08-18T07:54:58Z</time>
      </trkpt>
      <trkpt lat="44.92235" lon="5.45572">
        <ele>1315.033813</ele>
        <time>2020-08-18T07:55:02Z</time>
      </trkpt>
      <trkpt lat="44.92226" lon="5.45563">
        <ele>1315.400269</ele>
        <time>2020-08-18T07:55:06Z</time>
      </trkpt>
      <trkpt lat="44.9221" lon="5.45518">
        <ele>1311.4375</ele>
        <time>2020-08-18T07:55:18Z</time>
      </trkpt>
      <trkpt lat="44.92201" lon="5.45506">
        <ele>1312.324463</ele>
      </trkpt>
      <trkpt lat="44.92198" lon="5.4551">
        <ele>1313.685669</ele>
      </trkpt>
      <trkpt lat="44.92197" lon="5.45517">
        <ele>1315.217773</ele>
        <time>2020-08-18T07:56:37Z</time>
      </trkpt>
      <trkpt lat="44.92204" lon="5.45543">
        <ele>1316.74707</ele>
        <time>2020-08-18T07:56:46Z</time>
      </trkpt>
      <trkpt lat="44.92207" lon="5.45598">
        <ele>1325.398193</ele>
        <time>2020-08-18T07:57:07Z</time>
      </trkpt>
      <trkpt lat="44.92213" lon="5.45609">
        <ele>1325.78772</ele>
        <time>2020-08-18T07:57:15Z</time>
      </trkpt>
      <trkpt lat="44.92236" lon="5.45632">
        <ele>1321.600586</ele>
        <time>2020-08-18T07:59:30Z</time>
      </trkpt>
      <trkpt lat="44.92236" lon="5.45646">
        <ele>1325.921021</ele>
        <time>2020-08-18T08:00:09Z</time>
      </trkpt>
      <trkpt lat="44.92239" lon="5.45658">
        <ele>1328.455688</ele>
        <time>2020-08-18T08:00:24Z</time>
      </trkpt>
      <trkpt lat="44.92248" lon="5.45662">
        <ele>1325.905762</ele>
        <time>2020-08-18T08:00:36Z</time>
      </trkpt>
      <trkpt lat="44.92259" lon="5.45684">
        <ele>1331.927002</ele>
        <time>2020-08-18T08:01:06Z</time>
      </trkpt>
      <trkpt lat="44.92272" lon="5.45702">
        <ele>1336.771729</ele>
        <time>2020-08-18T08:01:40Z</time>
      </trkpt>
      <trkpt lat="44.92277" lon="5.45714">
        <ele>1339.263306</ele>
        <time>2020-08-18T08:03:18Z</time>
      </trkpt>
      <trkpt lat="44.92301" lon="5.4574">
        <ele>1341.474976</ele>
        <time>2020-08-18T08:03:34Z</time>
      </trkpt>
      <trkpt lat="44.92337" lon="5.45765">
        <ele>1341.763428</ele>
        <time>2020-08-18T08:04:13Z</time>
      </trkpt>
      <trkpt lat="44.92349" lon="5.45784">
        <ele>1345.094849</ele>
        <time>2020-08-18T08:04:25Z</time>
      </trkpt>
      <trkpt lat="44.92358" lon="5.45789">
        <ele>1347.800903</ele>
        <time>2020-08-18T08:04:33Z</time>
      </trkpt>
      <trkpt lat="44.92394" lon="5.45772">
        <ele>1361.107422</ele>
        <time>2020-08-18T08:04:54Z</time>
      </trkpt>
      <trkpt lat="44.92424" lon="5.45767">
        <ele>1362.858643</ele>
        <time>2020-08-18T08:05:10Z</time>
      </trkpt>
      <trkpt lat="44.92443" lon="5.45754">
        <ele>1362.647705</ele>
        <time>2020-08-18T08:05:20Z</time>
      </trkpt>
      <trkpt lat="44.92473" lon="5.45717">
        <ele>1366.550781</ele>
        <time>2020-08-18T08:05:41Z</time>
      </trkpt>
      <trkpt lat="44.925" lon="5.45699">
        <ele>1362.525024</ele>
        <time>2020-08-18T08:05:52Z</time>
      </trkpt>
      <trkpt lat="44.92509" lon="5.45701">
        <ele>1359.39502</ele>
        <time>2020-08-18T08:05:55Z</time>
      </trkpt>
      <trkpt lat="44.92518" lon="5.45707">
        <ele>1355.454956</ele>
        <time>2020-08-18T08:05:59Z</time>
      </trkpt>
      <trkpt lat="44.92529" lon="5.4573">
        <ele>1357.096313</ele>
        <time>2020-08-18T08:06:07Z</time>
      </trkpt>
      <trkpt lat="44.92547" lon="5.45747">
        <ele>1361.443237</ele>
        <time>2020-08-18T08:06:27Z</time>
      </trkpt>
      <trkpt lat="44.92553" lon="5.45759">
        <ele>1363.299561</ele>
        <time>2020-08-18T08:06:32Z</time>
      </trkpt>
      <trkpt lat="44.92561" lon="5.45801">
        <ele>1365.567505</ele>
        <time>2020-08-18T08:06:44Z</time>
      </trkpt>
      <trkpt lat="44.9258" lon="5.45835">
        <ele>1367.652344</ele>
        <time>2020-08-18T08:06:56Z</time>
      </trkpt>
      <trkpt lat="44.92583" lon="5.45848">
        <ele>1368.209595</ele>
        <time>2020-08-18T08:07:00Z</time>
      </trkpt>
      <trkpt lat="44.92584" lon="5.45864">
        <ele>1368.451416</ele>
        <time>2020-08-18T08:07:04Z</time>
      </trkpt>
      <trkpt lat="44.92577" lon="5.45891">
        <ele>1367.977783</ele>
        <time>2020-08-18T08:07:12Z</time>
      </trkpt>
      <trkpt lat="44.92581" lon="5.45903">
        <ele>1368.546997</ele>
        <time>2020-08-18T08:07:16Z</time>
      </trkpt>
      <trkpt lat="44.92609" lon="5.45919">
        <ele>1373.151001</ele>
        <time>2020-08-18T08:07:30Z</time>
      </trkpt>
      <trkpt lat="44.92617" lon="5.45928">
        <ele>1375.724121</ele>
        <time>2020-08-18T08:07:34Z</time>
      </trkpt>
      <trkpt lat="44.92622" lon="5.45941">
        <ele>1377.85437</ele>
        <time>2020-08-18T08:07:38Z</time>
      </trkpt>
      <trkpt lat="44.92624" lon="5.45955">
        <ele>1379.250366</ele>
        <time>2020-08-18T08:07:43Z</time>
      </trkpt>
      <trkpt lat="44.92622" lon="5.46028">
        <ele>1386.106689</ele>
        <time>2020-08-18T08:08:03Z</time>
      </trkpt>
      <trkpt lat="44.92616" lon="5.46071">
        <ele>1389.003906</ele>
        <time>2020-08-18T08:08:13Z</time>
      </trkpt>
      <trkpt lat="44.92618" lon="5.46111">
        <ele>1392.420044</ele>
        <time>2020-08-18T08:08:22Z</time>
      </trkpt>
      <trkpt lat="44.92626" lon="5.46138">
        <ele>1394.656494</ele>
        <time>2020-08-18T08:08:28Z</time>
      </trkpt>
      <trkpt lat="44.92625" lon="5.46155">
        <ele>1395.119385</ele>
        <time>2020-08-18T08:08:31Z</time>
      </trkpt>
      <trkpt lat="44.92614" lon="5.46198">
        <ele>1396.463501</ele>
        <time>2020-08-18T08:08:41Z</time>
      </trkpt>
      <trkpt lat="44.92603" lon="5.46224">
        <ele>1397.150879</ele>
        <time>2020-08-18T08:08:47Z</time>
      </trkpt>
      <trkpt lat="44.92596" lon="5.46233">
        <ele>1397.117554</ele>
        <time>2020-08-18T08:08:49Z</time>
      </trkpt>
      <trkpt lat="44.92587" lon="5.46233">
        <ele>1396.805176</ele>
        <time>2020-08-18T08:08:51Z</time>
      </trkpt>
      <trkpt lat="44.92555" lon="5.46214">
        <ele>1394.824341</ele>
        <time>2020-08-18T08:09:00Z</time>
      </trkpt>
      <trkpt lat="44.92547" lon="5.46198">
        <ele>1392.931152</ele>
        <time>2020-08-18T08:09:03Z</time>
      </trkpt>
      <trkpt lat="44.9254" lon="5.46173">
        <ele>1389.731689</ele>
        <time>2020-08-18T08:09:07Z</time>
      </trkpt>
      <trkpt lat="44.92525" lon="5.46151">
        <ele>1386.132813</ele>
        <time>2020-08-18T08:09:12Z</time>
      </trkpt>
      <trkpt lat="44.92512" lon="5.46122">
        <ele>1381.30896</ele>
        <time>2020-08-18T08:09:18Z</time>
      </trkpt>
      <trkpt lat="44.925" lon="5.46115">
        <ele>1379.97644</ele>
        <time>2020-08-18T08:09:21Z</time>
      </trkpt>
      <trkpt lat="44.92488" lon="5.46112">
        <ele>1379.687012</ele>
        <time>2020-08-18T08:09:24Z</time>
      </trkpt>
      <trkpt lat="44.92465" lon="5.46099">
        <ele>1377.655273</ele>
        <time>2020-08-18T08:09:30Z</time>
      </trkpt>
      <trkpt lat="44.92453" lon="5.46096">
        <ele>1375.911499</ele>
        <time>2020-08-18T08:09:33Z</time>
      </trkpt>
      <trkpt lat="44.92429" lon="5.46102">
        <ele>1374.770874</ele>
        <time>2020-08-18T08:09:38Z</time>
      </trkpt>
      <trkpt lat="44.92403" lon="5.46114">
        <ele>1376.832397</ele>
        <time>2020-08-18T08:09:42Z</time>
      </trkpt>
      <trkpt lat="44.9239" lon="5.46114">
        <ele>1376.410034</ele>
        <time>2020-08-18T08:09:44Z</time>
      </trkpt>
      <trkpt lat="44.92368" lon="5.46103">
        <ele>1372.589844</ele>
        <time>2020-08-18T08:09:48Z</time>
      </trkpt>
      <trkpt lat="44.92344" lon="5.4611">
        <ele>1376.79187</ele>
        <time>2020-08-18T08:09:52Z</time>
      </trkpt>
      <trkpt lat="44.92332" lon="5.46111">
        <ele>1377.697632</ele>
        <time>2020-08-18T08:09:54Z</time>
      </trkpt>
      <trkpt lat="44.92305" lon="5.46084">
        <ele>1369.145996</ele>
        <time>2020-08-18T08:10:01Z</time>
      </trkpt>
      <trkpt lat="44.92282" lon="5.46078">
        <ele>1368.186768</ele>
        <time>2020-08-18T08:10:05Z</time>
      </trkpt>
      <trkpt lat="44.9227" lon="5.46082">
        <ele>1369.248047</ele>
        <time>2020-08-18T08:10:07Z</time>
      </trkpt>
      <trkpt lat="44.92231" lon="5.46109">
        <ele>1373.996094</ele>
        <time>2020-08-18T08:10:16Z</time>
      </trkpt>
      <trkpt lat="44.92173" lon="5.4614">
        <ele>1375.986694</ele>
        <time>2020-08-18T08:10:29Z</time>
      </trkpt>
      <trkpt lat="44.92163" lon="5.46139">
        <ele>1375.179321</ele>
        <time>2020-08-18T08:10:31Z</time>
      </trkpt>
      <trkpt lat="44.92155" lon="5.46131">
        <ele>1374.384399</ele>
        <time>2020-08-18T08:10:33Z</time>
      </trkpt>
      <trkpt lat="44.92143" lon="5.46134">
        <ele>1374.151367</ele>
        <time>2020-08-18T08:10:36Z</time>
      </trkpt>
      <trkpt lat="44.92137" lon="5.46144">
        <ele>1374.276489</ele>
        <time>2020-08-18T08:10:38Z</time>
      </trkpt>
      <trkpt lat="44.9213" lon="5.46168">
        <ele>1374.057373</ele>
        <time>2020-08-18T08:10:42Z</time>
      </trkpt>
      <trkpt lat="44.9212" lon="5.46191">
        <ele>1373.469727</ele>
        <time>2020-08-18T08:10:46Z</time>
      </trkpt>
      <trkpt lat="44.92107" lon="5.46232">
        <ele>1373.835205</ele>
        <time>2020-08-18T08:10:52Z</time>
      </trkpt>
      <trkpt lat="44.92095" lon="5.46259">
        <ele>1373.315552</ele>
        <time>2020-08-18T08:10:56Z</time>
      </trkpt>
      <trkpt lat="44.92061" lon="5.46316">
        <ele>1374.070679</ele>
        <time>2020-08-18T08:11:06Z</time>
      </trkpt>
      <trkpt lat="44.92052" lon="5.46322">
        <ele>1373.803589</ele>
        <time>2020-08-18T08:11:08Z</time>
      </trkpt>
      <trkpt lat="44.92041" lon="5.46323">
        <ele>1373.785522</ele>
        <time>2020-08-18T08:11:10Z</time>
      </trkpt>
      <trkpt lat="44.92013" lon="5.46295">
        <ele>1373.506714</ele>
        <time>2020-08-18T08:11:18Z</time>
      </trkpt>
      <trkpt lat="44.92004" lon="5.46295">
        <ele>1373.595947</ele>
        <time>2020-08-18T08:11:20Z</time>
      </trkpt>
      <trkpt lat="44.91952" lon="5.46326">
        <ele>1374.809082</ele>
        <time>2020-08-18T08:11:32Z</time>
      </trkpt>
      <trkpt lat="44.91934" lon="5.46327">
        <ele>1373.960938</ele>
        <time>2020-08-18T08:11:36Z</time>
      </trkpt>
      <trkpt lat="44.91925" lon="5.46332">
        <ele>1374.019409</ele>
        <time>2020-08-18T08:11:38Z</time>
      </trkpt>
      <trkpt lat="44.91874" lon="5.46375">
        <ele>1373.301025</ele>
        <time>2020-08-18T08:11:48Z</time>
      </trkpt>
      <trkpt lat="44.91825" lon="5.46405">
        <ele>1369.796753</ele>
        <time>2020-08-18T08:11:59Z</time>
      </trkpt>
      <trkpt lat="44.9181" lon="5.46429">
        <ele>1370.010132</ele>
        <time>2020-08-18T08:12:03Z</time>
      </trkpt>
      <trkpt lat="44.91799" lon="5.46454">
        <ele>1372.145508</ele>
        <time>2020-08-18T08:12:07Z</time>
      </trkpt>
      <trkpt lat="44.9178" lon="5.46485">
        <ele>1374.663208</ele>
        <time>2020-08-18T08:12:13Z</time>
      </trkpt>
      <trkpt lat="44.91749" lon="5.46501">
        <ele>1375.620117</ele>
        <time>2020-08-18T08:12:20Z</time>
      </trkpt>
      <trkpt lat="44.91738" lon="5.465">
        <ele>1375.355713</ele>
        <time>2020-08-18T08:12:22Z</time>
      </trkpt>
      <trkpt lat="44.91728" lon="5.46496">
        <ele>1374.625977</ele>
        <time>2020-08-18T08:12:24Z</time>
      </trkpt>
      <trkpt lat="44.91722" lon="5.46485">
        <ele>1373.287476</ele>
        <time>2020-08-18T08:12:27Z</time>
      </trkpt>
      <trkpt lat="44.91724" lon="5.46472">
        <ele>1371.534058</ele>
        <time>2020-08-18T08:12:30Z</time>
      </trkpt>
      <trkpt lat="44.91729" lon="5.46461">
        <ele>1369.840332</ele>
        <time>2020-08-18T08:12:34Z</time>
      </trkpt>
      <trkpt lat="44.9173" lon="5.46426">
        <ele>1364.550659</ele>
        <time>2020-08-18T08:12:40Z</time>
      </trkpt>
      <trkpt lat="44.91727" lon="5.46393">
        <ele>1363.796387</ele>
        <time>2020-08-18T08:12:46Z</time>
      </trkpt>
      <trkpt lat="44.91722" lon="5.46381">
        <ele>1364.189941</ele>
        <time>2020-08-18T08:12:49Z</time>
      </trkpt>
      <trkpt lat="44.9171" lon="5.46374">
        <ele>1365.44812</ele>
        <time>2020-08-18T08:12:52Z</time>
      </trkpt>
      <trkpt lat="44.91699" lon="5.46377">
        <ele>1366.91748</ele>
        <time>2020-08-18T08:12:55Z</time>
      </trkpt>
      <trkpt lat="44.91678" lon="5.464">
        <ele>1369.269531</ele>
        <time>2020-08-18T08:13:01Z</time>
      </trkpt>
      <trkpt lat="44.91658" lon="5.46434">
        <ele>1370.695435</ele>
        <time>2020-08-18T08:13:07Z</time>
      </trkpt>
      <trkpt lat="44.91631" lon="5.46465">
        <ele>1370.360596</ele>
        <time>2020-08-18T08:13:15Z</time>
      </trkpt>
      <trkpt lat="44.91612" lon="5.46479">
        <ele>1368.776489</ele>
        <time>2020-08-18T08:13:20Z</time>
      </trkpt>
      <trkpt lat="44.91563" lon="5.46497">
        <ele>1364.869873</ele>
        <time>2020-08-18T08:13:30Z</time>
      </trkpt>
      <trkpt lat="44.91544" lon="5.46492">
        <ele>1364.665527</ele>
        <time>2020-08-18T08:13:34Z</time>
      </trkpt>
      <trkpt lat="44.91529" lon="5.46474">
        <ele>1366.768799</ele>
        <time>2020-08-18T08:13:38Z</time>
      </trkpt>
      <trkpt lat="44.9152" lon="5.46468">
        <ele>1367.714966</ele>
        <time>2020-08-18T08:13:40Z</time>
      </trkpt>
      <trkpt lat="44.91511" lon="5.46468">
        <ele>1367.971191</ele>
        <time>2020-08-18T08:13:42Z</time>
      </trkpt>
      <trkpt lat="44.91493" lon="5.46477">
        <ele>1368.124634</ele>
        <time>2020-08-18T08:13:46Z</time>
      </trkpt>
      <trkpt lat="44.91478" lon="5.465">
        <ele>1367.036743</ele>
        <time>2020-08-18T08:13:51Z</time>
      </trkpt>
      <trkpt lat="44.91466" lon="5.46523">
        <ele>1365.705078</ele>
        <time>2020-08-18T08:13:55Z</time>
      </trkpt>
      <trkpt lat="44.91459" lon="5.46547">
        <ele>1364.205566</ele>
        <time>2020-08-18T08:13:59Z</time>
      </trkpt>
      <trkpt lat="44.91449" lon="5.46569">
        <ele>1363.707031</ele>
        <time>2020-08-18T08:14:03Z</time>
      </trkpt>
      <trkpt lat="44.91432" lon="5.46589">
        <ele>1363.85376</ele>
        <time>2020-08-18T08:14:08Z</time>
      </trkpt>
      <trkpt lat="44.91415" lon="5.46598">
        <ele>1364.676758</ele>
        <time>2020-08-18T08:14:12Z</time>
      </trkpt>
      <trkpt lat="44.91406" lon="5.46597">
        <ele>1365.378662</ele>
        <time>2020-08-18T08:14:14Z</time>
      </trkpt>
      <trkpt lat="44.91359" lon="5.46578">
        <ele>1370.549316</ele>
        <time>2020-08-18T08:14:24Z</time>
      </trkpt>
      <trkpt lat="44.9135" lon="5.46578">
        <ele>1370.633423</ele>
        <time>2020-08-18T08:14:26Z</time>
      </trkpt>
      <trkpt lat="44.91324" lon="5.46591">
        <ele>1369.080078</ele>
        <time>2020-08-18T08:14:32Z</time>
      </trkpt>
      <trkpt lat="44.91311" lon="5.4659">
        <ele>1369.41748</ele>
        <time>2020-08-18T08:14:35Z</time>
      </trkpt>
      <trkpt lat="44.91298" lon="5.46583">
        <ele>1370.477539</ele>
        <time>2020-08-18T08:14:38Z</time>
      </trkpt>
      <trkpt lat="44.91265" lon="5.46558">
        <ele>1375.227539</ele>
        <time>2020-08-18T08:14:46Z</time>
      </trkpt>
      <trkpt lat="44.91253" lon="5.46555">
        <ele>1376.36377</ele>
        <time>2020-08-18T08:14:49Z</time>
      </trkpt>
      <trkpt lat="44.91245" lon="5.46556">
        <ele>1376.633789</ele>
        <time>2020-08-18T08:15:35Z</time>
      </trkpt>
      <trkpt lat="44.91237" lon="5.46564">
        <ele>1376.026245</ele>
        <time>2020-08-18T08:16:00Z</time>
      </trkpt>
      <trkpt lat="44.91226" lon="5.46568">
        <ele>1376.347534</ele>
        <time>2020-08-18T08:16:03Z</time>
      </trkpt>
      <trkpt lat="44.91219" lon="5.46577">
        <ele>1375.911255</ele>
        <time>2020-08-18T08:16:06Z</time>
      </trkpt>
      <trkpt lat="44.91213" lon="5.46589">
        <ele>1374.766113</ele>
        <time>2020-08-18T08:16:09Z</time>
      </trkpt>
      <trkpt lat="44.91205" lon="5.46618">
        <ele>1371.682739</ele>
        <time>2020-08-18T08:16:15Z</time>
      </trkpt>
      <trkpt lat="44.91197" lon="5.46629">
        <ele>1370.877808</ele>
        <time>2020-08-18T08:16:18Z</time>
      </trkpt>
      <trkpt lat="44.91165" lon="5.4665">
        <ele>1370.586304</ele>
        <time>2020-08-18T08:16:27Z</time>
      </trkpt>
      <trkpt lat="44.91128" lon="5.46648">
        <ele>1373.390625</ele>
        <time>2020-08-18T08:16:36Z</time>
      </trkpt>
      <trkpt lat="44.91069" lon="5.4661">
        <ele>1378.235229</ele>
        <time>2020-08-18T08:16:52Z</time>
      </trkpt>
      <trkpt lat="44.91063" lon="5.46599">
        <ele>1378.970337</ele>
        <time>2020-08-18T08:16:54Z</time>
      </trkpt>
      <trkpt lat="44.91061" lon="5.46581">
        <ele>1380.170654</ele>
        <time>2020-08-18T08:16:57Z</time>
      </trkpt>
      <trkpt lat="44.91054" lon="5.46569">
        <ele>1381.03125</ele>
        <time>2020-08-18T08:17:00Z</time>
      </trkpt>
      <trkpt lat="44.91045" lon="5.46566">
        <ele>1381.462524</ele>
        <time>2020-08-18T08:17:02Z</time>
      </trkpt>
      <trkpt lat="44.90998" lon="5.46576">
        <ele>1381.112549</ele>
        <time>2020-08-18T08:17:12Z</time>
      </trkpt>
      <trkpt lat="44.90987" lon="5.46586">
        <ele>1382.241211</ele>
        <time>2020-08-18T08:17:15Z</time>
      </trkpt>
      <trkpt lat="44.9098" lon="5.46595">
        <ele>1382.76123</ele>
        <time>2020-08-18T08:17:17Z</time>
      </trkpt>
      <trkpt lat="44.90967" lon="5.46599">
        <ele>1384.123779</ele>
        <time>2020-08-18T08:17:20Z</time>
      </trkpt>
      <trkpt lat="44.90906" lon="5.46595">
        <ele>1387.564941</ele>
        <time>2020-08-18T08:17:33Z</time>
      </trkpt>
      <trkpt lat="44.90877" lon="5.46613">
        <ele>1389.153809</ele>
        <time>2020-08-18T08:17:40Z</time>
      </trkpt>
      <trkpt lat="44.90852" lon="5.46618">
        <ele>1389.277222</ele>
        <time>2020-08-18T08:17:46Z</time>
      </trkpt>
      <trkpt lat="44.90821" lon="5.46642">
        <ele>1391.377197</ele>
        <time>2020-08-18T08:17:55Z</time>
      </trkpt>
      <trkpt lat="44.90777" lon="5.4666">
        <ele>1395.423706</ele>
        <time>2020-08-18T08:18:07Z</time>
      </trkpt>
      <trkpt lat="44.90746" lon="5.46653">
        <ele>1400.610474</ele>
        <time>2020-08-18T08:18:16Z</time>
      </trkpt>
      <trkpt lat="44.90726" lon="5.46643">
        <ele>1402.533691</ele>
        <time>2020-08-18T08:18:22Z</time>
      </trkpt>
      <trkpt lat="44.90702" lon="5.46612">
        <ele>1400.685547</ele>
        <time>2020-08-18T08:18:31Z</time>
      </trkpt>
      <trkpt lat="44.90692" lon="5.46606">
        <ele>1401.148682</ele>
        <time>2020-08-18T08:18:34Z</time>
      </trkpt>
      <trkpt lat="44.90682" lon="5.46604">
        <ele>1402.145264</ele>
        <time>2020-08-18T08:18:37Z</time>
      </trkpt>
      <trkpt lat="44.90654" lon="5.46621">
        <ele>1408.56897</ele>
        <time>2020-08-18T08:18:46Z</time>
      </trkpt>
      <trkpt lat="44.90632" lon="5.4662">
        <ele>1412.075562</ele>
        <time>2020-08-18T08:18:53Z</time>
      </trkpt>
      <trkpt lat="44.90622" lon="5.4661">
        <ele>1411.813477</ele>
        <time>2020-08-18T08:18:56Z</time>
      </trkpt>
      <trkpt lat="44.90601" lon="5.46573">
        <ele>1409.365356</ele>
        <time>2020-08-18T08:19:05Z</time>
      </trkpt>
      <trkpt lat="44.9059" lon="5.46566">
        <ele>1410.064575</ele>
        <time>2020-08-18T08:19:08Z</time>
      </trkpt>
      <trkpt lat="44.90569" lon="5.4656">
        <ele>1412.970093</ele>
        <time>2020-08-18T08:19:14Z</time>
      </trkpt>
      <trkpt lat="44.90526" lon="5.46569">
        <ele>1418.420044</ele>
        <time>2020-08-18T08:19:26Z</time>
      </trkpt>
      <trkpt lat="44.90476" lon="5.4655">
        <ele>1413.575317</ele>
        <time>2020-08-18T08:19:41Z</time>
      </trkpt>
      <trkpt lat="44.90464" lon="5.46554">
        <ele>1414.668823</ele>
        <time>2020-08-18T08:19:45Z</time>
      </trkpt>
      <trkpt lat="44.90447" lon="5.46567">
        <ele>1419.574829</ele>
        <time>2020-08-18T08:19:51Z</time>
      </trkpt>
      <trkpt lat="44.90426" lon="5.46572">
        <ele>1422.118408</ele>
        <time>2020-08-18T08:19:58Z</time>
      </trkpt>
      <trkpt lat="44.90414" lon="5.46571">
        <ele>1423.938354</ele>
        <time>2020-08-18T08:20:02Z</time>
      </trkpt>
      <trkpt lat="44.90395" lon="5.46561">
        <ele>1424.209595</ele>
        <time>2020-08-18T08:20:08Z</time>
      </trkpt>
      <trkpt lat="44.90368" lon="5.4654">
        <ele>1421.210205</ele>
        <time>2020-08-18T08:20:17Z</time>
      </trkpt>
      <trkpt lat="44.90347" lon="5.46538">
        <ele>1424.23877</ele>
        <time>2020-08-18T08:20:23Z</time>
      </trkpt>
      <trkpt lat="44.90296" lon="5.46556">
        <ele>1436.322266</ele>
        <time>2020-08-18T08:20:40Z</time>
      </trkpt>
      <trkpt lat="44.90242" lon="5.46538">
        <ele>1438.252441</ele>
        <time>2020-08-18T08:20:55Z</time>
      </trkpt>
      <trkpt lat="44.9022" lon="5.46538">
        <ele>1439.642456</ele>
        <time>2020-08-18T08:21:02Z</time>
      </trkpt>
      <trkpt lat="44.9021" lon="5.46544">
        <ele>1441.94751</ele>
        <time>2020-08-18T08:21:06Z</time>
      </trkpt>
      <trkpt lat="44.9019" lon="5.46541">
        <ele>1441.891479</ele>
        <time>2020-08-18T08:21:12Z</time>
      </trkpt>
      <trkpt lat="44.90153" lon="5.46566">
        <ele>1451.079712</ele>
        <time>2020-08-18T08:21:24Z</time>
      </trkpt>
      <trkpt lat="44.90092" lon="5.46564">
        <ele>1447.154175</ele>
        <time>2020-08-18T08:21:42Z</time>
      </trkpt>
      <trkpt lat="44.90084" lon="5.46573">
        <ele>1447.974121</ele>
        <time>2020-08-18T08:21:45Z</time>
      </trkpt>
      <trkpt lat="44.90076" lon="5.46613">
        <ele>1453.208252</ele>
        <time>2020-08-18T08:21:54Z</time>
      </trkpt>
      <trkpt lat="44.90059" lon="5.46647">
        <ele>1455.86792</ele>
        <time>2020-08-18T08:22:03Z</time>
      </trkpt>
      <trkpt lat="44.90033" lon="5.46753">
        <ele>1463.733521</ele>
        <time>2020-08-18T08:22:30Z</time>
      </trkpt>
      <trkpt lat="44.90043" lon="5.46756">
        <ele>1463.801147</ele>
        <time>2020-08-18T08:22:39Z</time>
      </trkpt>
      <trkpt lat="44.90049" lon="5.46768">
        <ele>1464.085938</ele>
        <time>2020-08-18T08:22:45Z</time>
      </trkpt>
      <trkpt lat="44.90044" lon="5.46756">
        <ele>1463.811523</ele>
        <time>2020-08-18T08:23:42Z</time>
      </trkpt>
      <trkpt lat="44.90034" lon="5.46762">
        <ele>1464.109009</ele>
        <time>2020-08-18T08:23:47Z</time>
      </trkpt>
      <trkpt lat="44.90022" lon="5.46788">
        <ele>1464.424561</ele>
        <time>2020-08-18T08:23:56Z</time>
      </trkpt>
      <trkpt lat="44.90006" lon="5.46838">
        <ele>1464.677246</ele>
        <time>2020-08-18T08:24:08Z</time>
      </trkpt>
      <trkpt lat="44.89985" lon="5.4689">
        <ele>1468.761963</ele>
        <time>2020-08-18T08:24:20Z</time>
      </trkpt>
      <trkpt lat="44.8998" lon="5.46919">
        <ele>1472.015991</ele>
        <time>2020-08-18T08:24:26Z</time>
      </trkpt>
      <trkpt lat="44.89981" lon="5.46934">
        <ele>1472.559082</ele>
        <time>2020-08-18T08:24:29Z</time>
      </trkpt>
      <trkpt lat="44.89987" lon="5.46946">
        <ele>1471.195801</ele>
        <time>2020-08-18T08:24:32Z</time>
      </trkpt>
      <trkpt lat="44.90004" lon="5.46967">
        <ele>1466.85144</ele>
        <time>2020-08-18T08:24:38Z</time>
      </trkpt>
      <trkpt lat="44.90007" lon="5.46983">
        <ele>1467.268677</ele>
        <time>2020-08-18T08:24:41Z</time>
      </trkpt>
      <trkpt lat="44.90005" lon="5.47014">
        <ele>1470.256714</ele>
        <time>2020-08-18T08:24:47Z</time>
      </trkpt>
      <trkpt lat="44.90001" lon="5.47046">
        <ele>1472.02002</ele>
        <time>2020-08-18T08:24:53Z</time>
      </trkpt>
      <trkpt lat="44.89995" lon="5.47059">
        <ele>1472.724609</ele>
        <time>2020-08-18T08:24:56Z</time>
      </trkpt>
      <trkpt lat="44.89974" lon="5.47075">
        <ele>1473.994507</ele>
        <time>2020-08-18T08:25:02Z</time>
      </trkpt>
      <trkpt lat="44.89957" lon="5.47096">
        <ele>1473.606812</ele>
        <time>2020-08-18T08:25:08Z</time>
      </trkpt>
      <trkpt lat="44.89946" lon="5.47102">
        <ele>1475.496216</ele>
        <time>2020-08-18T08:25:11Z</time>
      </trkpt>
      <trkpt lat="44.8994" lon="5.47114">
        <ele>1475.478516</ele>
        <time>2020-08-18T08:25:14Z</time>
      </trkpt>
      <trkpt lat="44.89935" lon="5.47129">
        <ele>1474.100952</ele>
        <time>2020-08-18T08:25:17Z</time>
      </trkpt>
      <trkpt lat="44.89927" lon="5.47142">
        <ele>1473.184814</ele>
        <time>2020-08-18T08:25:20Z</time>
      </trkpt>
      <trkpt lat="44.89898" lon="5.47169">
        <ele>1476.233521</ele>
        <time>2020-08-18T08:25:29Z</time>
      </trkpt>
      <trkpt lat="44.89892" lon="5.47183">
        <ele>1476.540894</ele>
        <time>2020-08-18T08:25:32Z</time>
      </trkpt>
      <trkpt lat="44.89884" lon="5.47232">
        <ele>1475.341797</ele>
        <time>2020-08-18T08:25:41Z</time>
      </trkpt>
      <trkpt lat="44.89871" lon="5.4726">
        <ele>1477.562256</ele>
        <time>2020-08-18T08:25:47Z</time>
      </trkpt>
      <trkpt lat="44.8987" lon="5.47276">
        <ele>1477.352539</ele>
        <time>2020-08-18T08:25:50Z</time>
      </trkpt>
      <trkpt lat="44.89877" lon="5.47327">
        <ele>1475.973633</ele>
        <time>2020-08-18T08:25:59Z</time>
      </trkpt>
      <trkpt lat="44.89876" lon="5.47345">
        <ele>1475.302368</ele>
        <time>2020-08-18T08:26:02Z</time>
      </trkpt>
      <trkpt lat="44.89868" lon="5.47356">
        <ele>1475.176636</ele>
        <time>2020-08-18T08:26:05Z</time>
      </trkpt>
      <trkpt lat="44.89857" lon="5.47353">
        <ele>1476.071533</ele>
        <time>2020-08-18T08:26:08Z</time>
      </trkpt>
      <trkpt lat="44.89844" lon="5.47328">
        <ele>1478.140259</ele>
        <time>2020-08-18T08:26:14Z</time>
      </trkpt>
      <trkpt lat="44.89834" lon="5.47319">
        <ele>1478.559937</ele>
        <time>2020-08-18T08:26:17Z</time>
      </trkpt>
      <trkpt lat="44.89816" lon="5.47313">
        <ele>1479.058594</ele>
        <time>2020-08-18T08:26:21Z</time>
      </trkpt>
      <trkpt lat="44.89808" lon="5.47305">
        <ele>1479.47229</ele>
        <time>2020-08-18T08:26:23Z</time>
      </trkpt>
      <trkpt lat="44.89791" lon="5.47273">
        <ele>1480.974243</ele>
        <time>2020-08-18T08:26:29Z</time>
      </trkpt>
      <trkpt lat="44.89779" lon="5.47266">
        <ele>1481.049194</ele>
        <time>2020-08-18T08:26:32Z</time>
      </trkpt>
      <trkpt lat="44.89766" lon="5.47268">
        <ele>1480.842163</ele>
        <time>2020-08-18T08:26:35Z</time>
      </trkpt>
      <trkpt lat="44.89754" lon="5.47275">
        <ele>1480.618408</ele>
        <time>2020-08-18T08:26:38Z</time>
      </trkpt>
      <trkpt lat="44.8974" lon="5.47299">
        <ele>1480.106812</ele>
        <time>2020-08-18T08:26:43Z</time>
      </trkpt>
      <trkpt lat="44.89739" lon="5.47317">
        <ele>1479.711304</ele>
        <time>2020-08-18T08:26:46Z</time>
      </trkpt>
      <trkpt lat="44.89744" lon="5.4737">
        <ele>1479.314941</ele>
        <time>2020-08-18T08:26:55Z</time>
      </trkpt>
      <trkpt lat="44.89744" lon="5.47389">
        <ele>1479.379761</ele>
        <time>2020-08-18T08:26:58Z</time>
      </trkpt>
      <trkpt lat="44.8974" lon="5.47406">
        <ele>1479.590454</ele>
        <time>2020-08-18T08:27:01Z</time>
      </trkpt>
      <trkpt lat="44.89726" lon="5.47435">
        <ele>1480.869507</ele>
        <time>2020-08-18T08:27:07Z</time>
      </trkpt>
      <trkpt lat="44.89699" lon="5.47472">
        <ele>1484.239014</ele>
        <time>2020-08-18T08:27:16Z</time>
      </trkpt>
      <trkpt lat="44.89685" lon="5.47517">
        <ele>1487.28833</ele>
        <time>2020-08-18T08:27:24Z</time>
      </trkpt>
      <trkpt lat="44.89678" lon="5.4753">
        <ele>1489.214111</ele>
        <time>2020-08-18T08:27:27Z</time>
      </trkpt>
      <trkpt lat="44.89667" lon="5.47534">
        <ele>1490.959106</ele>
        <time>2020-08-18T08:27:30Z</time>
      </trkpt>
      <trkpt lat="44.89644" lon="5.47526">
        <ele>1493.202881</ele>
        <time>2020-08-18T08:27:36Z</time>
      </trkpt>
      <trkpt lat="44.89638" lon="5.47512">
        <ele>1492.497437</ele>
        <time>2020-08-18T08:27:39Z</time>
      </trkpt>
      <trkpt lat="44.89633" lon="5.47478">
        <ele>1491.506226</ele>
        <time>2020-08-18T08:27:45Z</time>
      </trkpt>
      <trkpt lat="44.89585" lon="5.47422">
        <ele>1492.612549</ele>
        <time>2020-08-18T08:28:00Z</time>
      </trkpt>
      <trkpt lat="44.89575" lon="5.47412">
        <ele>1493.050049</ele>
        <time>2020-08-18T08:28:03Z</time>
      </trkpt>
      <trkpt lat="44.89563" lon="5.47407">
        <ele>1493.719971</ele>
        <time>2020-08-18T08:28:06Z</time>
      </trkpt>
      <trkpt lat="44.8955" lon="5.47406">
        <ele>1494.530029</ele>
        <time>2020-08-18T08:28:09Z</time>
      </trkpt>
      <trkpt lat="44.89526" lon="5.47416">
        <ele>1498.692749</ele>
        <time>2020-08-18T08:28:15Z</time>
      </trkpt>
      <trkpt lat="44.89515" lon="5.47424">
        <ele>1500.965576</ele>
        <time>2020-08-18T08:28:18Z</time>
      </trkpt>
      <trkpt lat="44.89506" lon="5.47435">
        <ele>1502.696411</ele>
        <time>2020-08-18T08:28:21Z</time>
      </trkpt>
      <trkpt lat="44.89474" lon="5.4751">
        <ele>1509.085815</ele>
        <time>2020-08-18T08:28:39Z</time>
      </trkpt>
      <trkpt lat="44.89465" lon="5.47518">
        <ele>1510.297485</ele>
        <time>2020-08-18T08:28:42Z</time>
      </trkpt>
      <trkpt lat="44.89454" lon="5.47517">
        <ele>1511.914307</ele>
        <time>2020-08-18T08:28:45Z</time>
      </trkpt>
      <trkpt lat="44.89443" lon="5.4751">
        <ele>1513.204956</ele>
        <time>2020-08-18T08:28:48Z</time>
      </trkpt>
      <trkpt lat="44.89421" lon="5.47515">
        <ele>1514.782349</ele>
        <time>2020-08-18T08:28:54Z</time>
      </trkpt>
      <trkpt lat="44.8941" lon="5.47514">
        <ele>1515.711426</ele>
        <time>2020-08-18T08:28:57Z</time>
      </trkpt>
      <trkpt lat="44.89401" lon="5.47506">
        <ele>1516.455078</ele>
        <time>2020-08-18T08:29:00Z</time>
      </trkpt>
      <trkpt lat="44.89396" lon="5.47493">
        <ele>1517.147949</ele>
        <time>2020-08-18T08:29:03Z</time>
      </trkpt>
      <trkpt lat="44.89386" lon="5.47449">
        <ele>1518.454102</ele>
        <time>2020-08-18T08:29:12Z</time>
      </trkpt>
      <trkpt lat="44.8938" lon="5.47403">
        <ele>1518.484375</ele>
        <time>2020-08-18T08:29:21Z</time>
      </trkpt>
      <trkpt lat="44.89377" lon="5.47368">
        <ele>1517.991211</ele>
        <time>2020-08-18T08:29:27Z</time>
      </trkpt>
      <trkpt lat="44.89367" lon="5.47311">
        <ele>1515.131958</ele>
        <time>2020-08-18T08:29:36Z</time>
      </trkpt>
      <trkpt lat="44.89364" lon="5.47238">
        <ele>1507.809448</ele>
        <time>2020-08-18T08:29:44Z</time>
      </trkpt>
      <trkpt lat="44.89366" lon="5.47198">
        <ele>1504.864746</ele>
        <time>2020-08-18T08:29:48Z</time>
      </trkpt>
      <trkpt lat="44.89379" lon="5.47102">
        <ele>1502.267212</ele>
        <time>2020-08-18T08:29:58Z</time>
      </trkpt>
      <trkpt lat="44.89382" lon="5.47049">
        <ele>1504.592529</ele>
        <time>2020-08-18T08:30:04Z</time>
      </trkpt>
      <trkpt lat="44.89379" lon="5.47032">
        <ele>1505.554077</ele>
        <time>2020-08-18T08:30:06Z</time>
      </trkpt>
      <trkpt lat="44.89365" lon="5.47005">
        <ele>1505.427246</ele>
        <time>2020-08-18T08:30:10Z</time>
      </trkpt>
      <trkpt lat="44.89359" lon="5.46974">
        <ele>1508.152344</ele>
        <time>2020-08-18T08:30:14Z</time>
      </trkpt>
      <trkpt lat="44.89348" lon="5.46945">
        <ele>1510.541992</ele>
        <time>2020-08-18T08:30:18Z</time>
      </trkpt>
      <trkpt lat="44.89339" lon="5.46937">
        <ele>1510.539551</ele>
        <time>2020-08-18T08:30:20Z</time>
      </trkpt>
      <trkpt lat="44.89327" lon="5.46936">
        <ele>1509.580933</ele>
        <time>2020-08-18T08:30:22Z</time>
      </trkpt>
      <trkpt lat="44.89317" lon="5.46949">
        <ele>1507.182495</ele>
        <time>2020-08-18T08:30:25Z</time>
      </trkpt>
      <trkpt lat="44.893" lon="5.46987">
        <ele>1500.744751</ele>
        <time>2020-08-18T08:30:31Z</time>
      </trkpt>
      <trkpt lat="44.89292" lon="5.46997">
        <ele>1498.516602</ele>
        <time>2020-08-18T08:30:33Z</time>
      </trkpt>
      <trkpt lat="44.89246" lon="5.47015">
        <ele>1491.932983</ele>
        <time>2020-08-18T08:30:41Z</time>
      </trkpt>
      <trkpt lat="44.89234" lon="5.47014">
        <ele>1490.506958</ele>
        <time>2020-08-18T08:30:43Z</time>
      </trkpt>
      <trkpt lat="44.89224" lon="5.47007">
        <ele>1489.673584</ele>
        <time>2020-08-18T08:30:45Z</time>
      </trkpt>
      <trkpt lat="44.89215" lon="5.46996">
        <ele>1489.619385</ele>
        <time>2020-08-18T08:30:47Z</time>
      </trkpt>
      <trkpt lat="44.89209" lon="5.46982">
        <ele>1490.179932</ele>
        <time>2020-08-18T08:30:49Z</time>
      </trkpt>
      <trkpt lat="44.892" lon="5.46953">
        <ele>1491.407227</ele>
        <time>2020-08-18T08:30:53Z</time>
      </trkpt>
      <trkpt lat="44.89197" lon="5.46902">
        <ele>1496.304565</ele>
        <time>2020-08-18T08:31:00Z</time>
      </trkpt>
      <trkpt lat="44.89192" lon="5.46873">
        <ele>1499.159058</ele>
        <time>2020-08-18T08:31:04Z</time>
      </trkpt>
      <trkpt lat="44.8918" lon="5.46848">
        <ele>1500.550781</ele>
        <time>2020-08-18T08:31:08Z</time>
      </trkpt>
      <trkpt lat="44.89169" lon="5.46841">
        <ele>1500.005005</ele>
        <time>2020-08-18T08:31:10Z</time>
      </trkpt>
      <trkpt lat="44.89136" lon="5.46841">
        <ele>1495.379639</ele>
        <time>2020-08-18T08:31:16Z</time>
      </trkpt>
      <trkpt lat="44.89127" lon="5.46836">
        <ele>1495.631592</ele>
        <time>2020-08-18T08:31:18Z</time>
      </trkpt>
      <trkpt lat="44.89121" lon="5.46825">
        <ele>1497.25354</ele>
        <time>2020-08-18T08:31:20Z</time>
      </trkpt>
      <trkpt lat="44.89114" lon="5.468">
        <ele>1501.315918</ele>
        <time>2020-08-18T08:31:24Z</time>
      </trkpt>
      <trkpt lat="44.89107" lon="5.46788">
        <ele>1502.373535</ele>
        <time>2020-08-18T08:31:26Z</time>
      </trkpt>
      <trkpt lat="44.89083" lon="5.46763">
        <ele>1501.481689</ele>
        <time>2020-08-18T08:31:32Z</time>
      </trkpt>
      <trkpt lat="44.89051" lon="5.46651">
        <ele>1500.227661</ele>
        <time>2020-08-18T08:31:49Z</time>
      </trkpt>
      <trkpt lat="44.89036" lon="5.4661">
        <ele>1501.194824</ele>
        <time>2020-08-18T08:31:56Z</time>
      </trkpt>
      <trkpt lat="44.8901" lon="5.46581">
        <ele>1498.53064</ele>
        <time>2020-08-18T08:32:02Z</time>
      </trkpt>
      <trkpt lat="44.88996" lon="5.46555">
        <ele>1499.05835</ele>
        <time>2020-08-18T08:32:06Z</time>
      </trkpt>
      <trkpt lat="44.8898" lon="5.46532">
        <ele>1499.866699</ele>
        <time>2020-08-18T08:32:10Z</time>
      </trkpt>
      <trkpt lat="44.8897" lon="5.46506">
        <ele>1499.447998</ele>
        <time>2020-08-18T08:32:14Z</time>
      </trkpt>
      <trkpt lat="44.88955" lon="5.46486">
        <ele>1497.442505</ele>
        <time>2020-08-18T08:32:18Z</time>
      </trkpt>
      <trkpt lat="44.88939" lon="5.46429">
        <ele>1501.36145</ele>
        <time>2020-08-18T08:32:26Z</time>
      </trkpt>
      <trkpt lat="44.8893" lon="5.46421">
        <ele>1501.381104</ele>
        <time>2020-08-18T08:32:28Z</time>
      </trkpt>
      <trkpt lat="44.88901" lon="5.46415">
        <ele>1499.919922</ele>
        <time>2020-08-18T08:32:34Z</time>
      </trkpt>
      <trkpt lat="44.88891" lon="5.46404">
        <ele>1501.599976</ele>
        <time>2020-08-18T08:32:36Z</time>
      </trkpt>
      <trkpt lat="44.88872" lon="5.46335">
        <ele>1511.464844</ele>
        <time>2020-08-18T08:32:47Z</time>
      </trkpt>
      <trkpt lat="44.88871" lon="5.4628">
        <ele>1515.230347</ele>
        <time>2020-08-18T08:32:56Z</time>
      </trkpt>
      <trkpt lat="44.88862" lon="5.46251">
        <ele>1516.895264</ele>
        <time>2020-08-18T08:33:01Z</time>
      </trkpt>
      <trkpt lat="44.88861" lon="5.46238">
        <ele>1517.155884</ele>
        <time>2020-08-18T08:33:03Z</time>
      </trkpt>
      <trkpt lat="44.88869" lon="5.46214">
        <ele>1516.702271</ele>
        <time>2020-08-18T08:33:07Z</time>
      </trkpt>
      <trkpt lat="44.88892" lon="5.46184">
        <ele>1514.017944</ele>
        <time>2020-08-18T08:33:14Z</time>
      </trkpt>
      <trkpt lat="44.88899" lon="5.46159">
        <ele>1512.914795</ele>
        <time>2020-08-18T08:33:18Z</time>
      </trkpt>
      <trkpt lat="44.88895" lon="5.46114">
        <ele>1511.665649</ele>
        <time>2020-08-18T08:33:24Z</time>
      </trkpt>
      <trkpt lat="44.88897" lon="5.46098">
        <ele>1510.672241</ele>
        <time>2020-08-18T08:33:26Z</time>
      </trkpt>
      <trkpt lat="44.88909" lon="5.46071">
        <ele>1508.635986</ele>
        <time>2020-08-18T08:33:30Z</time>
      </trkpt>
      <trkpt lat="44.88934" lon="5.46036">
        <ele>1504.448486</ele>
        <time>2020-08-18T08:33:36Z</time>
      </trkpt>
      <trkpt lat="44.88948" lon="5.46004">
        <ele>1502.059937</ele>
        <time>2020-08-18T08:33:40Z</time>
      </trkpt>
      <trkpt lat="44.8895" lon="5.45953">
        <ele>1499.60376</ele>
        <time>2020-08-18T08:33:46Z</time>
      </trkpt>
      <trkpt lat="44.88963" lon="5.45919">
        <ele>1498.663208</ele>
        <time>2020-08-18T08:33:50Z</time>
      </trkpt>
      <trkpt lat="44.88968" lon="5.45858">
        <ele>1497.937256</ele>
        <time>2020-08-18T08:33:56Z</time>
      </trkpt>
      <trkpt lat="44.88972" lon="5.4584">
        <ele>1497.935547</ele>
        <time>2020-08-18T08:33:58Z</time>
      </trkpt>
      <trkpt lat="44.88979" lon="5.45822">
        <ele>1498.331177</ele>
        <time>2020-08-18T08:34:00Z</time>
      </trkpt>
      <trkpt lat="44.89019" lon="5.458">
        <ele>1503.615479</ele>
        <time>2020-08-18T08:34:06Z</time>
      </trkpt>
      <trkpt lat="44.89023" lon="5.45779">
        <ele>1504.145508</ele>
        <time>2020-08-18T08:34:08Z</time>
      </trkpt>
      <trkpt lat="44.8903" lon="5.45765">
        <ele>1505.000122</ele>
        <time>2020-08-18T08:34:10Z</time>
      </trkpt>
      <trkpt lat="44.89037" lon="5.4573">
        <ele>1500.304688</ele>
        <time>2020-08-18T08:34:15Z</time>
      </trkpt>
      <trkpt lat="44.8905" lon="5.45697">
        <ele>1499.682495</ele>
        <time>2020-08-18T08:35:10Z</time>
      </trkpt>
      <trkpt lat="44.8906" lon="5.45691">
        <ele>1501.185303</ele>
        <time>2020-08-18T08:36:02Z</time>
      </trkpt>
      <trkpt lat="44.89064" lon="5.45679">
        <ele>1500.343872</ele>
        <time>2020-08-18T08:36:05Z</time>
      </trkpt>
      <trkpt lat="44.89064" lon="5.45644">
        <ele>1495.946655</ele>
        <time>2020-08-18T08:36:11Z</time>
      </trkpt>
      <trkpt lat="44.89082" lon="5.4563">
        <ele>1497.630493</ele>
        <time>2020-08-18T08:36:15Z</time>
      </trkpt>
      <trkpt lat="44.89087" lon="5.45618">
        <ele>1496.243286</ele>
        <time>2020-08-18T08:36:17Z</time>
      </trkpt>
      <trkpt lat="44.89086" lon="5.45601">
        <ele>1491.460938</ele>
        <time>2020-08-18T08:36:20Z</time>
      </trkpt>
      <trkpt lat="44.89076" lon="5.45591">
        <ele>1485.565674</ele>
        <time>2020-08-18T08:36:22Z</time>
      </trkpt>
      <trkpt lat="44.89072" lon="5.4558">
        <ele>1480.966431</ele>
        <time>2020-08-18T08:36:24Z</time>
      </trkpt>
      <trkpt lat="44.89074" lon="5.45542">
        <ele>1478.570313</ele>
        <time>2020-08-18T08:36:28Z</time>
      </trkpt>
      <trkpt lat="44.89083" lon="5.45498">
        <ele>1477.486084</ele>
        <time>2020-08-18T08:36:32Z</time>
      </trkpt>
      <trkpt lat="44.89084" lon="5.4548">
        <ele>1475.837524</ele>
        <time>2020-08-18T08:36:34Z</time>
      </trkpt>
      <trkpt lat="44.89074" lon="5.45468">
        <ele>1472.357178</ele>
        <time>2020-08-18T08:36:36Z</time>
      </trkpt>
      <trkpt lat="44.89051" lon="5.45473">
        <ele>1467.665039</ele>
        <time>2020-08-18T08:36:40Z</time>
      </trkpt>
      <trkpt lat="44.89039" lon="5.45482">
        <ele>1466.02002</ele>
        <time>2020-08-18T08:36:42Z</time>
      </trkpt>
      <trkpt lat="44.89019" lon="5.45511">
        <ele>1463.997437</ele>
        <time>2020-08-18T08:36:46Z</time>
      </trkpt>
      <trkpt lat="44.89008" lon="5.45517">
        <ele>1462.61499</ele>
        <time>2020-08-18T08:36:48Z</time>
      </trkpt>
      <trkpt lat="44.88965" lon="5.45508">
        <ele>1455.245728</ele>
        <time>2020-08-18T08:36:54Z</time>
      </trkpt>
      <trkpt lat="44.88942" lon="5.45511">
        <ele>1452.148315</ele>
        <time>2020-08-18T08:36:58Z</time>
      </trkpt>
      <trkpt lat="44.8892" lon="5.45521">
        <ele>1451.099976</ele>
        <time>2020-08-18T08:37:02Z</time>
      </trkpt>
      <trkpt lat="44.88896" lon="5.45518">
        <ele>1452.969971</ele>
        <time>2020-08-18T08:37:06Z</time>
      </trkpt>
      <trkpt lat="44.88884" lon="5.45511">
        <ele>1453.290039</ele>
        <time>2020-08-18T08:37:08Z</time>
      </trkpt>
      <trkpt lat="44.88872" lon="5.45499">
        <ele>1453.795044</ele>
        <time>2020-08-18T08:37:10Z</time>
      </trkpt>
      <trkpt lat="44.88853" lon="5.45471">
        <ele>1454.415039</ele>
        <time>2020-08-18T08:37:14Z</time>
      </trkpt>
      <trkpt lat="44.88823" lon="5.45376">
        <ele>1449.682129</ele>
        <time>2020-08-18T08:37:24Z</time>
      </trkpt>
      <trkpt lat="44.88823" lon="5.4536">
        <ele>1448.41748</ele>
        <time>2020-08-18T08:37:26Z</time>
      </trkpt>
      <trkpt lat="44.88833" lon="5.45358">
        <ele>1447.316772</ele>
        <time>2020-08-18T08:37:30Z</time>
      </trkpt>
      <trkpt lat="44.88853" lon="5.45397">
        <ele>1446.57251</ele>
        <time>2020-08-18T08:37:37Z</time>
      </trkpt>
      <trkpt lat="44.88873" lon="5.45418">
        <ele>1443.498413</ele>
        <time>2020-08-18T08:37:41Z</time>
      </trkpt>
      <trkpt lat="44.88897" lon="5.45434">
        <ele>1441.744995</ele>
        <time>2020-08-18T08:37:45Z</time>
      </trkpt>
      <trkpt lat="44.88932" lon="5.45416">
        <ele>1440.219971</ele>
        <time>2020-08-18T08:37:51Z</time>
      </trkpt>
      <trkpt lat="44.88937" lon="5.45404">
        <ele>1440.324951</ele>
        <time>2020-08-18T08:37:53Z</time>
      </trkpt>
      <trkpt lat="44.88943" lon="5.45343">
        <ele>1436.53125</ele>
        <time>2020-08-18T08:38:01Z</time>
      </trkpt>
      <trkpt lat="44.88961" lon="5.4532">
        <ele>1437.682495</ele>
        <time>2020-08-18T08:38:05Z</time>
      </trkpt>
      <trkpt lat="44.88966" lon="5.45304">
        <ele>1436.891235</ele>
        <time>2020-08-18T08:38:07Z</time>
      </trkpt>
      <trkpt lat="44.88969" lon="5.45284">
        <ele>1435.088745</ele>
        <time>2020-08-18T08:38:09Z</time>
      </trkpt>
      <trkpt lat="44.8897" lon="5.45237">
        <ele>1430.537964</ele>
        <time>2020-08-18T08:38:13Z</time>
      </trkpt>
      <trkpt lat="44.88977" lon="5.45197">
        <ele>1428.287476</ele>
        <time>2020-08-18T08:38:17Z</time>
      </trkpt>
      <trkpt lat="44.88976" lon="5.45133">
        <ele>1424.431152</ele>
        <time>2020-08-18T08:38:23Z</time>
      </trkpt>
      <trkpt lat="44.88978" lon="5.45096">
        <ele>1422.203979</ele>
        <time>2020-08-18T08:38:27Z</time>
      </trkpt>
      <trkpt lat="44.88977" lon="5.45079">
        <ele>1420.636963</ele>
        <time>2020-08-18T08:38:29Z</time>
      </trkpt>
      <trkpt lat="44.88954" lon="5.45072">
        <ele>1413.814575</ele>
        <time>2020-08-18T08:38:33Z</time>
      </trkpt>
      <trkpt lat="44.8894" lon="5.45058">
        <ele>1409.526855</ele>
        <time>2020-08-18T08:38:36Z</time>
      </trkpt>
      <trkpt lat="44.88929" lon="5.44986">
        <ele>1412.542236</ele>
        <time>2020-08-18T08:38:44Z</time>
      </trkpt>
      <trkpt lat="44.88918" lon="5.44931">
        <ele>1415.387451</ele>
        <time>2020-08-18T08:38:50Z</time>
      </trkpt>
      <trkpt lat="44.88908" lon="5.44919">
        <ele>1413.193726</ele>
        <time>2020-08-18T08:38:52Z</time>
      </trkpt>
      <trkpt lat="44.88896" lon="5.44916">
        <ele>1409.53125</ele>
        <time>2020-08-18T08:38:54Z</time>
      </trkpt>
      <trkpt lat="44.88885" lon="5.44907">
        <ele>1407.165527</ele>
        <time>2020-08-18T08:38:56Z</time>
      </trkpt>
      <trkpt lat="44.88868" lon="5.44878">
        <ele>1403.450806</ele>
        <time>2020-08-18T08:39:00Z</time>
      </trkpt>
      <trkpt lat="44.88855" lon="5.44845">
        <ele>1400.256836</ele>
        <time>2020-08-18T08:39:04Z</time>
      </trkpt>
      <trkpt lat="44.88844" lon="5.4483">
        <ele>1398.574341</ele>
        <time>2020-08-18T08:39:06Z</time>
      </trkpt>
      <trkpt lat="44.88812" lon="5.448">
        <ele>1391.863159</ele>
        <time>2020-08-18T08:39:12Z</time>
      </trkpt>
      <trkpt lat="44.88781" lon="5.44776">
        <ele>1394.208496</ele>
        <time>2020-08-18T08:39:18Z</time>
      </trkpt>
      <trkpt lat="44.88774" lon="5.44766">
        <ele>1394.074219</ele>
        <time>2020-08-18T08:39:20Z</time>
      </trkpt>
      <trkpt lat="44.88769" lon="5.44747">
        <ele>1392.074951</ele>
        <time>2020-08-18T08:39:22Z</time>
      </trkpt>
      <trkpt lat="44.88775" lon="5.44695">
        <ele>1387.212158</ele>
        <time>2020-08-18T08:39:29Z</time>
      </trkpt>
      <trkpt lat="44.88771" lon="5.4463">
        <ele>1383.852661</ele>
        <time>2020-08-18T08:39:37Z</time>
      </trkpt>
      <trkpt lat="44.88763" lon="5.44578">
        <ele>1384.411377</ele>
        <time>2020-08-18T08:39:43Z</time>
      </trkpt>
      <trkpt lat="44.88743" lon="5.44519">
        <ele>1386.622437</ele>
        <time>2020-08-18T08:39:49Z</time>
      </trkpt>
      <trkpt lat="44.88734" lon="5.44505">
        <ele>1387.326294</ele>
        <time>2020-08-18T08:39:51Z</time>
      </trkpt>
      <trkpt lat="44.88725" lon="5.44498">
        <ele>1387.044556</ele>
        <time>2020-08-18T08:39:53Z</time>
      </trkpt>
      <trkpt lat="44.88716" lon="5.44503">
        <ele>1385.498291</ele>
        <time>2020-08-18T08:39:55Z</time>
      </trkpt>
      <trkpt lat="44.88712" lon="5.44514">
        <ele>1384.021851</ele>
        <time>2020-08-18T08:39:57Z</time>
      </trkpt>
      <trkpt lat="44.88717" lon="5.44543">
        <ele>1381.888184</ele>
        <time>2020-08-18T08:40:01Z</time>
      </trkpt>
      <trkpt lat="44.88716" lon="5.44558">
        <ele>1382.620117</ele>
        <time>2020-08-18T08:40:04Z</time>
      </trkpt>
      <trkpt lat="44.88705" lon="5.4456">
        <ele>1383.004272</ele>
        <time>2020-08-18T08:40:07Z</time>
      </trkpt>
      <trkpt lat="44.88694" lon="5.44558">
        <ele>1382.848511</ele>
        <time>2020-08-18T08:40:09Z</time>
      </trkpt>
      <trkpt lat="44.88686" lon="5.44551">
        <ele>1381.628906</ele>
        <time>2020-08-18T08:40:10Z</time>
      </trkpt>
      <trkpt lat="44.88647" lon="5.44537">
        <ele>1380.347046</ele>
        <time>2020-08-18T08:40:16Z</time>
      </trkpt>
      <trkpt lat="44.88619" lon="5.44535">
        <ele>1380.688721</ele>
        <time>2020-08-18T08:40:20Z</time>
      </trkpt>
      <trkpt lat="44.885" lon="5.44493">
        <ele>1367.06311</ele>
        <time>2020-08-18T08:40:34Z</time>
      </trkpt>
      <trkpt lat="44.8844" lon="5.44452">
        <ele>1358.891602</ele>
        <time>2020-08-18T08:40:45Z</time>
      </trkpt>
      <trkpt lat="44.88431" lon="5.44458">
        <ele>1359.256958</ele>
        <time>2020-08-18T08:41:19Z</time>
      </trkpt>
      <trkpt lat="44.88415" lon="5.4448">
        <ele>1362.874146</ele>
        <time>2020-08-18T08:41:27Z</time>
      </trkpt>
      <trkpt lat="44.88359" lon="5.4451">
        <ele>1360.716431</ele>
        <time>2020-08-18T08:41:48Z</time>
      </trkpt>
      <trkpt lat="44.88324" lon="5.44541">
        <ele>1361.080078</ele>
        <time>2020-08-18T08:42:01Z</time>
      </trkpt>
      <trkpt lat="44.88305" lon="5.44546">
        <ele>1361.712524</ele>
        <time>2020-08-18T08:42:07Z</time>
      </trkpt>
      <trkpt lat="44.88288" lon="5.44555">
        <ele>1362.191284</ele>
        <time>2020-08-18T08:42:16Z</time>
      </trkpt>
      <trkpt lat="44.88255" lon="5.44587">
        <ele>1362.969116</ele>
        <time>2020-08-18T08:42:39Z</time>
      </trkpt>
      <trkpt lat="44.88218" lon="5.44631">
        <ele>1366.150146</ele>
        <time>2020-08-18T08:42:59Z</time>
      </trkpt>
      <trkpt lat="44.88211" lon="5.44671">
        <ele>1367.600342</ele>
        <time>2020-08-18T08:43:24Z</time>
      </trkpt>
      <trkpt lat="44.88201" lon="5.4468">
        <ele>1367.887451</ele>
        <time>2020-08-18T08:43:29Z</time>
      </trkpt>
      <trkpt lat="44.88181" lon="5.44732">
        <ele>1369.300781</ele>
        <time>2020-08-18T08:43:45Z</time>
      </trkpt>
      <trkpt lat="44.88174" lon="5.44742">
        <ele>1369.692505</ele>
        <time>2020-08-18T08:44:08Z</time>
      </trkpt>
      <trkpt lat="44.8816" lon="5.44781">
        <ele>1371.254272</ele>
        <time>2020-08-18T08:44:29Z</time>
      </trkpt>
      <trkpt lat="44.88146" lon="5.44799">
        <ele>1371.558228</ele>
        <time>2020-08-18T08:44:38Z</time>
      </trkpt>
      <trkpt lat="44.8814" lon="5.44811">
        <ele>1371.775269</ele>
        <time>2020-08-18T08:44:43Z</time>
      </trkpt>
      <trkpt lat="44.88138" lon="5.44824">
        <ele>1372.134521</ele>
        <time>2020-08-18T08:44:47Z</time>
      </trkpt>
      <trkpt lat="44.88113" lon="5.44865">
        <ele>1373.231689</ele>
        <time>2020-08-18T08:45:02Z</time>
      </trkpt>
      <trkpt lat="44.88105" lon="5.4487">
        <ele>1373.212524</ele>
        <time>2020-08-18T08:45:24Z</time>
      </trkpt>
      <trkpt lat="44.88094" lon="5.44893">
        <ele>1373.381592</ele>
        <time>2020-08-18T08:45:49Z</time>
      </trkpt>
      <trkpt lat="44.88085" lon="5.44903">
        <ele>1373.193726</ele>
        <time>2020-08-18T08:45:54Z</time>
      </trkpt>
      <trkpt lat="44.88081" lon="5.4489">
        <ele>1373.001221</ele>
        <time>2020-08-18T08:46:01Z</time>
      </trkpt>
      <trkpt lat="44.88085" lon="5.44858">
        <ele>1372.52063</ele>
        <time>2020-08-18T08:46:08Z</time>
      </trkpt>
      <trkpt lat="44.88105" lon="5.44783">
        <ele>1371.484253</ele>
        <time>2020-08-18T08:46:23Z</time>
      </trkpt>
      <trkpt lat="44.88128" lon="5.44649">
        <ele>1370.464966</ele>
        <time>2020-08-18T08:46:46Z</time>
      </trkpt>
      <trkpt lat="44.88124" lon="5.44636">
        <ele>1371.040771</ele>
        <time>2020-08-18T08:46:49Z</time>
      </trkpt>
      <trkpt lat="44.88113" lon="5.44637">
        <ele>1371.707397</ele>
        <time>2020-08-18T08:46:53Z</time>
      </trkpt>
      <trkpt lat="44.88108" lon="5.44648">
        <ele>1371.841309</ele>
        <time>2020-08-18T08:49:25Z</time>
      </trkpt>
      <trkpt lat="44.88099" lon="5.44653">
        <ele>1372.336304</ele>
        <time>2020-08-18T08:50:55Z</time>
      </trkpt>
      <trkpt lat="44.88072" lon="5.4468">
        <ele>1375.21814</ele>
        <time>2020-08-18T08:51:08Z</time>
      </trkpt>
      <trkpt lat="44.8806" lon="5.44702">
        <ele>1376.014893</ele>
        <time>2020-08-18T08:51:14Z</time>
      </trkpt>
      <trkpt lat="44.88045" lon="5.44755">
        <ele>1375.250488</ele>
        <time>2020-08-18T08:51:26Z</time>
      </trkpt>
      <trkpt lat="44.8804" lon="5.44766">
        <ele>1375.747437</ele>
        <time>2020-08-18T08:51:29Z</time>
      </trkpt>
      <trkpt lat="44.8803" lon="5.44772">
        <ele>1377.103394</ele>
        <time>2020-08-18T08:51:32Z</time>
      </trkpt>
      <trkpt lat="44.87998" lon="5.4478">
        <ele>1381.68042</ele>
        <time>2020-08-18T08:51:41Z</time>
      </trkpt>
      <trkpt lat="44.87988" lon="5.44789">
        <ele>1383.977539</ele>
        <time>2020-08-18T08:51:44Z</time>
      </trkpt>
      <trkpt lat="44.87982" lon="5.44802">
        <ele>1384.120605</ele>
        <time>2020-08-18T08:51:47Z</time>
      </trkpt>
      <trkpt lat="44.87981" lon="5.44818">
        <ele>1382.488525</ele>
        <time>2020-08-18T08:51:50Z</time>
      </trkpt>
      <trkpt lat="44.87983" lon="5.44848">
        <ele>1380.763184</ele>
        <time>2020-08-18T08:51:56Z</time>
      </trkpt>
      <trkpt lat="44.87977" lon="5.44861">
        <ele>1381.65564</ele>
        <time>2020-08-18T08:51:59Z</time>
      </trkpt>
      <trkpt lat="44.87968" lon="5.44866">
        <ele>1383.418335</ele>
        <time>2020-08-18T08:52:02Z</time>
      </trkpt>
      <trkpt lat="44.87949" lon="5.44864">
        <ele>1387.760742</ele>
        <time>2020-08-18T08:52:08Z</time>
      </trkpt>
      <trkpt lat="44.87941" lon="5.44876">
        <ele>1389.396851</ele>
        <time>2020-08-18T08:52:12Z</time>
      </trkpt>
      <trkpt lat="44.87924" lon="5.4494">
        <ele>1391.427856</ele>
        <time>2020-08-18T08:52:27Z</time>
      </trkpt>
      <trkpt lat="44.87923" lon="5.44971">
        <ele>1391.214966</ele>
        <time>2020-08-18T08:52:35Z</time>
      </trkpt>
      <trkpt lat="44.87912" lon="5.45028">
        <ele>1393.37793</ele>
        <time>2020-08-18T08:52:48Z</time>
      </trkpt>
      <trkpt lat="44.87904" lon="5.45042">
        <ele>1394.976196</ele>
        <time>2020-08-18T08:52:52Z</time>
      </trkpt>
      <trkpt lat="44.87894" lon="5.45046">
        <ele>1396.97876</ele>
        <time>2020-08-18T08:52:55Z</time>
      </trkpt>
      <trkpt lat="44.87875" lon="5.45047">
        <ele>1401.000122</ele>
        <time>2020-08-18T08:53:01Z</time>
      </trkpt>
      <trkpt lat="44.87864" lon="5.45042">
        <ele>1403.640991</ele>
        <time>2020-08-18T08:53:05Z</time>
      </trkpt>
      <trkpt lat="44.87855" lon="5.45041">
        <ele>1405.497803</ele>
        <time>2020-08-18T08:53:08Z</time>
      </trkpt>
      <trkpt lat="44.87846" lon="5.45051">
        <ele>1406.237793</ele>
        <time>2020-08-18T08:53:12Z</time>
      </trkpt>
      <trkpt lat="44.87836" lon="5.45096">
        <ele>1407.329102</ele>
        <time>2020-08-18T08:53:23Z</time>
      </trkpt>
      <trkpt lat="44.87793" lon="5.45169">
        <ele>1412.162231</ele>
        <time>2020-08-18T08:53:45Z</time>
      </trkpt>
      <trkpt lat="44.87785" lon="5.45179">
        <ele>1413.428101</ele>
        <time>2020-08-18T08:53:49Z</time>
      </trkpt>
      <trkpt lat="44.87785" lon="5.45196">
        <ele>1414.804443</ele>
        <time>2020-08-18T08:53:53Z</time>
      </trkpt>
      <trkpt lat="44.87793" lon="5.45224">
        <ele>1416.580933</ele>
        <time>2020-08-18T08:53:59Z</time>
      </trkpt>
      <trkpt lat="44.8781" lon="5.45308">
        <ele>1418.651978</ele>
        <time>2020-08-18T08:54:14Z</time>
      </trkpt>
      <trkpt lat="44.87812" lon="5.45334">
        <ele>1418.982666</ele>
        <time>2020-08-18T08:54:18Z</time>
      </trkpt>
      <trkpt lat="44.87806" lon="5.45436">
        <ele>1425.327759</ele>
        <time>2020-08-18T08:54:36Z</time>
      </trkpt>
      <trkpt lat="44.87808" lon="5.45451">
        <ele>1424.918701</ele>
        <time>2020-08-18T08:54:39Z</time>
      </trkpt>
      <trkpt lat="44.87806" lon="5.45466">
        <ele>1426.234985</ele>
        <time>2020-08-18T08:54:42Z</time>
      </trkpt>
      <trkpt lat="44.87801" lon="5.45481">
        <ele>1428.612427</ele>
        <time>2020-08-18T08:54:45Z</time>
      </trkpt>
      <trkpt lat="44.87778" lon="5.45519">
        <ele>1437.833984</ele>
        <time>2020-08-18T08:54:54Z</time>
      </trkpt>
      <trkpt lat="44.8777" lon="5.45546">
        <ele>1438.593262</ele>
        <time>2020-08-18T08:55:00Z</time>
      </trkpt>
      <trkpt lat="44.87766" lon="5.45576">
        <ele>1437.269043</ele>
        <time>2020-08-18T08:55:06Z</time>
      </trkpt>
      <trkpt lat="44.87756" lon="5.45609">
        <ele>1436.266846</ele>
        <time>2020-08-18T08:55:12Z</time>
      </trkpt>
      <trkpt lat="44.87719" lon="5.45678">
        <ele>1442.486084</ele>
        <time>2020-08-18T08:55:27Z</time>
      </trkpt>
      <trkpt lat="44.87713" lon="5.45693">
        <ele>1441.673706</ele>
        <time>2020-08-18T08:55:30Z</time>
      </trkpt>
      <trkpt lat="44.87705" lon="5.45739">
        <ele>1443.964844</ele>
        <time>2020-08-18T08:55:39Z</time>
      </trkpt>
      <trkpt lat="44.87691" lon="5.4579">
        <ele>1452.256348</ele>
        <time>2020-08-18T08:55:49Z</time>
      </trkpt>
      <trkpt lat="44.87683" lon="5.45803">
        <ele>1454.545532</ele>
        <time>2020-08-18T08:55:52Z</time>
      </trkpt>
      <trkpt lat="44.87665" lon="5.45822">
        <ele>1456.006714</ele>
        <time>2020-08-18T08:55:58Z</time>
      </trkpt>
      <trkpt lat="44.87621" lon="5.459">
        <ele>1463.917236</ele>
        <time>2020-08-18T08:56:16Z</time>
      </trkpt>
      <trkpt lat="44.87606" lon="5.45945">
        <ele>1465.206787</ele>
        <time>2020-08-18T08:56:25Z</time>
      </trkpt>
      <trkpt lat="44.87585" lon="5.45984">
        <ele>1464.833496</ele>
        <time>2020-08-18T08:56:34Z</time>
      </trkpt>
      <trkpt lat="44.87563" lon="5.46019">
        <ele>1461.474121</ele>
        <time>2020-08-18T08:56:43Z</time>
      </trkpt>
      <trkpt lat="44.8755" lon="5.46045">
        <ele>1460.90625</ele>
        <time>2020-08-18T08:56:49Z</time>
      </trkpt>
      <trkpt lat="44.87504" lon="5.46121">
        <ele>1459.94812</ele>
        <time>2020-08-18T08:57:06Z</time>
      </trkpt>
      <trkpt lat="44.87473" lon="5.46194">
        <ele>1461.413452</ele>
        <time>2020-08-18T08:57:20Z</time>
      </trkpt>
      <trkpt lat="44.87459" lon="5.46218">
        <ele>1461.36853</ele>
        <time>2020-08-18T08:57:25Z</time>
      </trkpt>
      <trkpt lat="44.87441" lon="5.46266">
        <ele>1463.042969</ele>
        <time>2020-08-18T08:57:34Z</time>
      </trkpt>
      <trkpt lat="44.87404" lon="5.4632">
        <ele>1465.797852</ele>
        <time>2020-08-18T08:57:46Z</time>
      </trkpt>
      <trkpt lat="44.87358" lon="5.46424">
        <ele>1471.360229</ele>
        <time>2020-08-18T08:58:07Z</time>
      </trkpt>
      <trkpt lat="44.87352" lon="5.46454">
        <ele>1471.983398</ele>
        <time>2020-08-18T08:58:12Z</time>
      </trkpt>
      <trkpt lat="44.87341" lon="5.46487">
        <ele>1473.103149</ele>
        <time>2020-08-18T08:58:18Z</time>
      </trkpt>
      <trkpt lat="44.87324" lon="5.4656">
        <ele>1473.571777</ele>
        <time>2020-08-18T08:58:29Z</time>
      </trkpt>
      <trkpt lat="44.8731" lon="5.46664">
        <ele>1476.8302</ele>
        <time>2020-08-18T08:58:43Z</time>
      </trkpt>
      <trkpt lat="44.87292" lon="5.46719">
        <ele>1477.994995</ele>
        <time>2020-08-18T08:58:51Z</time>
      </trkpt>
      <trkpt lat="44.87285" lon="5.46749">
        <ele>1478.28064</ele>
        <time>2020-08-18T08:58:55Z</time>
      </trkpt>
      <trkpt lat="44.87272" lon="5.46791">
        <ele>1478.859253</ele>
        <time>2020-08-18T08:59:01Z</time>
      </trkpt>
      <trkpt lat="44.87266" lon="5.46803">
        <ele>1479.00061</ele>
        <time>2020-08-18T08:59:03Z</time>
      </trkpt>
      <trkpt lat="44.87241" lon="5.46829">
        <ele>1479</ele>
        <time>2020-08-18T08:59:09Z</time>
      </trkpt>
      <trkpt lat="44.87203" lon="5.46885">
        <ele>1478.748779</ele>
        <time>2020-08-18T08:59:19Z</time>
      </trkpt>
      <trkpt lat="44.87183" lon="5.46899">
        <ele>1478.624146</ele>
        <time>2020-08-18T08:59:23Z</time>
      </trkpt>
      <trkpt lat="44.87166" lon="5.46923">
        <ele>1478.904785</ele>
        <time>2020-08-18T08:59:27Z</time>
      </trkpt>
      <trkpt lat="44.8716" lon="5.46937">
        <ele>1479.099243</ele>
        <time>2020-08-18T08:59:29Z</time>
      </trkpt>
      <trkpt lat="44.87118" lon="5.47094">
        <ele>1479</ele>
        <time>2020-08-18T08:59:51Z</time>
      </trkpt>
      <trkpt lat="44.87105" lon="5.47117">
        <ele>1479</ele>
        <time>2020-08-18T08:59:55Z</time>
      </trkpt>
      <trkpt lat="44.87038" lon="5.47185">
        <ele>1480.369507</ele>
        <time>2020-08-18T09:00:11Z</time>
      </trkpt>
      <trkpt lat="44.87" lon="5.47234">
        <ele>1482.944458</ele>
        <time>2020-08-18T09:00:22Z</time>
      </trkpt>
      <trkpt lat="44.86988" lon="5.4724">
        <ele>1483.341919</ele>
        <time>2020-08-18T09:00:25Z</time>
      </trkpt>
      <trkpt lat="44.86968" lon="5.47243">
        <ele>1483.86084</ele>
        <time>2020-08-18T09:00:29Z</time>
      </trkpt>
      <trkpt lat="44.8696" lon="5.4725">
        <ele>1484.326294</ele>
        <time>2020-08-18T09:00:31Z</time>
      </trkpt>
      <trkpt lat="44.86917" lon="5.47331">
        <ele>1488.53833</ele>
        <time>2020-08-18T09:00:46Z</time>
      </trkpt>
      <trkpt lat="44.86846" lon="5.47429">
        <ele>1494.032471</ele>
        <time>2020-08-18T09:01:07Z</time>
      </trkpt>
      <trkpt lat="44.86815" lon="5.47459">
        <ele>1496.034912</ele>
        <time>2020-08-18T09:01:15Z</time>
      </trkpt>
      <trkpt lat="44.86743" lon="5.47548">
        <ele>1499.891846</ele>
        <time>2020-08-18T09:01:37Z</time>
      </trkpt>
      <trkpt lat="44.86732" lon="5.47555">
        <ele>1500.563599</ele>
        <time>2020-08-18T09:01:40Z</time>
      </trkpt>
      <trkpt lat="44.86711" lon="5.47554">
        <ele>1500.74707</ele>
        <time>2020-08-18T09:01:50Z</time>
      </trkpt>
      <trkpt lat="44.86657" lon="5.47516">
        <ele>1498.167603</ele>
        <time>2020-08-18T09:02:03Z</time>
      </trkpt>
      <trkpt lat="44.86629" lon="5.47509">
        <ele>1497.497925</ele>
        <time>2020-08-18T09:02:09Z</time>
      </trkpt>
      <trkpt lat="44.86598" lon="5.47514">
        <ele>1497.611816</ele>
        <time>2020-08-18T09:02:15Z</time>
      </trkpt>
      <trkpt lat="44.86587" lon="5.4752">
        <ele>1497.81604</ele>
        <time>2020-08-18T09:02:17Z</time>
      </trkpt>
      <trkpt lat="44.86545" lon="5.47562">
        <ele>1499.070557</ele>
        <time>2020-08-18T09:02:28Z</time>
      </trkpt>
      <trkpt lat="44.86527" lon="5.47576">
        <ele>1498.904419</ele>
        <time>2020-08-18T09:02:32Z</time>
      </trkpt>
      <trkpt lat="44.86496" lon="5.47588">
        <ele>1499.685303</ele>
        <time>2020-08-18T09:02:39Z</time>
      </trkpt>
      <trkpt lat="44.86477" lon="5.47586">
        <ele>1500.005005</ele>
        <time>2020-08-18T09:02:43Z</time>
      </trkpt>
      <trkpt lat="44.86457" lon="5.47577">
        <ele>1500.058228</ele>
        <time>2020-08-18T09:02:48Z</time>
      </trkpt>
      <trkpt lat="44.86415" lon="5.47581">
        <ele>1500.012939</ele>
        <time>2020-08-18T09:03:00Z</time>
      </trkpt>
      <trkpt lat="44.86397" lon="5.47569">
        <ele>1500.030151</ele>
        <time>2020-08-18T09:03:04Z</time>
      </trkpt>
      <trkpt lat="44.86367" lon="5.47533">
        <ele>1500.137207</ele>
        <time>2020-08-18T09:03:12Z</time>
      </trkpt>
      <trkpt lat="44.86339" lon="5.47518">
        <ele>1500.062744</ele>
        <time>2020-08-18T09:03:18Z</time>
      </trkpt>
      <trkpt lat="44.86316" lon="5.47511">
        <ele>1500.080444</ele>
        <time>2020-08-18T09:03:22Z</time>
      </trkpt>
      <trkpt lat="44.86282" lon="5.47506">
        <ele>1501.952393</ele>
        <time>2020-08-18T09:03:30Z</time>
      </trkpt>
      <trkpt lat="44.86266" lon="5.47519">
        <ele>1503.31311</ele>
        <time>2020-08-18T09:03:34Z</time>
      </trkpt>
      <trkpt lat="44.86216" lon="5.47587">
        <ele>1508.047485</ele>
        <time>2020-08-18T09:03:49Z</time>
      </trkpt>
      <trkpt lat="44.86194" lon="5.47601">
        <ele>1509.829224</ele>
        <time>2020-08-18T09:03:55Z</time>
      </trkpt>
      <trkpt lat="44.86172" lon="5.47606">
        <ele>1511.165161</ele>
        <time>2020-08-18T09:04:00Z</time>
      </trkpt>
      <trkpt lat="44.8615" lon="5.47601">
        <ele>1512.262207</ele>
        <time>2020-08-18T09:04:05Z</time>
      </trkpt>
      <trkpt lat="44.86139" lon="5.47601">
        <ele>1512.911499</ele>
        <time>2020-08-18T09:04:08Z</time>
      </trkpt>
      <trkpt lat="44.86127" lon="5.47606">
        <ele>1513.555176</ele>
        <time>2020-08-18T09:04:11Z</time>
      </trkpt>
      <trkpt lat="44.86099" lon="5.47639">
        <ele>1514.918701</ele>
        <time>2020-08-18T09:04:20Z</time>
      </trkpt>
      <trkpt lat="44.8608" lon="5.47652">
        <ele>1515.723999</ele>
        <time>2020-08-18T09:04:27Z</time>
      </trkpt>
      <trkpt lat="44.8604" lon="5.47662">
        <ele>1517.415039</ele>
        <time>2020-08-18T09:04:39Z</time>
      </trkpt>
      <trkpt lat="44.85998" lon="5.47682">
        <ele>1518.672852</ele>
        <time>2020-08-18T09:04:51Z</time>
      </trkpt>
      <trkpt lat="44.85974" lon="5.47679">
        <ele>1519.081299</ele>
        <time>2020-08-18T09:04:57Z</time>
      </trkpt>
      <trkpt lat="44.8592" lon="5.4769">
        <ele>1519.05249</ele>
        <time>2020-08-18T09:05:12Z</time>
      </trkpt>
      <trkpt lat="44.85887" lon="5.47705">
        <ele>1519.581055</ele>
        <time>2020-08-18T09:05:21Z</time>
      </trkpt>
      <trkpt lat="44.85863" lon="5.47708">
        <ele>1520.724121</ele>
        <time>2020-08-18T09:05:27Z</time>
      </trkpt>
      <trkpt lat="44.85829" lon="5.47704">
        <ele>1522.499878</ele>
        <time>2020-08-18T09:05:36Z</time>
      </trkpt>
      <trkpt lat="44.85805" lon="5.47696">
        <ele>1524.081055</ele>
        <time>2020-08-18T09:05:42Z</time>
      </trkpt>
      <trkpt lat="44.8576" lon="5.47692">
        <ele>1527.102539</ele>
        <time>2020-08-18T09:05:54Z</time>
      </trkpt>
      <trkpt lat="44.85725" lon="5.47684">
        <ele>1529.078125</ele>
        <time>2020-08-18T09:06:03Z</time>
      </trkpt>
      <trkpt lat="44.8568" lon="5.47694">
        <ele>1531.272095</ele>
        <time>2020-08-18T09:06:15Z</time>
      </trkpt>
      <trkpt lat="44.85626" lon="5.4773">
        <ele>1533.719971</ele>
        <time>2020-08-18T09:06:30Z</time>
      </trkpt>
      <trkpt lat="44.85567" lon="5.47787">
        <ele>1536.285645</ele>
        <time>2020-08-18T09:07:30Z</time>
      </trkpt>
      <trkpt lat="44.85558" lon="5.47791">
        <ele>1536.637329</ele>
        <time>2020-08-18T09:07:33Z</time>
      </trkpt>
      <trkpt lat="44.85526" lon="5.47787">
        <ele>1538.030029</ele>
        <time>2020-08-18T09:07:42Z</time>
      </trkpt>
      <trkpt lat="44.85487" lon="5.47796">
        <ele>1538.723755</ele>
        <time>2020-08-18T09:07:54Z</time>
      </trkpt>
      <trkpt lat="44.85437" lon="5.47799">
        <ele>1540.8125</ele>
        <time>2020-08-18T09:08:10Z</time>
      </trkpt>
      <trkpt lat="44.85429" lon="5.47805">
        <ele>1541.212524</ele>
        <time>2020-08-18T09:08:13Z</time>
      </trkpt>
      <trkpt lat="44.85415" lon="5.47824">
        <ele>1541.803711</ele>
        <time>2020-08-18T09:08:19Z</time>
      </trkpt>
      <trkpt lat="44.85397" lon="5.47836">
        <ele>1542.732422</ele>
        <time>2020-08-18T09:08:25Z</time>
      </trkpt>
      <trkpt lat="44.85379" lon="5.47841">
        <ele>1543.869995</ele>
        <time>2020-08-18T09:08:31Z</time>
      </trkpt>
      <trkpt lat="44.85325" lon="5.47845">
        <ele>1547.017578</ele>
        <time>2020-08-18T09:08:49Z</time>
      </trkpt>
      <trkpt lat="44.85274" lon="5.47832">
        <ele>1548.576294</ele>
        <time>2020-08-18T09:09:05Z</time>
      </trkpt>
      <trkpt lat="44.85245" lon="5.47831">
        <ele>1548.974609</ele>
        <time>2020-08-18T09:09:14Z</time>
      </trkpt>
      <trkpt lat="44.85201" lon="5.47841">
        <ele>1549.541992</ele>
        <time>2020-08-18T09:09:27Z</time>
      </trkpt>
      <trkpt lat="44.85184" lon="5.47855">
        <ele>1550.175659</ele>
        <time>2020-08-18T09:09:31Z</time>
      </trkpt>
      <trkpt lat="44.8516" lon="5.47865">
        <ele>1550.737549</ele>
        <time>2020-08-18T09:09:35Z</time>
      </trkpt>
      <trkpt lat="44.85138" lon="5.47866">
        <ele>1551.242554</ele>
        <time>2020-08-18T09:09:39Z</time>
      </trkpt>
      <trkpt lat="44.85077" lon="5.47837">
        <ele>1552.201294</ele>
        <time>2020-08-18T09:09:57Z</time>
      </trkpt>
      <trkpt lat="44.85031" lon="5.47803">
        <ele>1553.063965</ele>
        <time>2020-08-18T09:10:12Z</time>
      </trkpt>
      <trkpt lat="44.85021" lon="5.4781">
        <ele>1553.30542</ele>
        <time>2020-08-18T09:10:16Z</time>
      </trkpt>
      <trkpt lat="44.85006" lon="5.47866">
        <ele>1554.300049</ele>
        <time>2020-08-18T09:10:29Z</time>
      </trkpt>
      <trkpt lat="44.85" lon="5.47878">
        <ele>1554.599976</ele>
        <time>2020-08-18T09:10:32Z</time>
      </trkpt>
      <trkpt lat="44.8499" lon="5.47889">
        <ele>1555.146729</ele>
        <time>2020-08-18T09:10:35Z</time>
      </trkpt>
      <trkpt lat="44.8498" lon="5.47894">
        <ele>1555.402466</ele>
        <time>2020-08-18T09:10:38Z</time>
      </trkpt>
      <trkpt lat="44.84969" lon="5.47895">
        <ele>1555.44751</ele>
        <time>2020-08-18T09:10:42Z</time>
      </trkpt>
      <trkpt lat="44.84951" lon="5.47905">
        <ele>1555.80249</ele>
        <time>2020-08-18T09:10:48Z</time>
      </trkpt>
      <trkpt lat="44.84899" lon="5.47918">
        <ele>1555.445679</ele>
        <time>2020-08-18T09:11:04Z</time>
      </trkpt>
      <trkpt lat="44.84859" lon="5.47913">
        <ele>1555.692627</ele>
        <time>2020-08-18T09:11:30Z</time>
      </trkpt>
      <trkpt lat="44.84838" lon="5.47927">
        <ele>1555.557495</ele>
        <time>2020-08-18T09:12:34Z</time>
      </trkpt>
      <trkpt lat="44.84818" lon="5.47964">
        <ele>1556.117554</ele>
        <time>2020-08-18T09:12:46Z</time>
      </trkpt>
      <trkpt lat="44.84798" lon="5.47983">
        <ele>1556.90332</ele>
        <time>2020-08-18T09:12:53Z</time>
      </trkpt>
      <trkpt lat="44.84788" lon="5.47986">
        <ele>1557.220703</ele>
        <time>2020-08-18T09:12:56Z</time>
      </trkpt>
      <trkpt lat="44.84726" lon="5.47968">
        <ele>1558.288452</ele>
        <time>2020-08-18T09:13:11Z</time>
      </trkpt>
      <trkpt lat="44.84694" lon="5.47974">
        <ele>1558.584229</ele>
        <time>2020-08-18T09:13:20Z</time>
      </trkpt>
      <trkpt lat="44.84672" lon="5.47966">
        <ele>1558.943237</ele>
        <time>2020-08-18T09:13:25Z</time>
      </trkpt>
      <trkpt lat="44.84661" lon="5.47966">
        <ele>1559</ele>
        <time>2020-08-18T09:13:28Z</time>
      </trkpt>
      <trkpt lat="44.84625" lon="5.48006">
        <ele>1559</ele>
        <time>2020-08-18T09:13:39Z</time>
      </trkpt>
      <trkpt lat="44.84615" lon="5.48011">
        <ele>1559</ele>
        <time>2020-08-18T09:13:42Z</time>
      </trkpt>
      <trkpt lat="44.84573" lon="5.48018">
        <ele>1559.114014</ele>
        <time>2020-08-18T09:13:56Z</time>
      </trkpt>
      <trkpt lat="44.84543" lon="5.48038">
        <ele>1559.822998</ele>
        <time>2020-08-18T09:14:05Z</time>
      </trkpt>
      <trkpt lat="44.84532" lon="5.4804">
        <ele>1560.06604</ele>
        <time>2020-08-18T09:14:08Z</time>
      </trkpt>
      <trkpt lat="44.84475" lon="5.48077">
        <ele>1560.330444</ele>
        <time>2020-08-18T09:14:26Z</time>
      </trkpt>
      <trkpt lat="44.84464" lon="5.48081">
        <ele>1560.650391</ele>
        <time>2020-08-18T09:14:29Z</time>
      </trkpt>
      <trkpt lat="44.84427" lon="5.48107">
        <ele>1562.512451</ele>
        <time>2020-08-18T09:14:42Z</time>
      </trkpt>
      <trkpt lat="44.84414" lon="5.48134">
        <ele>1564.935059</ele>
        <time>2020-08-18T09:14:50Z</time>
      </trkpt>
      <trkpt lat="44.84397" lon="5.48186">
        <ele>1568.654785</ele>
        <time>2020-08-18T09:15:04Z</time>
      </trkpt>
      <trkpt lat="44.84361" lon="5.48341">
        <ele>1578.407471</ele>
        <time>2020-08-18T09:15:44Z</time>
      </trkpt>
      <trkpt lat="44.8436" lon="5.4837">
        <ele>1579.307495</ele>
        <time>2020-08-18T09:15:52Z</time>
      </trkpt>
      <trkpt lat="44.84358" lon="5.48383">
        <ele>1579.85498</ele>
        <time>2020-08-18T09:15:56Z</time>
      </trkpt>
      <trkpt lat="44.84348" lon="5.48409">
        <ele>1581.272461</ele>
        <time>2020-08-18T09:16:04Z</time>
      </trkpt>
      <trkpt lat="44.84331" lon="5.48417">
        <ele>1582.912476</ele>
        <time>2020-08-18T09:16:11Z</time>
      </trkpt>
      <trkpt lat="44.84309" lon="5.48417">
        <ele>1584.92749</ele>
        <time>2020-08-18T09:16:19Z</time>
      </trkpt>
      <trkpt lat="44.84298" lon="5.48412">
        <ele>1585.76001</ele>
        <time>2020-08-18T09:16:23Z</time>
      </trkpt>
      <trkpt lat="44.84237" lon="5.4837">
        <ele>1590.162598</ele>
        <time>2020-08-18T09:16:47Z</time>
      </trkpt>
      <trkpt lat="44.84196" lon="5.48359">
        <ele>1594.126343</ele>
        <time>2020-08-18T09:17:01Z</time>
      </trkpt>
      <trkpt lat="44.84164" lon="5.48364">
        <ele>1597.362793</ele>
        <time>2020-08-18T09:17:14Z</time>
      </trkpt>
      <trkpt lat="44.84144" lon="5.48357">
        <ele>1599.184692</ele>
        <time>2020-08-18T09:17:23Z</time>
      </trkpt>
      <trkpt lat="44.84125" lon="5.48358">
        <ele>1600.706055</ele>
        <time>2020-08-18T09:17:31Z</time>
      </trkpt>
      <trkpt lat="44.84096" lon="5.48353">
        <ele>1603.057617</ele>
        <time>2020-08-18T09:17:44Z</time>
      </trkpt>
      <trkpt lat="44.84066" lon="5.48354">
        <ele>1605.10376</ele>
        <time>2020-08-18T09:17:57Z</time>
      </trkpt>
      <trkpt lat="44.84056" lon="5.48349">
        <ele>1605.859985</ele>
        <time>2020-08-18T09:18:01Z</time>
      </trkpt>
      <trkpt lat="44.84046" lon="5.4834">
        <ele>1606.64502</ele>
        <time>2020-08-18T09:18:06Z</time>
      </trkpt>
      <trkpt lat="44.84018" lon="5.48329">
        <ele>1608.709961</ele>
        <time>2020-08-18T09:18:18Z</time>
      </trkpt>
      <trkpt lat="44.8398" lon="5.483">
        <ele>1611.804077</ele>
        <time>2020-08-18T09:18:35Z</time>
      </trkpt>
      <trkpt lat="44.83957" lon="5.48289">
        <ele>1613.774536</ele>
        <time>2020-08-18T09:18:43Z</time>
      </trkpt>
      <trkpt lat="44.83909" lon="5.48259">
        <ele>1619.474854</ele>
        <time>2020-08-18T09:19:01Z</time>
      </trkpt>
      <trkpt lat="44.83862" lon="5.4822">
        <ele>1623.456665</ele>
        <time>2020-08-18T09:19:17Z</time>
      </trkpt>
      <trkpt lat="44.83822" lon="5.48206">
        <ele>1626.062744</ele>
        <time>2020-08-18T09:19:29Z</time>
      </trkpt>
      <trkpt lat="44.8375" lon="5.48191">
        <ele>1629.242554</ele>
        <time>2020-08-18T09:19:50Z</time>
      </trkpt>
      <trkpt lat="44.83716" lon="5.48195">
        <ele>1630.00061</ele>
        <time>2020-08-18T09:19:59Z</time>
      </trkpt>
      <trkpt lat="44.83692" lon="5.48189">
        <ele>1630.003418</ele>
        <time>2020-08-18T09:20:05Z</time>
      </trkpt>
      <trkpt lat="44.83618" lon="5.48154">
        <ele>1628.481445</ele>
        <time>2020-08-18T09:20:26Z</time>
      </trkpt>
      <trkpt lat="44.83559" lon="5.48143">
        <ele>1627.397949</ele>
        <time>2020-08-18T09:20:41Z</time>
      </trkpt>
      <trkpt lat="44.83534" lon="5.48147">
        <ele>1627.406494</ele>
        <time>2020-08-18T09:20:47Z</time>
      </trkpt>
      <trkpt lat="44.83452" lon="5.4817">
        <ele>1627.761719</ele>
        <time>2020-08-18T09:21:08Z</time>
      </trkpt>
      <trkpt lat="44.83429" lon="5.48172">
        <ele>1627.152466</ele>
        <time>2020-08-18T09:21:14Z</time>
      </trkpt>
      <trkpt lat="44.83392" lon="5.4817">
        <ele>1625.494995</ele>
        <time>2020-08-18T09:21:23Z</time>
      </trkpt>
      <trkpt lat="44.83381" lon="5.48174">
        <ele>1625.214966</ele>
        <time>2020-08-18T09:21:26Z</time>
      </trkpt>
      <trkpt lat="44.83351" lon="5.48199">
        <ele>1625.148438</ele>
        <time>2020-08-18T09:21:35Z</time>
      </trkpt>
      <trkpt lat="44.83335" lon="5.48219">
        <ele>1625.765137</ele>
        <time>2020-08-18T09:21:41Z</time>
      </trkpt>
      <trkpt lat="44.83325" lon="5.48212">
        <ele>1625.024902</ele>
        <time>2020-08-18T09:21:56Z</time>
      </trkpt>
      <trkpt lat="44.83317" lon="5.48186">
        <ele>1622.74646</ele>
        <time>2020-08-18T09:22:00Z</time>
      </trkpt>
      <trkpt lat="44.83308" lon="5.48175">
        <ele>1621.703735</ele>
        <time>2020-08-18T09:22:03Z</time>
      </trkpt>
      <trkpt lat="44.83299" lon="5.4817">
        <ele>1621.580811</ele>
        <time>2020-08-18T09:22:06Z</time>
      </trkpt>
      <trkpt lat="44.83275" lon="5.48172">
        <ele>1622.304321</ele>
        <time>2020-08-18T09:22:12Z</time>
      </trkpt>
      <trkpt lat="44.83253" lon="5.48158">
        <ele>1622.119263</ele>
        <time>2020-08-18T09:22:18Z</time>
      </trkpt>
      <trkpt lat="44.83221" lon="5.48153">
        <ele>1622.5802</ele>
        <time>2020-08-18T09:22:25Z</time>
      </trkpt>
      <trkpt lat="44.83188" lon="5.48121">
        <ele>1620.849731</ele>
        <time>2020-08-18T09:22:35Z</time>
      </trkpt>
      <trkpt lat="44.83177" lon="5.48119">
        <ele>1620.708496</ele>
        <time>2020-08-18T09:22:37Z</time>
      </trkpt>
      <trkpt lat="44.83166" lon="5.48121">
        <ele>1620.706421</ele>
        <time>2020-08-18T09:22:39Z</time>
      </trkpt>
      <trkpt lat="44.83146" lon="5.48133">
        <ele>1620.776001</ele>
        <time>2020-08-18T09:22:44Z</time>
      </trkpt>
      <trkpt lat="44.83137" lon="5.48144">
        <ele>1620.869019</ele>
        <time>2020-08-18T09:22:47Z</time>
      </trkpt>
      <trkpt lat="44.83119" lon="5.48181">
        <ele>1621.566772</ele>
        <time>2020-08-18T09:22:56Z</time>
      </trkpt>
      <trkpt lat="44.83102" lon="5.48243">
        <ele>1621.927612</ele>
        <time>2020-08-18T09:23:08Z</time>
      </trkpt>
      <trkpt lat="44.83067" lon="5.48357">
        <ele>1620.259399</ele>
        <time>2020-08-18T09:23:23Z</time>
      </trkpt>
      <trkpt lat="44.83039" lon="5.48489">
        <ele>1620.876587</ele>
        <time>2020-08-18T09:23:39Z</time>
      </trkpt>
      <trkpt lat="44.83032" lon="5.48505">
        <ele>1620.387085</ele>
        <time>2020-08-18T09:23:42Z</time>
      </trkpt>
      <trkpt lat="44.83016" lon="5.48518">
        <ele>1620.812744</ele>
        <time>2020-08-18T09:23:48Z</time>
      </trkpt>
      <trkpt lat="44.82991" lon="5.48551">
        <ele>1623.306274</ele>
        <time>2020-08-18T09:23:57Z</time>
      </trkpt>
      <trkpt lat="44.8298" lon="5.48592">
        <ele>1627.596069</ele>
        <time>2020-08-18T09:24:07Z</time>
      </trkpt>
      <trkpt lat="44.82973" lon="5.48601">
        <ele>1628.251343</ele>
        <time>2020-08-18T09:24:10Z</time>
      </trkpt>
      <trkpt lat="44.82963" lon="5.48606">
        <ele>1627.714966</ele>
        <time>2020-08-18T09:24:13Z</time>
      </trkpt>
      <trkpt lat="44.82933" lon="5.4863">
        <ele>1626.432251</ele>
        <time>2020-08-18T09:24:22Z</time>
      </trkpt>
      <trkpt lat="44.82922" lon="5.48633">
        <ele>1624.645142</ele>
        <time>2020-08-18T09:24:24Z</time>
      </trkpt>
      <trkpt lat="44.82886" lon="5.4863">
        <ele>1618.580933</ele>
        <time>2020-08-18T09:24:30Z</time>
      </trkpt>
      <trkpt lat="44.8287" lon="5.48634">
        <ele>1617.802002</ele>
        <time>2020-08-18T09:24:32Z</time>
      </trkpt>
      <trkpt lat="44.82839" lon="5.48651">
        <ele>1617.204956</ele>
        <time>2020-08-18T09:24:36Z</time>
      </trkpt>
      <trkpt lat="44.82828" lon="5.48653">
        <ele>1617.224976</ele>
        <time>2020-08-18T09:24:38Z</time>
      </trkpt>
      <trkpt lat="44.82803" lon="5.48652">
        <ele>1616.692505</ele>
        <time>2020-08-18T09:24:44Z</time>
      </trkpt>
      <trkpt lat="44.82772" lon="5.48637">
        <ele>1615.033691</ele>
        <time>2020-08-18T09:24:53Z</time>
      </trkpt>
      <trkpt lat="44.82757" lon="5.48617">
        <ele>1613.891235</ele>
        <time>2020-08-18T09:24:59Z</time>
      </trkpt>
      <trkpt lat="44.82747" lon="5.48593">
        <ele>1613.127319</ele>
        <time>2020-08-18T09:25:05Z</time>
      </trkpt>
      <trkpt lat="44.82749" lon="5.48606">
        <ele>1613.565308</ele>
        <time>2020-08-18T09:25:13Z</time>
      </trkpt>
      <trkpt lat="44.82756" lon="5.48595">
        <ele>1612.891357</ele>
        <time>2020-08-18T09:42:07Z</time>
      </trkpt>
      <trkpt lat="44.82743" lon="5.48576">
        <ele>1612.795532</ele>
        <time>2020-08-18T09:42:20Z</time>
      </trkpt>
      <trkpt lat="44.82727" lon="5.48489">
        <ele>1612.910278</ele>
        <time>2020-08-18T09:42:34Z</time>
      </trkpt>
      <trkpt lat="44.82725" lon="5.48471">
        <ele>1612.734985</ele>
        <time>2020-08-18T09:42:37Z</time>
      </trkpt>
      <trkpt lat="44.82721" lon="5.48455">
        <ele>1612.250732</ele>
        <time>2020-08-18T09:42:40Z</time>
      </trkpt>
      <trkpt lat="44.82707" lon="5.48353">
        <ele>1603.797852</ele>
        <time>2020-08-18T09:42:57Z</time>
      </trkpt>
      <trkpt lat="44.82712" lon="5.4834">
        <ele>1602.129639</ele>
        <time>2020-08-18T09:43:00Z</time>
      </trkpt>
      <trkpt lat="44.82725" lon="5.48285">
        <ele>1602.535522</ele>
        <time>2020-08-18T09:43:09Z</time>
      </trkpt>
      <trkpt lat="44.8273" lon="5.48211">
        <ele>1604.888794</ele>
        <time>2020-08-18T09:43:27Z</time>
      </trkpt>
      <trkpt lat="44.82735" lon="5.482">
        <ele>1605.165039</ele>
        <time>2020-08-18T09:43:30Z</time>
      </trkpt>
      <trkpt lat="44.82744" lon="5.48195">
        <ele>1605.456055</ele>
        <time>2020-08-18T09:43:34Z</time>
      </trkpt>
      <trkpt lat="44.82759" lon="5.48143">
        <ele>1607.197632</ele>
        <time>2020-08-18T09:43:50Z</time>
      </trkpt>
      <trkpt lat="44.82769" lon="5.48137">
        <ele>1607.790527</ele>
        <time>2020-08-18T09:43:55Z</time>
      </trkpt>
      <trkpt lat="44.8278" lon="5.48115">
        <ele>1609.530029</ele>
        <time>2020-08-18T09:44:09Z</time>
      </trkpt>
      <trkpt lat="44.8279" lon="5.48113">
        <ele>1609.89502</ele>
        <time>2020-08-18T09:44:15Z</time>
      </trkpt>
      <trkpt lat="44.828" lon="5.48115">
        <ele>1610.030029</ele>
        <time>2020-08-18T09:44:22Z</time>
      </trkpt>
      <trkpt lat="44.82808" lon="5.48106">
        <ele>1610.819946</ele>
        <time>2020-08-18T09:44:28Z</time>
      </trkpt>
      <trkpt lat="44.82846" lon="5.4808">
        <ele>1612.863647</ele>
        <time>2020-08-18T09:44:44Z</time>
      </trkpt>
      <trkpt lat="44.82869" lon="5.48069">
        <ele>1613.469604</ele>
        <time>2020-08-18T09:44:52Z</time>
      </trkpt>
      <trkpt lat="44.82912" lon="5.48034">
        <ele>1614.52002</ele>
        <time>2020-08-18T09:45:05Z</time>
      </trkpt>
      <trkpt lat="44.82924" lon="5.48009">
        <ele>1615.680786</ele>
        <time>2020-08-18T09:46:30Z</time>
      </trkpt>
      <trkpt lat="44.82924" lon="5.47996">
        <ele>1616.259644</ele>
        <time>2020-08-18T09:46:34Z</time>
      </trkpt>
      <trkpt lat="44.8293" lon="5.47967">
        <ele>1617.528442</ele>
        <time>2020-08-18T09:46:45Z</time>
      </trkpt>
      <trkpt lat="44.82923" lon="5.47941">
        <ele>1618.395386</ele>
        <time>2020-08-18T09:46:56Z</time>
      </trkpt>
      <trkpt lat="44.82917" lon="5.479">
        <ele>1619.686523</ele>
        <time>2020-08-18T09:47:16Z</time>
      </trkpt>
      <trkpt lat="44.82918" lon="5.47873">
        <ele>1619.960938</ele>
        <time>2020-08-18T09:47:27Z</time>
      </trkpt>
      <trkpt lat="44.82921" lon="5.47861">
        <ele>1619.942749</ele>
        <time>2020-08-18T09:47:33Z</time>
      </trkpt>
      <trkpt lat="44.82918" lon="5.47847">
        <ele>1619.991211</ele>
        <time>2020-08-18T09:47:38Z</time>
      </trkpt>
      <trkpt lat="44.82917" lon="5.47833">
        <ele>1619.999146</ele>
        <time>2020-08-18T09:47:42Z</time>
      </trkpt>
      <trkpt lat="44.82921" lon="5.47818">
        <ele>1620.457153</ele>
        <time>2020-08-18T09:47:46Z</time>
      </trkpt>
      <trkpt lat="44.82923" lon="5.47778">
        <ele>1622.265015</ele>
        <time>2020-08-18T09:48:01Z</time>
      </trkpt>
      <trkpt lat="44.82919" lon="5.47749">
        <ele>1623.776245</ele>
        <time>2020-08-18T09:48:11Z</time>
      </trkpt>
      <trkpt lat="44.8294" lon="5.4767">
        <ele>1626.192871</ele>
        <time>2020-08-18T09:48:38Z</time>
      </trkpt>
      <trkpt lat="44.82949" lon="5.47629">
        <ele>1628.867065</ele>
        <time>2020-08-18T09:48:53Z</time>
      </trkpt>
      <trkpt lat="44.82949" lon="5.47601">
        <ele>1631.93457</ele>
        <time>2020-08-18T09:49:03Z</time>
      </trkpt>
      <trkpt lat="44.8296" lon="5.47564">
        <ele>1635.721558</ele>
        <time>2020-08-18T09:49:19Z</time>
      </trkpt>
      <trkpt lat="44.82964" lon="5.47536">
        <ele>1638.666748</ele>
        <time>2020-08-18T09:49:31Z</time>
      </trkpt>
      <trkpt lat="44.82973" lon="5.47512">
        <ele>1641.339844</ele>
        <time>2020-08-18T09:49:42Z</time>
      </trkpt>
      <trkpt lat="44.82975" lon="5.47499">
        <ele>1642.589722</ele>
        <time>2020-08-18T09:49:47Z</time>
      </trkpt>
      <trkpt lat="44.82973" lon="5.4747">
        <ele>1645.319336</ele>
        <time>2020-08-18T09:49:59Z</time>
      </trkpt>
      <trkpt lat="44.82975" lon="5.47442">
        <ele>1648.064941</ele>
        <time>2020-08-18T09:50:09Z</time>
      </trkpt>
      <trkpt lat="44.82962" lon="5.47344">
        <ele>1656.370972</ele>
        <time>2020-08-18T09:50:44Z</time>
      </trkpt>
      <trkpt lat="44.82965" lon="5.47299">
        <ele>1660.603149</ele>
        <time>2020-08-18T09:50:59Z</time>
      </trkpt>
      <trkpt lat="44.82971" lon="5.47272">
        <ele>1663.225342</ele>
        <time>2020-08-18T09:51:08Z</time>
      </trkpt>
      <trkpt lat="44.83004" lon="5.47185">
        <ele>1669.060425</ele>
        <time>2020-08-18T09:51:38Z</time>
      </trkpt>
      <trkpt lat="44.83012" lon="5.47146">
        <ele>1669.984253</ele>
        <time>2020-08-18T09:51:50Z</time>
      </trkpt>
      <trkpt lat="44.83012" lon="5.47117">
        <ele>1671.157715</ele>
        <time>2020-08-18T09:51:59Z</time>
      </trkpt>
      <trkpt lat="44.83009" lon="5.47103">
        <ele>1671.972168</ele>
        <time>2020-08-18T09:52:03Z</time>
      </trkpt>
      <trkpt lat="44.83009" lon="5.47075">
        <ele>1673.057251</ele>
        <time>2020-08-18T09:52:11Z</time>
      </trkpt>
      <trkpt lat="44.83015" lon="5.47028">
        <ele>1672.838745</ele>
        <time>2020-08-18T09:52:24Z</time>
      </trkpt>
      <trkpt lat="44.83042" lon="5.46975">
        <ele>1668.776245</ele>
        <time>2020-08-18T09:52:35Z</time>
      </trkpt>
      <trkpt lat="44.8305" lon="5.4693">
        <ele>1666.36792</ele>
        <time>2020-08-18T09:52:43Z</time>
      </trkpt>
      <trkpt lat="44.83059" lon="5.46904">
        <ele>1664.24646</ele>
        <time>2020-08-18T09:52:48Z</time>
      </trkpt>
      <trkpt lat="44.83065" lon="5.46877">
        <ele>1662.543457</ele>
        <time>2020-08-18T09:52:54Z</time>
      </trkpt>
      <trkpt lat="44.83091" lon="5.46823">
        <ele>1657.538208</ele>
        <time>2020-08-18T09:53:04Z</time>
      </trkpt>
      <trkpt lat="44.8313" lon="5.46728">
        <ele>1648.54187</ele>
        <time>2020-08-18T09:53:16Z</time>
      </trkpt>
      <trkpt lat="44.83133" lon="5.46712">
        <ele>1647.385254</ele>
        <time>2020-08-18T09:53:18Z</time>
      </trkpt>
      <trkpt lat="44.83131" lon="5.46697">
        <ele>1646.502197</ele>
        <time>2020-08-18T09:53:21Z</time>
      </trkpt>
      <trkpt lat="44.83126" lon="5.46685">
        <ele>1645.814941</ele>
        <time>2020-08-18T09:53:24Z</time>
      </trkpt>
      <trkpt lat="44.83117" lon="5.46651">
        <ele>1643.621216</ele>
        <time>2020-08-18T09:53:29Z</time>
      </trkpt>
      <trkpt lat="44.83116" lon="5.46637">
        <ele>1642.614136</ele>
        <time>2020-08-18T09:53:31Z</time>
      </trkpt>
      <trkpt lat="44.83118" lon="5.46606">
        <ele>1640.722656</ele>
        <time>2020-08-18T09:53:36Z</time>
      </trkpt>
      <trkpt lat="44.83128" lon="5.46565">
        <ele>1637.674194</ele>
        <time>2020-08-18T09:53:42Z</time>
      </trkpt>
      <trkpt lat="44.83135" lon="5.46515">
        <ele>1634.227173</ele>
        <time>2020-08-18T09:53:48Z</time>
      </trkpt>
      <trkpt lat="44.83137" lon="5.46452">
        <ele>1627.24707</ele>
        <time>2020-08-18T09:53:58Z</time>
      </trkpt>
      <trkpt lat="44.83152" lon="5.46396">
        <ele>1620.757935</ele>
        <time>2020-08-18T09:54:04Z</time>
      </trkpt>
      <trkpt lat="44.83161" lon="5.46378">
        <ele>1618.206665</ele>
        <time>2020-08-18T09:54:06Z</time>
      </trkpt>
      <trkpt lat="44.83177" lon="5.46324">
        <ele>1612.439697</ele>
        <time>2020-08-18T09:54:12Z</time>
      </trkpt>
      <trkpt lat="44.83199" lon="5.46226">
        <ele>1602.790405</ele>
        <time>2020-08-18T09:54:25Z</time>
      </trkpt>
      <trkpt lat="44.8322" lon="5.46174">
        <ele>1598.024048</ele>
        <time>2020-08-18T09:54:30Z</time>
      </trkpt>
      <trkpt lat="44.83235" lon="5.46118">
        <ele>1593.685791</ele>
        <time>2020-08-18T09:54:35Z</time>
      </trkpt>
      <trkpt lat="44.83243" lon="5.46076">
        <ele>1591.142212</ele>
        <time>2020-08-18T09:54:39Z</time>
      </trkpt>
      <trkpt lat="44.83257" lon="5.4602">
        <ele>1588.762451</ele>
        <time>2020-08-18T09:54:45Z</time>
      </trkpt>
      <trkpt lat="44.83263" lon="5.45971">
        <ele>1586.146851</ele>
        <time>2020-08-18T09:54:51Z</time>
      </trkpt>
      <trkpt lat="44.83265" lon="5.45919">
        <ele>1583.188232</ele>
        <time>2020-08-18T09:54:57Z</time>
      </trkpt>
      <trkpt lat="44.83277" lon="5.45841">
        <ele>1578.477539</ele>
        <time>2020-08-18T09:55:05Z</time>
      </trkpt>
      <trkpt lat="44.83278" lon="5.45777">
        <ele>1576.846191</ele>
        <time>2020-08-18T09:55:11Z</time>
      </trkpt>
      <trkpt lat="44.83269" lon="5.45715">
        <ele>1574.825684</ele>
        <time>2020-08-18T09:55:17Z</time>
      </trkpt>
      <trkpt lat="44.83263" lon="5.45694">
        <ele>1573.679077</ele>
        <time>2020-08-18T09:55:19Z</time>
      </trkpt>
      <trkpt lat="44.83249" lon="5.45658">
        <ele>1570.936157</ele>
        <time>2020-08-18T09:55:23Z</time>
      </trkpt>
      <trkpt lat="44.83234" lon="5.45611">
        <ele>1568.334961</ele>
        <time>2020-08-18T09:55:31Z</time>
      </trkpt>
      <trkpt lat="44.83217" lon="5.45568">
        <ele>1565.435425</ele>
        <time>2020-08-18T09:55:38Z</time>
      </trkpt>
      <trkpt lat="44.83203" lon="5.45545">
        <ele>1563.806396</ele>
        <time>2020-08-18T09:55:43Z</time>
      </trkpt>
      <trkpt lat="44.8316" lon="5.45519">
        <ele>1562.852783</ele>
        <time>2020-08-18T09:55:55Z</time>
      </trkpt>
      <trkpt lat="44.83137" lon="5.4551">
        <ele>1562.287842</ele>
        <time>2020-08-18T09:56:01Z</time>
      </trkpt>
      <trkpt lat="44.83084" lon="5.45481">
        <ele>1558.64502</ele>
        <time>2020-08-18T09:56:11Z</time>
      </trkpt>
      <trkpt lat="44.8306" lon="5.45462">
        <ele>1555.074951</ele>
        <time>2020-08-18T09:56:15Z</time>
      </trkpt>
      <trkpt lat="44.83048" lon="5.45449">
        <ele>1552.674561</ele>
        <time>2020-08-18T09:56:17Z</time>
      </trkpt>
      <trkpt lat="44.83029" lon="5.45421">
        <ele>1549.330444</ele>
        <time>2020-08-18T09:56:21Z</time>
      </trkpt>
      <trkpt lat="44.83009" lon="5.45366">
        <ele>1546.498657</ele>
        <time>2020-08-18T09:56:29Z</time>
      </trkpt>
      <trkpt lat="44.82965" lon="5.45278">
        <ele>1552.882568</ele>
        <time>2020-08-18T09:56:52Z</time>
      </trkpt>
      <trkpt lat="44.82961" lon="5.4525">
        <ele>1557.31189</ele>
        <time>2020-08-18T09:57:01Z</time>
      </trkpt>
      <trkpt lat="44.82964" lon="5.45223">
        <ele>1562.683228</ele>
        <time>2020-08-18T09:57:10Z</time>
      </trkpt>
      <trkpt lat="44.82997" lon="5.45165">
        <ele>1572.748535</ele>
        <time>2020-08-18T09:57:40Z</time>
      </trkpt>
      <trkpt lat="44.83026" lon="5.45127">
        <ele>1578.323608</ele>
        <time>2020-08-18T09:58:06Z</time>
      </trkpt>
      <trkpt lat="44.83049" lon="5.45084">
        <ele>1586.164673</ele>
        <time>2020-08-18T09:58:32Z</time>
      </trkpt>
      <trkpt lat="44.83095" lon="5.45013">
        <ele>1593.241699</ele>
        <time>2020-08-18T09:59:10Z</time>
      </trkpt>
      <trkpt lat="44.83099" lon="5.45002">
        <ele>1594.71936</ele>
        <time>2020-08-18T09:59:15Z</time>
      </trkpt>
      <trkpt lat="44.83104" lon="5.44975">
        <ele>1598.593018</ele>
        <time>2020-08-18T09:59:28Z</time>
      </trkpt>
      <trkpt lat="44.83115" lon="5.44951">
        <ele>1599.389648</ele>
        <time>2020-08-18T09:59:39Z</time>
      </trkpt>
      <trkpt lat="44.83126" lon="5.44914">
        <ele>1601.13501</ele>
        <time>2020-08-18T09:59:53Z</time>
      </trkpt>
      <trkpt lat="44.83136" lon="5.44823">
        <ele>1605.580688</ele>
        <time>2020-08-18T10:00:22Z</time>
      </trkpt>
      <trkpt lat="44.83133" lon="5.4481">
        <ele>1607.336182</ele>
        <time>2020-08-18T10:00:27Z</time>
      </trkpt>
      <trkpt lat="44.83134" lon="5.44798">
        <ele>1609.180542</ele>
        <time>2020-08-18T10:00:32Z</time>
      </trkpt>
      <trkpt lat="44.83149" lon="5.44778">
        <ele>1611.161743</ele>
        <time>2020-08-18T10:00:44Z</time>
      </trkpt>
      <trkpt lat="44.83168" lon="5.44726">
        <ele>1614.879883</ele>
        <time>2020-08-18T10:01:05Z</time>
      </trkpt>
      <trkpt lat="44.8318" lon="5.44703">
        <ele>1613.845337</ele>
        <time>2020-08-18T10:01:12Z</time>
      </trkpt>
      <trkpt lat="44.8319" lon="5.44675">
        <ele>1613.765625</ele>
        <time>2020-08-18T10:01:18Z</time>
      </trkpt>
      <trkpt lat="44.83195" lon="5.44629">
        <ele>1616.284668</ele>
        <time>2020-08-18T10:01:28Z</time>
      </trkpt>
      <trkpt lat="44.83187" lon="5.44558">
        <ele>1621.154419</ele>
        <time>2020-08-18T10:01:54Z</time>
      </trkpt>
      <trkpt lat="44.83197" lon="5.4452">
        <ele>1622.506836</ele>
        <time>2020-08-18T10:02:09Z</time>
      </trkpt>
      <trkpt lat="44.83197" lon="5.44461">
        <ele>1626.592163</ele>
        <time>2020-08-18T10:02:29Z</time>
      </trkpt>
      <trkpt lat="44.83202" lon="5.44418">
        <ele>1628.928955</ele>
        <time>2020-08-18T10:02:41Z</time>
      </trkpt>
      <trkpt lat="44.83191" lon="5.44346">
        <ele>1633.432007</ele>
        <time>2020-08-18T10:03:01Z</time>
      </trkpt>
      <trkpt lat="44.83193" lon="5.44332">
        <ele>1632.960449</ele>
        <time>2020-08-18T10:03:05Z</time>
      </trkpt>
      <trkpt lat="44.83198" lon="5.44321">
        <ele>1631.962524</ele>
        <time>2020-08-18T10:03:09Z</time>
      </trkpt>
      <trkpt lat="44.83205" lon="5.44277">
        <ele>1629.150024</ele>
        <time>2020-08-18T10:03:19Z</time>
      </trkpt>
      <trkpt lat="44.83203" lon="5.44214">
        <ele>1627.863403</ele>
        <time>2020-08-18T10:03:31Z</time>
      </trkpt>
      <trkpt lat="44.83206" lon="5.44201">
        <ele>1627.744507</ele>
        <time>2020-08-18T10:03:34Z</time>
      </trkpt>
      <trkpt lat="44.83208" lon="5.44172">
        <ele>1628.601929</ele>
        <time>2020-08-18T10:03:42Z</time>
      </trkpt>
      <trkpt lat="44.83218" lon="5.44169">
        <ele>1627.993652</ele>
        <time>2020-08-18T10:03:59Z</time>
      </trkpt>
      <trkpt lat="44.83222" lon="5.44155">
        <ele>1629.234253</ele>
        <time>2020-08-18T10:04:06Z</time>
      </trkpt>
      <trkpt lat="44.83227" lon="5.44112">
        <ele>1634.110718</ele>
        <time>2020-08-18T10:04:23Z</time>
      </trkpt>
      <trkpt lat="44.83227" lon="5.44057">
        <ele>1639.378906</ele>
        <time>2020-08-18T10:04:44Z</time>
      </trkpt>
      <trkpt lat="44.83186" lon="5.44056">
        <ele>1640.615112</ele>
        <time>2020-08-18T10:09:34Z</time>
      </trkpt>
      <trkpt lat="44.83165" lon="5.44052">
        <ele>1642.285156</ele>
        <time>2020-08-18T10:09:43Z</time>
      </trkpt>
      <trkpt lat="44.8316" lon="5.4404">
        <ele>1643.243774</ele>
        <time>2020-08-18T10:09:47Z</time>
      </trkpt>
      <trkpt lat="44.83158" lon="5.44012">
        <ele>1644.653198</ele>
        <time>2020-08-18T10:09:55Z</time>
      </trkpt>
      <trkpt lat="44.83154" lon="5.43998">
        <ele>1645.261475</ele>
        <time>2020-08-18T10:10:00Z</time>
      </trkpt>
      <trkpt lat="44.83127" lon="5.4396">
        <ele>1647.55249</ele>
        <time>2020-08-18T10:10:16Z</time>
      </trkpt>
      <trkpt lat="44.83108" lon="5.43914">
        <ele>1653.437134</ele>
        <time>2020-08-18T10:10:35Z</time>
      </trkpt>
      <trkpt lat="44.83059" lon="5.43847">
        <ele>1663.770874</ele>
        <time>2020-08-18T10:11:16Z</time>
      </trkpt>
      <trkpt lat="44.83043" lon="5.4383">
        <ele>1665.11438</ele>
        <time>2020-08-18T10:11:29Z</time>
      </trkpt>
      <trkpt lat="44.8301" lon="5.4378">
        <ele>1671.359985</ele>
        <time>2020-08-18T10:12:00Z</time>
      </trkpt>
      <trkpt lat="44.82993" lon="5.43767">
        <ele>1673.984985</ele>
        <time>2020-08-18T10:12:10Z</time>
      </trkpt>
      <trkpt lat="44.82984" lon="5.43763">
        <ele>1675.4375</ele>
        <time>2020-08-18T10:12:15Z</time>
      </trkpt>
      <trkpt lat="44.82965" lon="5.43762">
        <ele>1678.412476</ele>
        <time>2020-08-18T10:12:26Z</time>
      </trkpt>
      <trkpt lat="44.82944" lon="5.43765">
        <ele>1681.5625</ele>
        <time>2020-08-18T10:12:38Z</time>
      </trkpt>
      <trkpt lat="44.82925" lon="5.43762">
        <ele>1684.586792</ele>
        <time>2020-08-18T10:12:50Z</time>
      </trkpt>
      <trkpt lat="44.82916" lon="5.43755">
        <ele>1686.324585</ele>
        <time>2020-08-18T10:12:56Z</time>
      </trkpt>
      <trkpt lat="44.829" lon="5.43737">
        <ele>1690.463257</ele>
        <time>2020-08-18T10:13:07Z</time>
      </trkpt>
      <trkpt lat="44.82892" lon="5.43734">
        <ele>1692.193604</ele>
        <time>2020-08-18T10:13:12Z</time>
      </trkpt>
      <trkpt lat="44.82882" lon="5.43735">
        <ele>1693.463013</ele>
        <time>2020-08-18T10:13:18Z</time>
      </trkpt>
      <trkpt lat="44.82852" lon="5.4373">
        <ele>1698.018677</ele>
        <time>2020-08-18T10:13:36Z</time>
      </trkpt>
      <trkpt lat="44.82816" lon="5.43711">
        <ele>1690.924683</ele>
        <time>2020-08-18T10:14:15Z</time>
      </trkpt>
      <trkpt lat="44.82804" lon="5.43738">
        <ele>1686.1698</ele>
        <time>2020-08-18T10:49:21Z</time>
      </trkpt>
      <trkpt lat="44.82823" lon="5.43688">
        <ele>1690.908325</ele>
        <time>2020-08-18T10:57:25Z</time>
      </trkpt>
      <trkpt lat="44.82831" lon="5.43613">
        <ele>1680.755127</ele>
        <time>2020-08-18T10:57:45Z</time>
      </trkpt>
      <trkpt lat="44.82831" lon="5.43584">
        <ele>1670.856812</ele>
        <time>2020-08-18T10:57:51Z</time>
      </trkpt>
      <trkpt lat="44.82834" lon="5.4357">
        <ele>1665.558228</ele>
        <time>2020-08-18T10:57:54Z</time>
      </trkpt>
      <trkpt lat="44.8285" lon="5.43547">
        <ele>1670.055542</ele>
        <time>2020-08-18T10:58:00Z</time>
      </trkpt>
      <trkpt lat="44.82857" lon="5.43532">
        <ele>1670.766235</ele>
        <time>2020-08-18T10:58:03Z</time>
      </trkpt>
      <trkpt lat="44.82872" lon="5.43509">
        <ele>1666.08252</ele>
        <time>2020-08-18T10:58:08Z</time>
      </trkpt>
      <trkpt lat="44.82876" lon="5.43496">
        <ele>1663.457642</ele>
        <time>2020-08-18T10:58:10Z</time>
      </trkpt>
      <trkpt lat="44.82877" lon="5.43467">
        <ele>1656.999634</ele>
        <time>2020-08-18T10:58:14Z</time>
      </trkpt>
      <trkpt lat="44.82872" lon="5.43412">
        <ele>1657.655396</ele>
        <time>2020-08-18T10:58:20Z</time>
      </trkpt>
      <trkpt lat="44.82858" lon="5.43304">
        <ele>1649.139404</ele>
        <time>2020-08-18T10:58:32Z</time>
      </trkpt>
      <trkpt lat="44.8285" lon="5.43267">
        <ele>1643.244751</ele>
        <time>2020-08-18T10:58:36Z</time>
      </trkpt>
      <trkpt lat="44.8284" lon="5.43198">
        <ele>1638.402466</ele>
        <time>2020-08-18T10:58:44Z</time>
      </trkpt>
      <trkpt lat="44.82818" lon="5.43148">
        <ele>1634.224976</ele>
        <time>2020-08-18T10:58:52Z</time>
      </trkpt>
      <trkpt lat="44.8281" lon="5.4312">
        <ele>1630.034424</ele>
        <time>2020-08-18T10:58:56Z</time>
      </trkpt>
      <trkpt lat="44.82787" lon="5.42983">
        <ele>1602.311279</ele>
        <time>2020-08-18T10:59:14Z</time>
      </trkpt>
      <trkpt lat="44.82776" lon="5.42896">
        <ele>1593.942139</ele>
        <time>2020-08-18T10:59:22Z</time>
      </trkpt>
      <trkpt lat="44.82767" lon="5.42847">
        <ele>1592.668701</ele>
        <time>2020-08-18T10:59:30Z</time>
      </trkpt>
      <trkpt lat="44.82768" lon="5.4282">
        <ele>1593.896362</ele>
        <time>2020-08-18T10:59:38Z</time>
      </trkpt>
      <trkpt lat="44.82774" lon="5.42793">
        <ele>1595.512329</ele>
        <time>2020-08-18T10:59:47Z</time>
      </trkpt>
      <trkpt lat="44.82787" lon="5.42706">
        <ele>1605.054321</ele>
        <time>2020-08-18T11:00:16Z</time>
      </trkpt>
      <trkpt lat="44.82777" lon="5.42653">
        <ele>1605.10022</ele>
        <time>2020-08-18T11:00:36Z</time>
      </trkpt>
      <trkpt lat="44.82767" lon="5.42583">
        <ele>1602.216187</ele>
        <time>2020-08-18T11:00:59Z</time>
      </trkpt>
      <trkpt lat="44.82765" lon="5.42552">
        <ele>1602.012085</ele>
        <time>2020-08-18T11:01:08Z</time>
      </trkpt>
      <trkpt lat="44.82754" lon="5.42519">
        <ele>1603.065674</ele>
        <time>2020-08-18T11:01:15Z</time>
      </trkpt>
      <trkpt lat="44.82754" lon="5.42474">
        <ele>1602.85437</ele>
        <time>2020-08-18T11:01:22Z</time>
      </trkpt>
      <trkpt lat="44.82748" lon="5.42415">
        <ele>1596.120972</ele>
        <time>2020-08-18T11:01:38Z</time>
      </trkpt>
      <trkpt lat="44.8274" lon="5.4239">
        <ele>1590.992676</ele>
        <time>2020-08-18T11:01:44Z</time>
      </trkpt>
      <trkpt lat="44.82724" lon="5.42313">
        <ele>1576.056274</ele>
        <time>2020-08-18T11:01:55Z</time>
      </trkpt>
      <trkpt lat="44.82712" lon="5.42288">
        <ele>1576.15918</ele>
        <time>2020-08-18T11:02:00Z</time>
      </trkpt>
      <trkpt lat="44.82695" lon="5.42183">
        <ele>1579.264526</ele>
        <time>2020-08-18T11:02:25Z</time>
      </trkpt>
      <trkpt lat="44.82687" lon="5.42158">
        <ele>1579.968506</ele>
        <time>2020-08-18T11:02:31Z</time>
      </trkpt>
      <trkpt lat="44.82683" lon="5.42128">
        <ele>1582.751953</ele>
        <time>2020-08-18T11:02:37Z</time>
      </trkpt>
      <trkpt lat="44.82684" lon="5.42098">
        <ele>1583.672241</ele>
        <time>2020-08-18T11:02:44Z</time>
      </trkpt>
      <trkpt lat="44.82693" lon="5.42069">
        <ele>1585.54541</ele>
        <time>2020-08-18T11:02:52Z</time>
      </trkpt>
      <trkpt lat="44.82695" lon="5.42037">
        <ele>1586.189087</ele>
        <time>2020-08-18T11:03:00Z</time>
      </trkpt>
      <trkpt lat="44.82702" lon="5.4201">
        <ele>1588.464966</ele>
        <time>2020-08-18T11:03:07Z</time>
      </trkpt>
      <trkpt lat="44.82699" lon="5.41923">
        <ele>1599.06958</ele>
        <time>2020-08-18T11:03:31Z</time>
      </trkpt>
      <trkpt lat="44.82689" lon="5.41836">
        <ele>1600.973511</ele>
        <time>2020-08-18T11:03:54Z</time>
      </trkpt>
      <trkpt lat="44.82674" lon="5.41802">
        <ele>1601.88208</ele>
        <time>2020-08-18T11:04:06Z</time>
      </trkpt>
      <trkpt lat="44.82642" lon="5.41747">
        <ele>1617.6875</ele>
        <time>2020-08-18T11:04:26Z</time>
      </trkpt>
      <trkpt lat="44.82636" lon="5.41719">
        <ele>1613.123535</ele>
        <time>2020-08-18T11:04:35Z</time>
      </trkpt>
      <trkpt lat="44.8264" lon="5.41693">
        <ele>1607.219238</ele>
        <time>2020-08-18T11:04:46Z</time>
      </trkpt>
      <trkpt lat="44.82648" lon="5.41682">
        <ele>1602.333862</ele>
        <time>2020-08-18T11:07:52Z</time>
      </trkpt>
      <trkpt lat="44.82707" lon="5.41646">
        <ele>1584.176147</ele>
        <time>2020-08-18T11:08:06Z</time>
      </trkpt>
      <trkpt lat="44.82732" lon="5.41638">
        <ele>1581.249146</ele>
        <time>2020-08-18T11:08:11Z</time>
      </trkpt>
      <trkpt lat="44.82801" lon="5.41591">
        <ele>1563.776855</ele>
        <time>2020-08-18T11:08:23Z</time>
      </trkpt>
      <trkpt lat="44.82836" lon="5.41572">
        <ele>1557.350464</ele>
        <time>2020-08-18T11:08:31Z</time>
      </trkpt>
      <trkpt lat="44.82864" lon="5.41566">
        <ele>1553.57373</ele>
        <time>2020-08-18T11:08:35Z</time>
      </trkpt>
      <trkpt lat="44.8288" lon="5.41566">
        <ele>1552.302246</ele>
        <time>2020-08-18T11:08:37Z</time>
      </trkpt>
      <trkpt lat="44.82937" lon="5.41549">
        <ele>1544.134888</ele>
        <time>2020-08-18T11:08:45Z</time>
      </trkpt>
      <trkpt lat="44.82983" lon="5.41526">
        <ele>1536.045532</ele>
        <time>2020-08-18T11:08:56Z</time>
      </trkpt>
      <trkpt lat="44.83002" lon="5.41523">
        <ele>1533.668579</ele>
        <time>2020-08-18T11:09:00Z</time>
      </trkpt>
      <trkpt lat="44.83066" lon="5.41498">
        <ele>1524.143921</ele>
        <time>2020-08-18T11:09:10Z</time>
      </trkpt>
      <trkpt lat="44.83105" lon="5.41469">
        <ele>1523.668335</ele>
        <time>2020-08-18T11:09:16Z</time>
      </trkpt>
      <trkpt lat="44.83136" lon="5.41424">
        <ele>1517.974976</ele>
        <time>2020-08-18T11:09:24Z</time>
      </trkpt>
      <trkpt lat="44.83167" lon="5.41386">
        <ele>1515.508545</ele>
        <time>2020-08-18T11:09:30Z</time>
      </trkpt>
      <trkpt lat="44.83189" lon="5.41347">
        <ele>1514.896606</ele>
        <time>2020-08-18T11:09:36Z</time>
      </trkpt>
      <trkpt lat="44.83268" lon="5.41251">
        <ele>1515.737549</ele>
        <time>2020-08-18T11:10:19Z</time>
      </trkpt>
      <trkpt lat="44.83293" lon="5.41231">
        <ele>1513.176392</ele>
        <time>2020-08-18T11:10:25Z</time>
      </trkpt>
      <trkpt lat="44.83311" lon="5.41223">
        <ele>1512.808838</ele>
        <time>2020-08-18T11:10:29Z</time>
      </trkpt>
      <trkpt lat="44.83359" lon="5.41213">
        <ele>1507.667603</ele>
        <time>2020-08-18T11:10:39Z</time>
      </trkpt>
      <trkpt lat="44.83378" lon="5.41201">
        <ele>1504.903564</ele>
        <time>2020-08-18T11:10:44Z</time>
      </trkpt>
      <trkpt lat="44.83389" lon="5.41189">
        <ele>1503.902588</ele>
        <time>2020-08-18T11:10:47Z</time>
      </trkpt>
      <trkpt lat="44.83394" lon="5.41176">
        <ele>1504.313721</ele>
        <time>2020-08-18T11:10:50Z</time>
      </trkpt>
      <trkpt lat="44.83403" lon="5.41167">
        <ele>1503.694946</ele>
        <time>2020-08-18T11:10:54Z</time>
      </trkpt>
      <trkpt lat="44.83411" lon="5.41176">
        <ele>1500.831787</ele>
        <time>2020-08-18T11:10:59Z</time>
      </trkpt>
      <trkpt lat="44.83412" lon="5.4119">
        <ele>1498.399536</ele>
        <time>2020-08-18T11:11:03Z</time>
      </trkpt>
      <trkpt lat="44.83424" lon="5.41188">
        <ele>1496.329956</ele>
        <time>2020-08-18T11:11:08Z</time>
      </trkpt>
      <trkpt lat="44.83455" lon="5.41165">
        <ele>1494.162476</ele>
        <time>2020-08-18T11:11:58Z</time>
      </trkpt>
      <trkpt lat="44.83462" lon="5.41156">
        <ele>1494.262451</ele>
        <time>2020-08-18T11:12:33Z</time>
      </trkpt>
      <trkpt lat="44.83459" lon="5.41128">
        <ele>1491.536377</ele>
        <time>2020-08-18T11:12:41Z</time>
      </trkpt>
      <trkpt lat="44.83455" lon="5.41115">
        <ele>1490.158447</ele>
        <time>2020-08-18T11:12:46Z</time>
      </trkpt>
      <trkpt lat="44.83448" lon="5.41105">
        <ele>1489.265991</ele>
        <time>2020-08-18T11:12:51Z</time>
      </trkpt>
      <trkpt lat="44.8342" lon="5.41089">
        <ele>1488.030762</ele>
        <time>2020-08-18T11:13:03Z</time>
      </trkpt>
      <trkpt lat="44.83396" lon="5.41085">
        <ele>1486.001709</ele>
        <time>2020-08-18T11:13:11Z</time>
      </trkpt>
      <trkpt lat="44.83376" lon="5.41076">
        <ele>1481.88562</ele>
        <time>2020-08-18T11:13:17Z</time>
      </trkpt>
      <trkpt lat="44.83296" lon="5.41059">
        <ele>1471.289917</ele>
        <time>2020-08-18T11:13:33Z</time>
      </trkpt>
      <trkpt lat="44.8326" lon="5.41014">
        <ele>1453.2052</ele>
        <time>2020-08-18T11:13:41Z</time>
      </trkpt>
      <trkpt lat="44.83221" lon="5.40984">
        <ele>1443.30603</ele>
        <time>2020-08-18T11:13:47Z</time>
      </trkpt>
      <trkpt lat="44.83173" lon="5.40932">
        <ele>1424.906738</ele>
        <time>2020-08-18T11:13:57Z</time>
      </trkpt>
      <trkpt lat="44.83144" lon="5.40907">
        <ele>1414.746948</ele>
        <time>2020-08-18T11:14:13Z</time>
      </trkpt>
      <trkpt lat="44.83135" lon="5.40907">
        <ele>1414.305786</ele>
        <time>2020-08-18T11:15:06Z</time>
      </trkpt>
      <trkpt lat="44.83145" lon="5.40907">
        <ele>1414.875488</ele>
        <time>2020-08-18T11:16:44Z</time>
      </trkpt>
      <trkpt lat="44.83135" lon="5.40901">
        <ele>1412.316772</ele>
        <time>2020-08-18T11:17:01Z</time>
      </trkpt>
      <trkpt lat="44.83137" lon="5.40873">
        <ele>1404.152466</ele>
        <time>2020-08-18T11:17:13Z</time>
      </trkpt>
      <trkpt lat="44.83143" lon="5.4086">
        <ele>1401.444946</ele>
        <time>2020-08-18T11:17:17Z</time>
      </trkpt>
      <trkpt lat="44.83161" lon="5.40843">
        <ele>1398.015015</ele>
        <time>2020-08-18T11:17:24Z</time>
      </trkpt>
      <trkpt lat="44.83191" lon="5.4084">
        <ele>1395.312744</ele>
        <time>2020-08-18T11:17:35Z</time>
      </trkpt>
      <trkpt lat="44.83206" lon="5.40822">
        <ele>1389.40564</ele>
        <time>2020-08-18T11:17:40Z</time>
      </trkpt>
      <trkpt lat="44.8323" lon="5.40746">
        <ele>1375.687256</ele>
        <time>2020-08-18T11:18:06Z</time>
      </trkpt>
      <trkpt lat="44.83243" lon="5.40721">
        <ele>1372.930786</ele>
        <time>2020-08-18T11:18:12Z</time>
      </trkpt>
      <trkpt lat="44.83259" lon="5.40699">
        <ele>1369.049316</ele>
        <time>2020-08-18T11:18:18Z</time>
      </trkpt>
      <trkpt lat="44.8331" lon="5.40644">
        <ele>1364.731934</ele>
        <time>2020-08-18T11:18:54Z</time>
      </trkpt>
      <trkpt lat="44.83325" lon="5.4062">
        <ele>1365.684448</ele>
        <time>2020-08-18T11:19:02Z</time>
      </trkpt>
      <trkpt lat="44.83335" lon="5.4058">
        <ele>1370.019653</ele>
        <time>2020-08-18T11:19:14Z</time>
      </trkpt>
      <trkpt lat="44.83344" lon="5.40573">
        <ele>1369.677612</ele>
        <time>2020-08-18T11:19:20Z</time>
      </trkpt>
      <trkpt lat="44.83364" lon="5.4058">
        <ele>1363.804932</ele>
        <time>2020-08-18T11:19:27Z</time>
      </trkpt>
      <trkpt lat="44.83373" lon="5.40586">
        <ele>1361.201294</ele>
        <time>2020-08-18T11:19:30Z</time>
      </trkpt>
      <trkpt lat="44.83384" lon="5.40587">
        <ele>1358.59375</ele>
        <time>2020-08-18T11:19:35Z</time>
      </trkpt>
      <trkpt lat="44.83469" lon="5.40624">
        <ele>1337.200317</ele>
        <time>2020-08-18T11:20:01Z</time>
      </trkpt>
      <trkpt lat="44.83493" lon="5.4062">
        <ele>1333.298096</ele>
        <time>2020-08-18T11:20:07Z</time>
      </trkpt>
      <trkpt lat="44.83502" lon="5.40615">
        <ele>1332.39917</ele>
        <time>2020-08-18T11:20:09Z</time>
      </trkpt>
      <trkpt lat="44.83521" lon="5.40597">
        <ele>1331.574585</ele>
        <time>2020-08-18T11:20:13Z</time>
      </trkpt>
      <trkpt lat="44.8356" lon="5.40541">
        <ele>1334.261719</ele>
        <time>2020-08-18T11:20:25Z</time>
      </trkpt>
      <trkpt lat="44.83566" lon="5.40527">
        <ele>1335.650024</ele>
        <time>2020-08-18T11:20:29Z</time>
      </trkpt>
      <trkpt lat="44.83579" lon="5.40508">
        <ele>1338.184814</ele>
        <time>2020-08-18T11:20:36Z</time>
      </trkpt>
      <trkpt lat="44.83638" lon="5.40451">
        <ele>1340.097534</ele>
        <time>2020-08-18T11:21:02Z</time>
      </trkpt>
      <trkpt lat="44.83662" lon="5.40422">
        <ele>1344.087524</ele>
        <time>2020-08-18T11:21:13Z</time>
      </trkpt>
      <trkpt lat="44.83703" lon="5.40381">
        <ele>1343.018555</ele>
        <time>2020-08-18T11:21:35Z</time>
      </trkpt>
      <trkpt lat="44.83718" lon="5.4033">
        <ele>1351.942505</ele>
        <time>2020-08-18T11:21:52Z</time>
      </trkpt>
      <trkpt lat="44.83744" lon="5.40266">
        <ele>1356.931641</ele>
        <time>2020-08-18T11:22:12Z</time>
      </trkpt>
      <trkpt lat="44.83752" lon="5.40226">
        <ele>1363.821411</ele>
        <time>2020-08-18T11:22:27Z</time>
      </trkpt>
      <trkpt lat="44.83747" lon="5.40184">
        <ele>1365.997803</ele>
        <time>2020-08-18T11:22:45Z</time>
      </trkpt>
      <trkpt lat="44.83739" lon="5.40174">
        <ele>1365.6427</ele>
        <time>2020-08-18T11:23:50Z</time>
      </trkpt>
      <trkpt lat="44.8372" lon="5.40166">
        <ele>1363.673828</ele>
        <time>2020-08-18T11:24:04Z</time>
      </trkpt>
      <trkpt lat="44.83724" lon="5.40152">
        <ele>1361.12207</ele>
        <time>2020-08-18T11:24:16Z</time>
      </trkpt>
      <trkpt lat="44.83748" lon="5.40125">
        <ele>1356.574097</ele>
        <time>2020-08-18T11:24:25Z</time>
      </trkpt>
      <trkpt lat="44.83759" lon="5.40068">
        <ele>1344.565063</ele>
        <time>2020-08-18T11:24:38Z</time>
      </trkpt>
      <trkpt lat="44.8375" lon="5.40065">
        <ele>1340.890015</ele>
        <time>2020-08-18T11:24:42Z</time>
      </trkpt>
      <trkpt lat="44.83718" lon="5.40067">
        <ele>1331.561035</ele>
        <time>2020-08-18T11:25:03Z</time>
      </trkpt>
      <trkpt lat="44.83712" lon="5.40056">
        <ele>1326.315918</ele>
        <time>2020-08-18T11:25:07Z</time>
      </trkpt>
      <trkpt lat="44.83711" lon="5.40041">
        <ele>1321.438843</ele>
        <time>2020-08-18T11:25:10Z</time>
      </trkpt>
      <trkpt lat="44.83719" lon="5.39997">
        <ele>1310.750732</ele>
        <time>2020-08-18T11:25:19Z</time>
      </trkpt>
      <trkpt lat="44.83726" lon="5.39985">
        <ele>1309.060913</ele>
        <time>2020-08-18T11:25:22Z</time>
      </trkpt>
      <trkpt lat="44.83738" lon="5.39983">
        <ele>1313.172607</ele>
        <time>2020-08-18T11:25:26Z</time>
      </trkpt>
      <trkpt lat="44.83757" lon="5.3995">
        <ele>1307.762451</ele>
        <time>2020-08-18T11:25:40Z</time>
      </trkpt>
      <trkpt lat="44.83766" lon="5.3992">
        <ele>1297.723511</ele>
        <time>2020-08-18T11:25:48Z</time>
      </trkpt>
      <trkpt lat="44.83775" lon="5.39911">
        <ele>1297.592041</ele>
        <time>2020-08-18T11:25:52Z</time>
      </trkpt>
      <trkpt lat="44.83793" lon="5.39878">
        <ele>1288.78772</ele>
        <time>2020-08-18T11:26:05Z</time>
      </trkpt>
      <trkpt lat="44.83824" lon="5.39835">
        <ele>1284.652588</ele>
        <time>2020-08-18T11:26:23Z</time>
      </trkpt>
      <trkpt lat="44.83833" lon="5.39831">
        <ele>1288.115723</ele>
        <time>2020-08-18T11:26:28Z</time>
      </trkpt>
      <trkpt lat="44.83848" lon="5.39815">
        <ele>1290.423706</ele>
        <time>2020-08-18T11:26:39Z</time>
      </trkpt>
      <trkpt lat="44.83854" lon="5.39804">
        <ele>1289.769287</ele>
        <time>2020-08-18T11:26:45Z</time>
      </trkpt>
      <trkpt lat="44.83857" lon="5.3979">
        <ele>1286.349854</ele>
        <time>2020-08-18T11:26:51Z</time>
      </trkpt>
      <trkpt lat="44.83857" lon="5.39777">
        <ele>1283.091309</ele>
        <time>2020-08-18T11:27:01Z</time>
      </trkpt>
      <trkpt lat="44.83851" lon="5.39767">
        <ele>1278.296143</ele>
        <time>2020-08-18T11:27:13Z</time>
      </trkpt>
      <trkpt lat="44.83848" lon="5.39755">
        <ele>1274.668823</ele>
        <time>2020-08-18T11:27:25Z</time>
      </trkpt>
      <trkpt lat="44.83848" lon="5.39681">
        <ele>1266.696289</ele>
        <time>2020-08-18T11:27:44Z</time>
      </trkpt>
      <trkpt lat="44.83852" lon="5.39665">
        <ele>1267.692993</ele>
        <time>2020-08-18T11:27:48Z</time>
      </trkpt>
      <trkpt lat="44.8385" lon="5.39652">
        <ele>1264.441406</ele>
        <time>2020-08-18T11:27:51Z</time>
      </trkpt>
      <trkpt lat="44.83863" lon="5.39605">
        <ele>1261.321655</ele>
        <time>2020-08-18T11:27:58Z</time>
      </trkpt>
      <trkpt lat="44.83867" lon="5.39536">
        <ele>1246.501221</ele>
        <time>2020-08-18T11:28:08Z</time>
      </trkpt>
      <trkpt lat="44.83881" lon="5.39513">
        <ele>1245.674438</ele>
        <time>2020-08-18T11:28:15Z</time>
      </trkpt>
      <trkpt lat="44.83899" lon="5.39495">
        <ele>1247.738159</ele>
        <time>2020-08-18T11:28:25Z</time>
      </trkpt>
      <trkpt lat="44.83927" lon="5.39474">
        <ele>1253.366211</ele>
        <time>2020-08-18T11:28:39Z</time>
      </trkpt>
      <trkpt lat="44.8394" lon="5.39455">
        <ele>1254.77063</ele>
        <time>2020-08-18T11:28:48Z</time>
      </trkpt>
      <trkpt lat="44.83958" lon="5.39418">
        <ele>1255.511963</ele>
        <time>2020-08-18T11:29:01Z</time>
      </trkpt>
      <trkpt lat="44.83975" lon="5.39388">
        <ele>1262.547485</ele>
        <time>2020-08-18T11:29:13Z</time>
      </trkpt>
      <trkpt lat="44.83982" lon="5.39359">
        <ele>1263.817749</ele>
        <time>2020-08-18T11:29:22Z</time>
      </trkpt>
      <trkpt lat="44.83979" lon="5.39345">
        <ele>1262.095337</ele>
        <time>2020-08-18T11:29:27Z</time>
      </trkpt>
      <trkpt lat="44.83964" lon="5.39327">
        <ele>1258.422363</ele>
        <time>2020-08-18T11:29:35Z</time>
      </trkpt>
      <trkpt lat="44.83945" lon="5.39291">
        <ele>1259.130737</ele>
        <time>2020-08-18T11:29:48Z</time>
      </trkpt>
      <trkpt lat="44.83933" lon="5.39256">
        <ele>1265.602539</ele>
        <time>2020-08-18T11:30:00Z</time>
      </trkpt>
      <trkpt lat="44.83908" lon="5.39214">
        <ele>1269.9646</ele>
        <time>2020-08-18T11:30:16Z</time>
      </trkpt>
      <trkpt lat="44.83878" lon="5.3917">
        <ele>1275.643921</ele>
        <time>2020-08-18T11:30:36Z</time>
      </trkpt>
      <trkpt lat="44.83861" lon="5.39156">
        <ele>1273.376709</ele>
        <time>2020-08-18T11:30:44Z</time>
      </trkpt>
      <trkpt lat="44.83841" lon="5.39125">
        <ele>1294.557129</ele>
        <time>2020-08-18T11:30:57Z</time>
      </trkpt>
      <trkpt lat="44.83804" lon="5.39113">
        <ele>1288.35376</ele>
        <time>2020-08-18T11:31:14Z</time>
      </trkpt>
      <trkpt lat="44.83786" lon="5.39101">
        <ele>1291.341064</ele>
        <time>2020-08-18T11:31:22Z</time>
      </trkpt>
      <trkpt lat="44.83746" lon="5.39086">
        <ele>1290.908691</ele>
        <time>2020-08-18T11:31:42Z</time>
      </trkpt>
      <trkpt lat="44.83703" lon="5.39083">
        <ele>1270.973633</ele>
        <time>2020-08-18T11:32:06Z</time>
      </trkpt>
      <trkpt lat="44.83674" lon="5.3907">
        <ele>1263.300781</ele>
        <time>2020-08-18T11:32:23Z</time>
      </trkpt>
      <trkpt lat="44.83671" lon="5.39057">
        <ele>1272.532959</ele>
        <time>2020-08-18T11:32:29Z</time>
      </trkpt>
      <trkpt lat="44.83648" lon="5.39031">
        <ele>1283.094727</ele>
        <time>2020-08-18T11:32:47Z</time>
      </trkpt>
      <trkpt lat="44.83642" lon="5.39021">
        <ele>1290.547852</ele>
        <time>2020-08-18T11:32:52Z</time>
      </trkpt>
      <trkpt lat="44.8364" lon="5.38994">
        <ele>1302.310913</ele>
        <time>2020-08-18T11:33:04Z</time>
      </trkpt>
      <trkpt lat="44.83644" lon="5.38981">
        <ele>1307.321899</ele>
        <time>2020-08-18T11:33:10Z</time>
      </trkpt>
      <trkpt lat="44.83662" lon="5.38971">
        <ele>1313.571899</ele>
        <time>2020-08-18T11:33:24Z</time>
      </trkpt>
      <trkpt lat="44.8367" lon="5.38962">
        <ele>1316.566895</ele>
        <time>2020-08-18T11:33:29Z</time>
      </trkpt>
      <trkpt lat="44.83675" lon="5.3895">
        <ele>1319.346802</ele>
        <time>2020-08-18T11:33:35Z</time>
      </trkpt>
      <trkpt lat="44.83676" lon="5.38937">
        <ele>1323.397217</ele>
        <time>2020-08-18T11:33:41Z</time>
      </trkpt>
      <trkpt lat="44.83673" lon="5.38925">
        <ele>1326.181152</ele>
        <time>2020-08-18T11:33:47Z</time>
      </trkpt>
      <trkpt lat="44.83662" lon="5.38903">
        <ele>1329.00708</ele>
        <time>2020-08-18T11:33:56Z</time>
      </trkpt>
      <trkpt lat="44.83655" lon="5.38894">
        <ele>1329.620972</ele>
        <time>2020-08-18T11:34:01Z</time>
      </trkpt>
      <trkpt lat="44.83603" lon="5.3886">
        <ele>1331.166748</ele>
        <time>2020-08-18T11:34:32Z</time>
      </trkpt>
      <trkpt lat="44.83574" lon="5.38846">
        <ele>1328.855835</ele>
        <time>2020-08-18T11:34:47Z</time>
      </trkpt>
      <trkpt lat="44.83546" lon="5.38825">
        <ele>1327.267456</ele>
        <time>2020-08-18T11:35:02Z</time>
      </trkpt>
      <trkpt lat="44.835" lon="5.38799">
        <ele>1324.15271</ele>
        <time>2020-08-18T11:35:27Z</time>
      </trkpt>
      <trkpt lat="44.83484" lon="5.38782">
        <ele>1325.577026</ele>
        <time>2020-08-18T11:35:36Z</time>
      </trkpt>
      <trkpt lat="44.83489" lon="5.3877">
        <ele>1327.464233</ele>
        <time>2020-08-18T11:35:47Z</time>
      </trkpt>
      <trkpt lat="44.83547" lon="5.38744">
        <ele>1333.272949</ele>
        <time>2020-08-18T11:36:14Z</time>
      </trkpt>
      <trkpt lat="44.83566" lon="5.38743">
        <ele>1334.211792</ele>
        <time>2020-08-18T11:36:24Z</time>
      </trkpt>
      <trkpt lat="44.83577" lon="5.38747">
        <ele>1333.840454</ele>
        <time>2020-08-18T11:36:30Z</time>
      </trkpt>
      <trkpt lat="44.83596" lon="5.38745">
        <ele>1338.656372</ele>
        <time>2020-08-18T11:36:38Z</time>
      </trkpt>
      <trkpt lat="44.83603" lon="5.38754">
        <ele>1339.526245</ele>
        <time>2020-08-18T11:36:51Z</time>
      </trkpt>
      <trkpt lat="44.83612" lon="5.38755">
        <ele>1341.761963</ele>
        <time>2020-08-18T11:37:41Z</time>
      </trkpt>
      <trkpt lat="44.8362" lon="5.38746">
        <ele>1343.71521</ele>
        <time>2020-08-18T11:42:37Z</time>
      </trkpt>
      <trkpt lat="44.83729" lon="5.38735">
        <ele>1352.211426</ele>
        <time>2020-08-18T11:43:22Z</time>
      </trkpt>
      <trkpt lat="44.83828" lon="5.38735">
        <ele>1361.861084</ele>
        <time>2020-08-18T11:44:02Z</time>
      </trkpt>
      <trkpt lat="44.83897" lon="5.38744">
        <ele>1370.219849</ele>
        <time>2020-08-18T11:44:31Z</time>
      </trkpt>
      <trkpt lat="44.83973" lon="5.38746">
        <ele>1379.381958</ele>
        <time>2020-08-18T11:45:03Z</time>
      </trkpt>
      <trkpt lat="44.84024" lon="5.38752">
        <ele>1386.401855</ele>
        <time>2020-08-18T11:45:27Z</time>
      </trkpt>
      <trkpt lat="44.84055" lon="5.38762">
        <ele>1390.954102</ele>
        <time>2020-08-18T11:45:42Z</time>
      </trkpt>
      <trkpt lat="44.84094" lon="5.38767">
        <ele>1395.41748</ele>
        <time>2020-08-18T11:46:02Z</time>
      </trkpt>
      <trkpt lat="44.84152" lon="5.38762">
        <ele>1402.901978</ele>
        <time>2020-08-18T11:46:32Z</time>
      </trkpt>
      <trkpt lat="44.84183" lon="5.38766">
        <ele>1409.088257</ele>
        <time>2020-08-18T11:46:50Z</time>
      </trkpt>
      <trkpt lat="44.84202" lon="5.38757">
        <ele>1412.984375</ele>
        <time>2020-08-18T11:47:01Z</time>
      </trkpt>
      <trkpt lat="44.84211" lon="5.38756">
        <ele>1414.402222</ele>
        <time>2020-08-18T11:47:06Z</time>
      </trkpt>
      <trkpt lat="44.8422" lon="5.38759">
        <ele>1415.669922</ele>
        <time>2020-08-18T11:47:12Z</time>
      </trkpt>
      <trkpt lat="44.84239" lon="5.38774">
        <ele>1418.861938</ele>
        <time>2020-08-18T11:47:24Z</time>
      </trkpt>
      <trkpt lat="44.84259" lon="5.38784">
        <ele>1421.64502</ele>
        <time>2020-08-18T11:47:36Z</time>
      </trkpt>
      <trkpt lat="44.84268" lon="5.38779">
        <ele>1421.53125</ele>
        <time>2020-08-18T11:47:42Z</time>
      </trkpt>
      <trkpt lat="44.8427" lon="5.38765">
        <ele>1420.106445</ele>
        <time>2020-08-18T11:47:48Z</time>
      </trkpt>
      <trkpt lat="44.84267" lon="5.38735">
        <ele>1417.035278</ele>
        <time>2020-08-18T11:51:11Z</time>
      </trkpt>
      <trkpt lat="44.84268" lon="5.38706">
        <ele>1415.309937</ele>
        <time>2020-08-18T11:51:15Z</time>
      </trkpt>
      <trkpt lat="44.84272" lon="5.38689">
        <ele>1414.14209</ele>
        <time>2020-08-18T11:51:17Z</time>
      </trkpt>
      <trkpt lat="44.84278" lon="5.38676">
        <ele>1412.773193</ele>
        <time>2020-08-18T11:51:19Z</time>
      </trkpt>
      <trkpt lat="44.84287" lon="5.38665">
        <ele>1411.222168</ele>
        <time>2020-08-18T11:51:21Z</time>
      </trkpt>
      <trkpt lat="44.84342" lon="5.38643">
        <ele>1402.001709</ele>
        <time>2020-08-18T11:51:28Z</time>
      </trkpt>
      <trkpt lat="44.84359" lon="5.38633">
        <ele>1399.612793</ele>
        <time>2020-08-18T11:51:30Z</time>
      </trkpt>
      <trkpt lat="44.84428" lon="5.38561">
        <ele>1391.224976</ele>
        <time>2020-08-18T11:51:39Z</time>
      </trkpt>
      <trkpt lat="44.84478" lon="5.38473">
        <ele>1388.528809</ele>
        <time>2020-08-18T11:51:57Z</time>
      </trkpt>
      <trkpt lat="44.84487" lon="5.38447">
        <ele>1389.043213</ele>
        <time>2020-08-18T11:52:03Z</time>
      </trkpt>
      <trkpt lat="44.84493" lon="5.38419">
        <ele>1389.655029</ele>
        <time>2020-08-18T11:52:09Z</time>
      </trkpt>
      <trkpt lat="44.84493" lon="5.38403">
        <ele>1389.98877</ele>
        <time>2020-08-18T11:52:12Z</time>
      </trkpt>
      <trkpt lat="44.84488" lon="5.38373">
        <ele>1391.609985</ele>
        <time>2020-08-18T11:52:18Z</time>
      </trkpt>
      <trkpt lat="44.84483" lon="5.38358">
        <ele>1392.54126</ele>
        <time>2020-08-18T11:52:21Z</time>
      </trkpt>
      <trkpt lat="44.84461" lon="5.38318">
        <ele>1394.97998</ele>
        <time>2020-08-18T11:52:30Z</time>
      </trkpt>
      <trkpt lat="44.84444" lon="5.38295">
        <ele>1396.71875</ele>
        <time>2020-08-18T11:52:36Z</time>
      </trkpt>
      <trkpt lat="44.84409" lon="5.38256">
        <ele>1397.84375</ele>
        <time>2020-08-18T11:52:48Z</time>
      </trkpt>
      <trkpt lat="44.84402" lon="5.38241">
        <ele>1397.550049</ele>
        <time>2020-08-18T11:52:51Z</time>
      </trkpt>
      <trkpt lat="44.84399" lon="5.38229">
        <ele>1397.140503</ele>
        <time>2020-08-18T11:52:53Z</time>
      </trkpt>
      <trkpt lat="44.84402" lon="5.38211">
        <ele>1396.879883</ele>
        <time>2020-08-18T11:52:56Z</time>
      </trkpt>
      <trkpt lat="44.84443" lon="5.38138">
        <ele>1396.430054</ele>
        <time>2020-08-18T11:53:11Z</time>
      </trkpt>
      <trkpt lat="44.84479" lon="5.38093">
        <ele>1399.838013</ele>
        <time>2020-08-18T11:53:23Z</time>
      </trkpt>
      <trkpt lat="44.84497" lon="5.38083">
        <ele>1399.700439</ele>
        <time>2020-08-18T11:53:29Z</time>
      </trkpt>
      <trkpt lat="44.84538" lon="5.38069">
        <ele>1400.428467</ele>
        <time>2020-08-18T11:53:39Z</time>
      </trkpt>
      <trkpt lat="44.8455" lon="5.3806">
        <ele>1401.56604</ele>
        <time>2020-08-18T11:53:42Z</time>
      </trkpt>
      <trkpt lat="44.84558" lon="5.38047">
        <ele>1402.480347</ele>
        <time>2020-08-18T11:53:45Z</time>
      </trkpt>
      <trkpt lat="44.84562" lon="5.38034">
        <ele>1401.846191</ele>
        <time>2020-08-18T11:53:52Z</time>
      </trkpt>
      <trkpt lat="44.84561" lon="5.3802">
        <ele>1401.40625</ele>
        <time>2020-08-18T11:53:56Z</time>
      </trkpt>
      <trkpt lat="44.84553" lon="5.38015">
        <ele>1401.752808</ele>
        <time>2020-08-18T11:54:00Z</time>
      </trkpt>
      <trkpt lat="44.84547" lon="5.38001">
        <ele>1401.829102</ele>
        <time>2020-08-18T11:54:06Z</time>
      </trkpt>
      <trkpt lat="44.8454" lon="5.37993">
        <ele>1402.402222</ele>
        <time>2020-08-18T11:54:10Z</time>
      </trkpt>
      <trkpt lat="44.8452" lon="5.37986">
        <ele>1405</ele>
        <time>2020-08-18T11:54:18Z</time>
      </trkpt>
      <trkpt lat="44.84501" lon="5.37967">
        <ele>1405.387695</ele>
        <time>2020-08-18T11:54:25Z</time>
      </trkpt>
      <trkpt lat="44.84428" lon="5.37867">
        <ele>1401.967529</ele>
        <time>2020-08-18T11:54:46Z</time>
      </trkpt>
      <trkpt lat="44.84392" lon="5.37825">
        <ele>1398.844482</ele>
        <time>2020-08-18T11:54:52Z</time>
      </trkpt>
      <trkpt lat="44.84332" lon="5.37778">
        <ele>1397.602051</ele>
        <time>2020-08-18T11:55:02Z</time>
      </trkpt>
      <trkpt lat="44.84311" lon="5.37768">
        <ele>1398.936646</ele>
        <time>2020-08-18T11:55:06Z</time>
      </trkpt>
      <trkpt lat="44.84289" lon="5.37753">
        <ele>1398.76123</ele>
        <time>2020-08-18T11:55:10Z</time>
      </trkpt>
      <trkpt lat="44.84254" lon="5.3772">
        <ele>1394.600098</ele>
        <time>2020-08-18T11:55:16Z</time>
      </trkpt>
      <trkpt lat="44.84208" lon="5.37691">
        <ele>1390.66394</ele>
        <time>2020-08-18T11:55:24Z</time>
      </trkpt>
      <trkpt lat="44.84173" lon="5.37675">
        <ele>1389.163208</ele>
        <time>2020-08-18T11:55:30Z</time>
      </trkpt>
      <trkpt lat="44.84136" lon="5.37664">
        <ele>1389.919556</ele>
        <time>2020-08-18T11:55:39Z</time>
      </trkpt>
      <trkpt lat="44.84125" lon="5.37664">
        <ele>1391.693726</ele>
        <time>2020-08-18T11:55:42Z</time>
      </trkpt>
      <trkpt lat="44.84079" lon="5.37648">
        <ele>1392.79541</ele>
        <time>2020-08-18T11:55:53Z</time>
      </trkpt>
      <trkpt lat="44.83978" lon="5.3759">
        <ele>1391.654663</ele>
        <time>2020-08-18T11:56:13Z</time>
      </trkpt>
      <trkpt lat="44.83924" lon="5.37569">
        <ele>1393.319946</ele>
        <time>2020-08-18T11:56:25Z</time>
      </trkpt>
      <trkpt lat="44.83794" lon="5.37499">
        <ele>1392.974976</ele>
        <time>2020-08-18T11:56:51Z</time>
      </trkpt>
      <trkpt lat="44.8367" lon="5.37428">
        <ele>1389.109985</ele>
        <time>2020-08-18T11:57:15Z</time>
      </trkpt>
      <trkpt lat="44.83591" lon="5.37395">
        <ele>1391.5</ele>
        <time>2020-08-18T11:57:29Z</time>
      </trkpt>
      <trkpt lat="44.8351" lon="5.37371">
        <ele>1393.490112</ele>
        <time>2020-08-18T11:57:45Z</time>
      </trkpt>
      <trkpt lat="44.83381" lon="5.37307">
        <ele>1387.857544</ele>
        <time>2020-08-18T11:58:09Z</time>
      </trkpt>
      <trkpt lat="44.83359" lon="5.37292">
        <ele>1386.69751</ele>
        <time>2020-08-18T11:58:13Z</time>
      </trkpt>
      <trkpt lat="44.83316" lon="5.37254">
        <ele>1383.558716</ele>
        <time>2020-08-18T11:58:19Z</time>
      </trkpt>
      <trkpt lat="44.83302" lon="5.37234">
        <ele>1380.202759</ele>
        <time>2020-08-18T11:58:21Z</time>
      </trkpt>
      <trkpt lat="44.8327" lon="5.37172">
        <ele>1372.562622</ele>
        <time>2020-08-18T11:58:26Z</time>
      </trkpt>
      <trkpt lat="44.83216" lon="5.37082">
        <ele>1358.735962</ele>
        <time>2020-08-18T11:58:33Z</time>
      </trkpt>
      <trkpt lat="44.83141" lon="5.36977">
        <ele>1346.64209</ele>
        <time>2020-08-18T11:58:41Z</time>
      </trkpt>
      <trkpt lat="44.83091" lon="5.36895">
        <ele>1336.208984</ele>
        <time>2020-08-18T11:58:50Z</time>
      </trkpt>
      <trkpt lat="44.83063" lon="5.36837">
        <ele>1328.550049</ele>
        <time>2020-08-18T11:58:58Z</time>
      </trkpt>
      <trkpt lat="44.83013" lon="5.36751">
        <ele>1319.575073</ele>
        <time>2020-08-18T11:59:08Z</time>
      </trkpt>
      <trkpt lat="44.83003" lon="5.36728">
        <ele>1319.572388</ele>
        <time>2020-08-18T11:59:43Z</time>
      </trkpt>
      <trkpt lat="44.83023" lon="5.36718">
        <ele>1316.558472</ele>
        <time>2020-08-18T11:59:53Z</time>
      </trkpt>
      <trkpt lat="44.83043" lon="5.36717">
        <ele>1314.143188</ele>
        <time>2020-08-18T12:00:08Z</time>
      </trkpt>
      <trkpt lat="44.83032" lon="5.36717">
        <ele>1315.392578</ele>
        <time>2020-08-18T12:00:27Z</time>
      </trkpt>
      <trkpt lat="44.83013" lon="5.36725">
        <ele>1318.140137</ele>
        <time>2020-08-18T12:00:39Z</time>
      </trkpt>
      <trkpt lat="44.83013" lon="5.36712">
        <ele>1317.448486</ele>
        <time>2020-08-18T12:00:46Z</time>
      </trkpt>
      <trkpt lat="44.83024" lon="5.36692">
        <ele>1318.074951</ele>
        <time>2020-08-18T12:00:58Z</time>
      </trkpt>
      <trkpt lat="44.83032" lon="5.36667">
        <ele>1322.897461</ele>
        <time>2020-08-18T12:01:10Z</time>
      </trkpt>
      <trkpt lat="44.83043" lon="5.36613">
        <ele>1333.180786</ele>
        <time>2020-08-18T12:01:34Z</time>
      </trkpt>
      <trkpt lat="44.83043" lon="5.366">
        <ele>1335.760498</ele>
        <time>2020-08-18T12:01:40Z</time>
      </trkpt>
      <trkpt lat="44.83051" lon="5.36549">
        <ele>1343.193359</ele>
        <time>2020-08-18T12:02:39Z</time>
      </trkpt>
      <trkpt lat="44.83057" lon="5.36539">
        <ele>1343.96875</ele>
        <time>2020-08-18T12:02:45Z</time>
      </trkpt>
      <trkpt lat="44.83081" lon="5.36416">
        <ele>1350.922363</ele>
        <time>2020-08-18T12:03:33Z</time>
      </trkpt>
      <trkpt lat="44.83083" lon="5.36372">
        <ele>1350.580078</ele>
        <time>2020-08-18T12:03:44Z</time>
      </trkpt>
      <trkpt lat="44.83082" lon="5.36357">
        <ele>1350.365601</ele>
        <time>2020-08-18T12:03:49Z</time>
      </trkpt>
      <trkpt lat="44.83069" lon="5.36331">
        <ele>1351.991455</ele>
        <time>2020-08-18T12:03:59Z</time>
      </trkpt>
      <trkpt lat="44.83061" lon="5.36321">
        <ele>1353.053345</ele>
        <time>2020-08-18T12:04:03Z</time>
      </trkpt>
      <trkpt lat="44.83037" lon="5.36272">
        <ele>1353.267456</ele>
        <time>2020-08-18T12:04:16Z</time>
      </trkpt>
      <trkpt lat="44.83015" lon="5.36239">
        <ele>1354.094971</ele>
        <time>2020-08-18T12:04:28Z</time>
      </trkpt>
      <trkpt lat="44.82996" lon="5.3618">
        <ele>1351.320068</ele>
        <time>2020-08-18T12:04:42Z</time>
      </trkpt>
      <trkpt lat="44.82975" lon="5.36144">
        <ele>1350.944946</ele>
        <time>2020-08-18T12:04:51Z</time>
      </trkpt>
      <trkpt lat="44.82938" lon="5.36115">
        <ele>1349.384766</ele>
        <time>2020-08-18T12:05:05Z</time>
      </trkpt>
      <trkpt lat="44.8293" lon="5.36103">
        <ele>1348.541382</ele>
        <time>2020-08-18T12:05:08Z</time>
      </trkpt>
      <trkpt lat="44.82907" lon="5.36096">
        <ele>1347.273682</ele>
        <time>2020-08-18T12:05:13Z</time>
      </trkpt>
      <trkpt lat="44.82864" lon="5.36108">
        <ele>1347.572754</ele>
        <time>2020-08-18T12:05:23Z</time>
      </trkpt>
      <trkpt lat="44.82841" lon="5.36093">
        <ele>1345.102295</ele>
        <time>2020-08-18T12:05:27Z</time>
      </trkpt>
      <trkpt lat="44.82834" lon="5.36082">
        <ele>1344.205566</ele>
        <time>2020-08-18T12:05:29Z</time>
      </trkpt>
      <trkpt lat="44.82821" lon="5.35983">
        <ele>1337.706299</ele>
        <time>2020-08-18T12:05:46Z</time>
      </trkpt>
      <trkpt lat="44.82821" lon="5.35968">
        <ele>1335.354248</ele>
        <time>2020-08-18T12:05:49Z</time>
      </trkpt>
      <trkpt lat="44.82863" lon="5.3586">
        <ele>1324.661377</ele>
        <time>2020-08-18T12:06:03Z</time>
      </trkpt>
      <trkpt lat="44.82877" lon="5.35835">
        <ele>1325.4646</ele>
        <time>2020-08-18T12:06:08Z</time>
      </trkpt>
      <trkpt lat="44.82883" lon="5.35792">
        <ele>1326.159424</ele>
        <time>2020-08-18T12:06:26Z</time>
      </trkpt>
      <trkpt lat="44.82893" lon="5.35765">
        <ele>1330.756104</ele>
        <time>2020-08-18T12:06:36Z</time>
      </trkpt>
      <trkpt lat="44.8294" lon="5.35692">
        <ele>1346.141846</ele>
        <time>2020-08-18T12:07:26Z</time>
      </trkpt>
      <trkpt lat="44.82949" lon="5.35687">
        <ele>1348.328979</ele>
        <time>2020-08-18T12:07:33Z</time>
      </trkpt>
      <trkpt lat="44.8295" lon="5.35673">
        <ele>1348.422485</ele>
        <time>2020-08-18T12:07:41Z</time>
      </trkpt>
      <trkpt lat="44.82972" lon="5.35612">
        <ele>1354.354004</ele>
        <time>2020-08-18T12:08:11Z</time>
      </trkpt>
      <trkpt lat="44.82979" lon="5.35603">
        <ele>1356.755615</ele>
        <time>2020-08-18T12:08:17Z</time>
      </trkpt>
      <trkpt lat="44.83005" lon="5.35556">
        <ele>1360.562012</ele>
        <time>2020-08-18T12:08:34Z</time>
      </trkpt>
      <trkpt lat="44.83022" lon="5.35517">
        <ele>1358.688721</ele>
        <time>2020-08-18T12:08:43Z</time>
      </trkpt>
      <trkpt lat="44.83027" lon="5.35477">
        <ele>1356.97522</ele>
        <time>2020-08-18T12:08:51Z</time>
      </trkpt>
      <trkpt lat="44.83029" lon="5.35376">
        <ele>1350.840454</ele>
        <time>2020-08-18T12:09:05Z</time>
      </trkpt>
      <trkpt lat="44.83032" lon="5.35345">
        <ele>1350.232666</ele>
        <time>2020-08-18T12:09:10Z</time>
      </trkpt>
      <trkpt lat="44.83036" lon="5.35333">
        <ele>1351.731079</ele>
        <time>2020-08-18T12:09:12Z</time>
      </trkpt>
      <trkpt lat="44.8305" lon="5.35307">
        <ele>1355.290283</ele>
        <time>2020-08-18T12:09:18Z</time>
      </trkpt>
      <trkpt lat="44.83096" lon="5.35281">
        <ele>1363.684814</ele>
        <time>2020-08-18T12:09:44Z</time>
      </trkpt>
      <trkpt lat="44.83114" lon="5.35265">
        <ele>1366.459717</ele>
        <time>2020-08-18T12:09:55Z</time>
      </trkpt>
      <trkpt lat="44.83123" lon="5.3526">
        <ele>1367.68042</ele>
        <time>2020-08-18T12:10:01Z</time>
      </trkpt>
      <trkpt lat="44.83131" lon="5.35266">
        <ele>1367.430786</ele>
        <time>2020-08-18T12:10:08Z</time>
      </trkpt>
      <trkpt lat="44.83145" lon="5.35287">
        <ele>1366.407471</ele>
        <time>2020-08-18T12:10:14Z</time>
      </trkpt>
      <trkpt lat="44.83158" lon="5.35331">
        <ele>1363.052734</ele>
        <time>2020-08-18T12:10:22Z</time>
      </trkpt>
      <trkpt lat="44.83165" lon="5.35343">
        <ele>1362.822754</ele>
        <time>2020-08-18T12:10:24Z</time>
      </trkpt>
      <trkpt lat="44.8317" lon="5.35356">
        <ele>1362.106934</ele>
        <time>2020-08-18T12:10:26Z</time>
      </trkpt>
      <trkpt lat="44.83187" lon="5.35375">
        <ele>1362.578857</ele>
        <time>2020-08-18T12:10:34Z</time>
      </trkpt>
      <trkpt lat="44.83206" lon="5.3541">
        <ele>1360.877075</ele>
        <time>2020-08-18T12:10:43Z</time>
      </trkpt>
      <trkpt lat="44.83222" lon="5.35424">
        <ele>1361.184937</ele>
        <time>2020-08-18T12:11:12Z</time>
      </trkpt>
      <trkpt lat="44.83225" lon="5.35452">
        <ele>1357.535645</ele>
        <time>2020-08-18T12:11:20Z</time>
      </trkpt>
      <trkpt lat="44.83242" lon="5.35487">
        <ele>1351.922363</ele>
        <time>2020-08-18T12:11:29Z</time>
      </trkpt>
      <trkpt lat="44.83251" lon="5.35496">
        <ele>1351.147217</ele>
        <time>2020-08-18T12:11:32Z</time>
      </trkpt>
      <trkpt lat="44.8327" lon="5.35504">
        <ele>1350.238647</ele>
        <time>2020-08-18T12:11:37Z</time>
      </trkpt>
      <trkpt lat="44.83322" lon="5.35488">
        <ele>1348.588501</ele>
        <time>2020-08-18T12:11:47Z</time>
      </trkpt>
      <trkpt lat="44.83345" lon="5.35472">
        <ele>1347.348633</ele>
        <time>2020-08-18T12:11:51Z</time>
      </trkpt>
      <trkpt lat="44.83411" lon="5.35438">
        <ele>1337.951538</ele>
        <time>2020-08-18T12:12:01Z</time>
      </trkpt>
      <trkpt lat="44.83456" lon="5.35421">
        <ele>1334.436523</ele>
        <time>2020-08-18T12:12:07Z</time>
      </trkpt>
      <trkpt lat="44.83484" lon="5.35414">
        <ele>1332.50769</ele>
        <time>2020-08-18T12:12:10Z</time>
      </trkpt>
      <trkpt lat="44.83492" lon="5.35408">
        <ele>1332.57251</ele>
        <time>2020-08-18T12:12:11Z</time>
      </trkpt>
      <trkpt lat="44.8351" lon="5.35383">
        <ele>1335.274536</ele>
        <time>2020-08-18T12:12:15Z</time>
      </trkpt>
      <trkpt lat="44.83554" lon="5.35347">
        <ele>1333.203003</ele>
        <time>2020-08-18T12:12:23Z</time>
      </trkpt>
      <trkpt lat="44.83586" lon="5.353">
        <ele>1329.44873</ele>
        <time>2020-08-18T12:12:32Z</time>
      </trkpt>
      <trkpt lat="44.83612" lon="5.35248">
        <ele>1322.467285</ele>
        <time>2020-08-18T12:12:43Z</time>
      </trkpt>
      <trkpt lat="44.83629" lon="5.35237">
        <ele>1317.000732</ele>
        <time>2020-08-18T12:12:54Z</time>
      </trkpt>
      <trkpt lat="44.83634" lon="5.35224">
        <ele>1317.287476</ele>
        <time>2020-08-18T12:13:29Z</time>
      </trkpt>
      <trkpt lat="44.83639" lon="5.35184">
        <ele>1320.576782</ele>
        <time>2020-08-18T12:13:47Z</time>
      </trkpt>
      <trkpt lat="44.83653" lon="5.352">
        <ele>1318.58606</ele>
        <time>2020-08-18T12:14:09Z</time>
      </trkpt>
      <trkpt lat="44.83658" lon="5.35211">
        <ele>1317.084961</ele>
        <time>2020-08-18T12:14:16Z</time>
      </trkpt>
      <trkpt lat="44.83666" lon="5.35221">
        <ele>1315.356567</ele>
        <time>2020-08-18T12:14:23Z</time>
      </trkpt>
      <trkpt lat="44.83674" lon="5.35246">
        <ele>1312.806519</ele>
        <time>2020-08-18T12:14:29Z</time>
      </trkpt>
      <trkpt lat="44.83689" lon="5.35273">
        <ele>1312.473389</ele>
        <time>2020-08-18T12:14:35Z</time>
      </trkpt>
      <trkpt lat="44.83718" lon="5.35339">
        <ele>1309.510498</ele>
        <time>2020-08-18T12:14:52Z</time>
      </trkpt>
      <trkpt lat="44.83746" lon="5.35423">
        <ele>1300.404907</ele>
        <time>2020-08-18T12:15:12Z</time>
      </trkpt>
      <trkpt lat="44.83747" lon="5.35444">
        <ele>1297.568726</ele>
        <time>2020-08-18T12:15:16Z</time>
      </trkpt>
      <trkpt lat="44.83756" lon="5.35488">
        <ele>1292.90625</ele>
        <time>2020-08-18T12:15:25Z</time>
      </trkpt>
      <trkpt lat="44.83771" lon="5.35529">
        <ele>1290.867554</ele>
        <time>2020-08-18T12:15:42Z</time>
      </trkpt>
      <trkpt lat="44.83772" lon="5.35588">
        <ele>1286.14563</ele>
        <time>2020-08-18T12:16:11Z</time>
      </trkpt>
      <trkpt lat="44.83768" lon="5.35619">
        <ele>1283.03418</ele>
        <time>2020-08-18T12:16:19Z</time>
      </trkpt>
      <trkpt lat="44.83756" lon="5.35654">
        <ele>1278.650757</ele>
        <time>2020-08-18T12:16:25Z</time>
      </trkpt>
      <trkpt lat="44.83738" lon="5.35679">
        <ele>1274.05188</ele>
        <time>2020-08-18T12:16:31Z</time>
      </trkpt>
      <trkpt lat="44.83736" lon="5.35693">
        <ele>1272.385986</ele>
        <time>2020-08-18T12:16:36Z</time>
      </trkpt>
      <trkpt lat="44.83745" lon="5.35696">
        <ele>1273.132324</ele>
        <time>2020-08-18T12:16:41Z</time>
      </trkpt>
      <trkpt lat="44.83754" lon="5.35694">
        <ele>1274.668579</ele>
        <time>2020-08-18T12:16:46Z</time>
      </trkpt>
      <trkpt lat="44.83792" lon="5.35704">
        <ele>1279.685303</ele>
        <time>2020-08-18T12:17:12Z</time>
      </trkpt>
      <trkpt lat="44.83831" lon="5.35721">
        <ele>1281.922485</ele>
        <time>2020-08-18T12:17:38Z</time>
      </trkpt>
      <trkpt lat="44.83891" lon="5.35721">
        <ele>1286.937622</ele>
        <time>2020-08-18T12:18:14Z</time>
      </trkpt>
      <trkpt lat="44.83964" lon="5.35713">
        <ele>1294.670044</ele>
        <time>2020-08-18T12:18:48Z</time>
      </trkpt>
      <trkpt lat="44.83994" lon="5.35715">
        <ele>1296.915039</ele>
        <time>2020-08-18T12:19:01Z</time>
      </trkpt>
      <trkpt lat="44.84013" lon="5.3572">
        <ele>1297.602539</ele>
        <time>2020-08-18T12:19:09Z</time>
      </trkpt>
      <trkpt lat="44.84042" lon="5.35737">
        <ele>1297.082642</ele>
        <time>2020-08-18T12:19:22Z</time>
      </trkpt>
      <trkpt lat="44.84052" lon="5.35739">
        <ele>1297.359985</ele>
        <time>2020-08-18T12:19:28Z</time>
      </trkpt>
      <trkpt lat="44.84134" lon="5.35718">
        <ele>1300.631226</ele>
        <time>2020-08-18T12:20:03Z</time>
      </trkpt>
      <trkpt lat="44.84157" lon="5.3572">
        <ele>1300.500854</ele>
        <time>2020-08-18T12:20:10Z</time>
      </trkpt>
      <trkpt lat="44.84198" lon="5.3571">
        <ele>1300.257202</ele>
        <time>2020-08-18T12:20:26Z</time>
      </trkpt>
      <trkpt lat="44.84208" lon="5.35711">
        <ele>1300.315063</ele>
        <time>2020-08-18T12:20:30Z</time>
      </trkpt>
      <trkpt lat="44.84218" lon="5.35708">
        <ele>1300.907471</ele>
        <time>2020-08-18T12:20:33Z</time>
      </trkpt>
      <trkpt lat="44.84249" lon="5.35709">
        <ele>1301.55249</ele>
        <time>2020-08-18T12:20:44Z</time>
      </trkpt>
      <trkpt lat="44.84294" lon="5.35716">
        <ele>1301.094971</ele>
        <time>2020-08-18T12:20:57Z</time>
      </trkpt>
      <trkpt lat="44.84376" lon="5.35745">
        <ele>1297.85498</ele>
        <time>2020-08-18T12:21:21Z</time>
      </trkpt>
      <trkpt lat="44.84411" lon="5.35741">
        <ele>1298.072632</ele>
        <time>2020-08-18T12:21:31Z</time>
      </trkpt>
      <trkpt lat="44.84442" lon="5.35754">
        <ele>1297.074951</ele>
        <time>2020-08-18T12:21:40Z</time>
      </trkpt>
      <trkpt lat="44.84454" lon="5.35762">
        <ele>1296.5</ele>
        <time>2020-08-18T12:21:43Z</time>
      </trkpt>
      <trkpt lat="44.8451" lon="5.35788">
        <ele>1295.211426</ele>
        <time>2020-08-18T12:21:56Z</time>
      </trkpt>
      <trkpt lat="44.84529" lon="5.35804">
        <ele>1295.373901</ele>
        <time>2020-08-18T12:22:01Z</time>
      </trkpt>
      <trkpt lat="44.84549" lon="5.35845">
        <ele>1295.212524</ele>
        <time>2020-08-18T12:22:09Z</time>
      </trkpt>
      <trkpt lat="44.84565" lon="5.35865">
        <ele>1295.912476</ele>
        <time>2020-08-18T12:22:13Z</time>
      </trkpt>
      <trkpt lat="44.84574" lon="5.3587">
        <ele>1296.564941</ele>
        <time>2020-08-18T12:22:15Z</time>
      </trkpt>
      <trkpt lat="44.84648" lon="5.35891">
        <ele>1301.280396</ele>
        <time>2020-08-18T12:22:31Z</time>
      </trkpt>
      <trkpt lat="44.84659" lon="5.35888">
        <ele>1301.505859</ele>
        <time>2020-08-18T12:22:34Z</time>
      </trkpt>
      <trkpt lat="44.84726" lon="5.35897">
        <ele>1298.800049</ele>
        <time>2020-08-18T12:22:59Z</time>
      </trkpt>
      <trkpt lat="44.84749" lon="5.35883">
        <ele>1296.261353</ele>
        <time>2020-08-18T12:23:04Z</time>
      </trkpt>
      <trkpt lat="44.84767" lon="5.35844">
        <ele>1294.621948</ele>
        <time>2020-08-18T12:23:10Z</time>
      </trkpt>
      <trkpt lat="44.84774" lon="5.35835">
        <ele>1293.873901</ele>
        <time>2020-08-18T12:23:12Z</time>
      </trkpt>
      <trkpt lat="44.84789" lon="5.35799">
        <ele>1292.08606</ele>
        <time>2020-08-18T12:23:18Z</time>
      </trkpt>
      <trkpt lat="44.84828" lon="5.35739">
        <ele>1287.993652</ele>
        <time>2020-08-18T12:23:28Z</time>
      </trkpt>
      <trkpt lat="44.84881" lon="5.35688">
        <ele>1286.248291</ele>
        <time>2020-08-18T12:23:38Z</time>
      </trkpt>
      <trkpt lat="44.8494" lon="5.35663">
        <ele>1285.988281</ele>
        <time>2020-08-18T12:23:51Z</time>
      </trkpt>
      <trkpt lat="44.85004" lon="5.35659">
        <ele>1283.9646</ele>
        <time>2020-08-18T12:24:03Z</time>
      </trkpt>
      <trkpt lat="44.85023" lon="5.35649">
        <ele>1283.180298</ele>
        <time>2020-08-18T12:24:07Z</time>
      </trkpt>
      <trkpt lat="44.85032" lon="5.35641">
        <ele>1282.972412</ele>
        <time>2020-08-18T12:24:09Z</time>
      </trkpt>
      <trkpt lat="44.85062" lon="5.35623">
        <ele>1281.940063</ele>
        <time>2020-08-18T12:24:15Z</time>
      </trkpt>
      <trkpt lat="44.85082" lon="5.35615">
        <ele>1281.156738</ele>
        <time>2020-08-18T12:24:19Z</time>
      </trkpt>
      <trkpt lat="44.85103" lon="5.35602">
        <ele>1280.526855</ele>
        <time>2020-08-18T12:24:23Z</time>
      </trkpt>
      <trkpt lat="44.85133" lon="5.35589">
        <ele>1277.787476</ele>
        <time>2020-08-18T12:24:28Z</time>
      </trkpt>
      <trkpt lat="44.85166" lon="5.35562">
        <ele>1275.745239</ele>
        <time>2020-08-18T12:24:34Z</time>
      </trkpt>
      <trkpt lat="44.85176" lon="5.3555">
        <ele>1274.928589</ele>
        <time>2020-08-18T12:24:36Z</time>
      </trkpt>
      <trkpt lat="44.85222" lon="5.35519">
        <ele>1268.661377</ele>
        <time>2020-08-18T12:24:44Z</time>
      </trkpt>
      <trkpt lat="44.85233" lon="5.35514">
        <ele>1267.155518</ele>
        <time>2020-08-18T12:24:46Z</time>
      </trkpt>
      <trkpt lat="44.85243" lon="5.35504">
        <ele>1266.132446</ele>
        <time>2020-08-18T12:24:48Z</time>
      </trkpt>
      <trkpt lat="44.8528" lon="5.35431">
        <ele>1257.272095</ele>
        <time>2020-08-18T12:24:58Z</time>
      </trkpt>
      <trkpt lat="44.85285" lon="5.35415">
        <ele>1255.134644</ele>
        <time>2020-08-18T12:25:00Z</time>
      </trkpt>
      <trkpt lat="44.85286" lon="5.354">
        <ele>1253.803833</ele>
        <time>2020-08-18T12:25:02Z</time>
      </trkpt>
      <trkpt lat="44.85282" lon="5.35365">
        <ele>1252.044556</ele>
        <time>2020-08-18T12:25:09Z</time>
      </trkpt>
      <trkpt lat="44.8529" lon="5.35353">
        <ele>1250.438354</ele>
        <time>2020-08-18T12:25:11Z</time>
      </trkpt>
      <trkpt lat="44.85301" lon="5.35352">
        <ele>1248.817871</ele>
        <time>2020-08-18T12:25:15Z</time>
      </trkpt>
      <trkpt lat="44.85321" lon="5.35358">
        <ele>1245.779907</ele>
        <time>2020-08-18T12:25:25Z</time>
      </trkpt>
      <trkpt lat="44.8533" lon="5.35351">
        <ele>1244.771729</ele>
        <time>2020-08-18T12:25:28Z</time>
      </trkpt>
      <trkpt lat="44.85368" lon="5.35356">
        <ele>1242.921875</ele>
        <time>2020-08-18T12:25:37Z</time>
      </trkpt>
      <trkpt lat="44.85449" lon="5.3538">
        <ele>1242.473511</ele>
        <time>2020-08-18T12:25:58Z</time>
      </trkpt>
      <trkpt lat="44.85493" lon="5.35416">
        <ele>1243.12085</ele>
        <time>2020-08-18T12:26:14Z</time>
      </trkpt>
      <trkpt lat="44.85538" lon="5.35433">
        <ele>1246.039917</ele>
        <time>2020-08-18T12:26:29Z</time>
      </trkpt>
      <trkpt lat="44.85606" lon="5.35423">
        <ele>1247.807129</ele>
        <time>2020-08-18T12:26:48Z</time>
      </trkpt>
      <trkpt lat="44.85651" lon="5.35412">
        <ele>1249.517334</ele>
        <time>2020-08-18T12:27:00Z</time>
      </trkpt>
      <trkpt lat="44.85698" lon="5.35418">
        <ele>1251.971313</ele>
        <time>2020-08-18T12:27:12Z</time>
      </trkpt>
      <trkpt lat="44.85758" lon="5.35434">
        <ele>1253.030029</ele>
        <time>2020-08-18T12:27:27Z</time>
      </trkpt>
      <trkpt lat="44.85804" lon="5.35443">
        <ele>1253.514893</ele>
        <time>2020-08-18T12:27:38Z</time>
      </trkpt>
      <trkpt lat="44.85826" lon="5.35452">
        <ele>1253.491333</ele>
        <time>2020-08-18T12:27:43Z</time>
      </trkpt>
      <trkpt lat="44.85844" lon="5.35467">
        <ele>1252.499146</ele>
        <time>2020-08-18T12:27:48Z</time>
      </trkpt>
      <trkpt lat="44.85878" lon="5.35509">
        <ele>1249.449951</ele>
        <time>2020-08-18T12:28:01Z</time>
      </trkpt>
      <trkpt lat="44.85896" lon="5.35516">
        <ele>1247.964966</ele>
        <time>2020-08-18T12:29:20Z</time>
      </trkpt>
      <trkpt lat="44.85886" lon="5.35525">
        <ele>1248.11499</ele>
        <time>2020-08-18T12:30:37Z</time>
      </trkpt>
      <trkpt lat="44.85861" lon="5.35572">
        <ele>1248.081787</ele>
        <time>2020-08-18T12:30:48Z</time>
      </trkpt>
      <trkpt lat="44.85844" lon="5.35598">
        <ele>1248.475952</ele>
        <time>2020-08-18T12:30:54Z</time>
      </trkpt>
      <trkpt lat="44.85835" lon="5.35639">
        <ele>1248.178955</ele>
        <time>2020-08-18T12:31:04Z</time>
      </trkpt>
      <trkpt lat="44.85815" lon="5.35708">
        <ele>1247.229126</ele>
        <time>2020-08-18T12:31:21Z</time>
      </trkpt>
      <trkpt lat="44.85814" lon="5.35724">
        <ele>1246.748169</ele>
        <time>2020-08-18T12:31:24Z</time>
      </trkpt>
      <trkpt lat="44.85784" lon="5.35818">
        <ele>1244.301514</ele>
        <time>2020-08-18T12:31:42Z</time>
      </trkpt>
      <trkpt lat="44.85772" lon="5.3584">
        <ele>1243.944946</ele>
        <time>2020-08-18T12:31:46Z</time>
      </trkpt>
      <trkpt lat="44.85764" lon="5.35867">
        <ele>1242.90686</ele>
        <time>2020-08-18T12:31:51Z</time>
      </trkpt>
      <trkpt lat="44.85756" lon="5.35907">
        <ele>1241.360718</ele>
        <time>2020-08-18T12:31:57Z</time>
      </trkpt>
      <trkpt lat="44.85746" lon="5.3594">
        <ele>1239.882446</ele>
        <time>2020-08-18T12:32:01Z</time>
      </trkpt>
      <trkpt lat="44.85734" lon="5.35971">
        <ele>1238.383301</ele>
        <time>2020-08-18T12:32:05Z</time>
      </trkpt>
      <trkpt lat="44.85718" lon="5.36026">
        <ele>1236.02356</ele>
        <time>2020-08-18T12:32:14Z</time>
      </trkpt>
      <trkpt lat="44.85718" lon="5.36046">
        <ele>1235.115845</ele>
        <time>2020-08-18T12:32:17Z</time>
      </trkpt>
      <trkpt lat="44.85727" lon="5.36126">
        <ele>1231.492554</ele>
        <time>2020-08-18T12:32:29Z</time>
      </trkpt>
      <trkpt lat="44.85727" lon="5.36145">
        <ele>1230.907471</ele>
        <time>2020-08-18T12:32:31Z</time>
      </trkpt>
      <trkpt lat="44.85736" lon="5.36174">
        <ele>1229.54248</ele>
        <time>2020-08-18T12:32:35Z</time>
      </trkpt>
      <trkpt lat="44.85738" lon="5.36205">
        <ele>1228.420044</ele>
        <time>2020-08-18T12:32:39Z</time>
      </trkpt>
      <trkpt lat="44.85735" lon="5.36238">
        <ele>1227.492554</ele>
        <time>2020-08-18T12:32:43Z</time>
      </trkpt>
      <trkpt lat="44.85736" lon="5.36256">
        <ele>1226.834961</ele>
        <time>2020-08-18T12:32:45Z</time>
      </trkpt>
      <trkpt lat="44.85734" lon="5.36295">
        <ele>1225.62085</ele>
        <time>2020-08-18T12:32:49Z</time>
      </trkpt>
      <trkpt lat="44.85738" lon="5.36328">
        <ele>1224.486938</ele>
        <time>2020-08-18T12:32:53Z</time>
      </trkpt>
      <trkpt lat="44.85753" lon="5.36385">
        <ele>1222.671387</ele>
        <time>2020-08-18T12:33:01Z</time>
      </trkpt>
      <trkpt lat="44.85807" lon="5.36501">
        <ele>1217.17749</ele>
        <time>2020-08-18T12:33:17Z</time>
      </trkpt>
      <trkpt lat="44.85825" lon="5.36548">
        <ele>1213.708862</ele>
        <time>2020-08-18T12:33:23Z</time>
      </trkpt>
      <trkpt lat="44.85842" lon="5.36578">
        <ele>1211.757446</ele>
        <time>2020-08-18T12:33:27Z</time>
      </trkpt>
      <trkpt lat="44.85849" lon="5.36594">
        <ele>1210.935059</ele>
        <time>2020-08-18T12:33:29Z</time>
      </trkpt>
      <trkpt lat="44.85872" lon="5.36722">
        <ele>1204.556396</ele>
        <time>2020-08-18T12:33:41Z</time>
      </trkpt>
      <trkpt lat="44.85899" lon="5.36789">
        <ele>1200.516724</ele>
        <time>2020-08-18T12:33:47Z</time>
      </trkpt>
      <trkpt lat="44.85905" lon="5.36799">
        <ele>1199.64978</ele>
        <time>2020-08-18T12:33:48Z</time>
      </trkpt>
      <trkpt lat="44.85954" lon="5.36847">
        <ele>1192.36853</ele>
        <time>2020-08-18T12:33:54Z</time>
      </trkpt>
      <trkpt lat="44.86035" lon="5.36978">
        <ele>1176.034302</ele>
        <time>2020-08-18T12:34:06Z</time>
      </trkpt>
      <trkpt lat="44.86051" lon="5.36998">
        <ele>1174.035522</ele>
        <time>2020-08-18T12:34:08Z</time>
      </trkpt>
      <trkpt lat="44.86164" lon="5.37101">
        <ele>1164.13147</ele>
        <time>2020-08-18T12:34:21Z</time>
      </trkpt>
      <trkpt lat="44.8619" lon="5.3712">
        <ele>1162.996826</ele>
        <time>2020-08-18T12:34:24Z</time>
      </trkpt>
      <trkpt lat="44.86223" lon="5.37137">
        <ele>1160.859985</ele>
        <time>2020-08-18T12:34:28Z</time>
      </trkpt>
      <trkpt lat="44.86248" lon="5.37168">
        <ele>1157.258423</ele>
        <time>2020-08-18T12:34:32Z</time>
      </trkpt>
      <trkpt lat="44.86304" lon="5.37214">
        <ele>1151.492554</ele>
        <time>2020-08-18T12:34:40Z</time>
      </trkpt>
      <trkpt lat="44.86332" lon="5.37258">
        <ele>1148.469727</ele>
        <time>2020-08-18T12:34:46Z</time>
      </trkpt>
      <trkpt lat="44.86369" lon="5.37305">
        <ele>1146.790161</ele>
        <time>2020-08-18T12:34:54Z</time>
      </trkpt>
      <trkpt lat="44.86395" lon="5.37333">
        <ele>1146.244995</ele>
        <time>2020-08-18T12:35:00Z</time>
      </trkpt>
      <trkpt lat="44.8642" lon="5.37368">
        <ele>1145.329956</ele>
        <time>2020-08-18T12:35:06Z</time>
      </trkpt>
      <trkpt lat="44.86441" lon="5.37387">
        <ele>1144.38501</ele>
        <time>2020-08-18T12:35:10Z</time>
      </trkpt>
      <trkpt lat="44.86448" lon="5.37403">
        <ele>1143.931274</ele>
        <time>2020-08-18T12:35:12Z</time>
      </trkpt>
      <trkpt lat="44.8645" lon="5.3742">
        <ele>1143.505493</ele>
        <time>2020-08-18T12:35:14Z</time>
      </trkpt>
      <trkpt lat="44.86442" lon="5.37521">
        <ele>1142.089966</ele>
        <time>2020-08-18T12:35:26Z</time>
      </trkpt>
      <trkpt lat="44.86425" lon="5.37602">
        <ele>1140.634521</ele>
        <time>2020-08-18T12:35:36Z</time>
      </trkpt>
      <trkpt lat="44.86413" lon="5.37706">
        <ele>1140.263062</ele>
        <time>2020-08-18T12:35:48Z</time>
      </trkpt>
      <trkpt lat="44.86397" lon="5.37776">
        <ele>1137.712524</ele>
        <time>2020-08-18T12:35:56Z</time>
      </trkpt>
      <trkpt lat="44.8639" lon="5.37793">
        <ele>1137.334351</ele>
        <time>2020-08-18T12:35:58Z</time>
      </trkpt>
      <trkpt lat="44.86342" lon="5.3785">
        <ele>1137.767456</ele>
        <time>2020-08-18T12:36:09Z</time>
      </trkpt>
      <trkpt lat="44.8634" lon="5.37863">
        <ele>1138.27002</ele>
        <time>2020-08-18T12:36:12Z</time>
      </trkpt>
      <trkpt lat="44.86342" lon="5.37876">
        <ele>1138.567505</ele>
        <time>2020-08-18T12:36:17Z</time>
      </trkpt>
      <trkpt lat="44.86354" lon="5.379">
        <ele>1138.430054</ele>
        <time>2020-08-18T12:36:23Z</time>
      </trkpt>
      <trkpt lat="44.86418" lon="5.37946">
        <ele>1134.079956</ele>
        <time>2020-08-18T12:36:38Z</time>
      </trkpt>
      <trkpt lat="44.86434" lon="5.37964">
        <ele>1132.964966</ele>
        <time>2020-08-18T12:36:42Z</time>
      </trkpt>
      <trkpt lat="44.86441" lon="5.37991">
        <ele>1131.843994</ele>
        <time>2020-08-18T12:36:47Z</time>
      </trkpt>
      <trkpt lat="44.86452" lon="5.37994">
        <ele>1131.394531</ele>
        <time>2020-08-18T12:36:50Z</time>
      </trkpt>
      <trkpt lat="44.86511" lon="5.37992">
        <ele>1129.877441</ele>
        <time>2020-08-18T12:37:02Z</time>
      </trkpt>
      <trkpt lat="44.86564" lon="5.3798">
        <ele>1128.952515</ele>
        <time>2020-08-18T12:37:12Z</time>
      </trkpt>
      <trkpt lat="44.86649" lon="5.37967">
        <ele>1126.567505</ele>
        <time>2020-08-18T12:37:26Z</time>
      </trkpt>
      <trkpt lat="44.86661" lon="5.37961">
        <ele>1126.11377</ele>
        <time>2020-08-18T12:37:28Z</time>
      </trkpt>
      <trkpt lat="44.86823" lon="5.37958">
        <ele>1120.572266</ele>
        <time>2020-08-18T12:37:52Z</time>
      </trkpt>
      <trkpt lat="44.86899" lon="5.37964">
        <ele>1121</ele>
        <time>2020-08-18T12:38:06Z</time>
      </trkpt>
      <trkpt lat="44.86991" lon="5.37992">
        <ele>1120.987549</ele>
        <time>2020-08-18T12:38:22Z</time>
      </trkpt>
      <trkpt lat="44.87067" lon="5.38004">
        <ele>1120.619507</ele>
        <time>2020-08-18T12:38:34Z</time>
      </trkpt>
      <trkpt lat="44.87105" lon="5.37993">
        <ele>1118.890015</ele>
        <time>2020-08-18T12:38:40Z</time>
      </trkpt>
      <trkpt lat="44.87129" lon="5.37982">
        <ele>1117.571533</ele>
        <time>2020-08-18T12:38:44Z</time>
      </trkpt>
      <trkpt lat="44.87155" lon="5.37976">
        <ele>1116.523804</ele>
        <time>2020-08-18T12:38:48Z</time>
      </trkpt>
      <trkpt lat="44.87193" lon="5.37957">
        <ele>1115.375</ele>
        <time>2020-08-18T12:38:54Z</time>
      </trkpt>
      <trkpt lat="44.87236" lon="5.37948">
        <ele>1113.40625</ele>
        <time>2020-08-18T12:39:00Z</time>
      </trkpt>
      <trkpt lat="44.87263" lon="5.37934">
        <ele>1112.222534</ele>
        <time>2020-08-18T12:39:04Z</time>
      </trkpt>
      <trkpt lat="44.87323" lon="5.37948">
        <ele>1110.443726</ele>
        <time>2020-08-18T12:39:14Z</time>
      </trkpt>
      <trkpt lat="44.87332" lon="5.37955">
        <ele>1110.094971</ele>
        <time>2020-08-18T12:39:16Z</time>
      </trkpt>
      <trkpt lat="44.87329" lon="5.37982">
        <ele>1110.180054</ele>
        <time>2020-08-18T12:39:20Z</time>
      </trkpt>
      <trkpt lat="44.8733" lon="5.37996">
        <ele>1110.10498</ele>
        <time>2020-08-18T12:39:22Z</time>
      </trkpt>
      <trkpt lat="44.87339" lon="5.38004">
        <ele>1109.847534</ele>
        <time>2020-08-18T12:39:24Z</time>
      </trkpt>
      <trkpt lat="44.87409" lon="5.38036">
        <ele>1106.964966</ele>
        <time>2020-08-18T12:39:36Z</time>
      </trkpt>
      <trkpt lat="44.87485" lon="5.38092">
        <ele>1101.998779</ele>
        <time>2020-08-18T12:39:50Z</time>
      </trkpt>
      <trkpt lat="44.87587" lon="5.38154">
        <ele>1098.258789</ele>
        <time>2020-08-18T12:40:08Z</time>
      </trkpt>
      <trkpt lat="44.87698" lon="5.38211">
        <ele>1096.387695</ele>
        <time>2020-08-18T12:40:26Z</time>
      </trkpt>
      <trkpt lat="44.8777" lon="5.38265">
        <ele>1094.205566</ele>
        <time>2020-08-18T12:40:38Z</time>
      </trkpt>
      <trkpt lat="44.87798" lon="5.38297">
        <ele>1093.427612</ele>
        <time>2020-08-18T12:40:44Z</time>
      </trkpt>
      <trkpt lat="44.87809" lon="5.38303">
        <ele>1093.090332</ele>
        <time>2020-08-18T12:40:46Z</time>
      </trkpt>
      <trkpt lat="44.87977" lon="5.38336">
        <ele>1087.177246</ele>
        <time>2020-08-18T12:41:12Z</time>
      </trkpt>
      <trkpt lat="44.88066" lon="5.38359">
        <ele>1083.652466</ele>
        <time>2020-08-18T12:41:26Z</time>
      </trkpt>
      <trkpt lat="44.88102" lon="5.38371">
        <ele>1082.33252</ele>
        <time>2020-08-18T12:41:32Z</time>
      </trkpt>
      <trkpt lat="44.88128" lon="5.38373">
        <ele>1081.203857</ele>
        <time>2020-08-18T12:41:36Z</time>
      </trkpt>
      <trkpt lat="44.88255" lon="5.38402">
        <ele>1077.265015</ele>
        <time>2020-08-18T12:41:56Z</time>
      </trkpt>
      <trkpt lat="44.88259" lon="5.38316">
        <ele>1078.829224</ele>
        <time>2020-08-18T12:45:45Z</time>
      </trkpt>
      <trkpt lat="44.88256" lon="5.38269">
        <ele>1081.150879</ele>
        <time>2020-08-18T12:45:52Z</time>
      </trkpt>
      <trkpt lat="44.88258" lon="5.38254">
        <ele>1081.967163</ele>
        <time>2020-08-18T12:45:55Z</time>
      </trkpt>
      <trkpt lat="44.8827" lon="5.38251">
        <ele>1082.047974</ele>
        <time>2020-08-18T12:45:59Z</time>
      </trkpt>
      <trkpt lat="44.88306" lon="5.3826">
        <ele>1082.58252</ele>
        <time>2020-08-18T12:46:08Z</time>
      </trkpt>
      <trkpt lat="44.88446" lon="5.3828">
        <ele>1082.483643</ele>
        <time>2020-08-18T12:46:40Z</time>
      </trkpt>
      <trkpt lat="44.88472" lon="5.38279">
        <ele>1082.177856</ele>
        <time>2020-08-18T12:46:46Z</time>
      </trkpt>
      <trkpt lat="44.88533" lon="5.38249">
        <ele>1082.052002</ele>
        <time>2020-08-18T12:47:01Z</time>
      </trkpt>
      <trkpt lat="44.88574" lon="5.38233">
        <ele>1082</ele>
        <time>2020-08-18T12:47:10Z</time>
      </trkpt>
      <trkpt lat="44.88604" lon="5.38216">
        <ele>1081.244995</ele>
        <time>2020-08-18T12:47:17Z</time>
      </trkpt>
      <trkpt lat="44.88626" lon="5.38209">
        <ele>1080.273315</ele>
        <time>2020-08-18T12:47:22Z</time>
      </trkpt>
      <trkpt lat="44.88648" lon="5.38196">
        <ele>1079.572144</ele>
        <time>2020-08-18T12:47:28Z</time>
      </trkpt>
      <trkpt lat="44.88681" lon="5.38182">
        <ele>1078.401367</ele>
        <time>2020-08-18T12:47:37Z</time>
      </trkpt>
      <trkpt lat="44.88706" lon="5.38166">
        <ele>1077.465332</ele>
        <time>2020-08-18T12:47:43Z</time>
      </trkpt>
      <trkpt lat="44.88733" lon="5.38153">
        <ele>1076.573364</ele>
        <time>2020-08-18T12:47:49Z</time>
      </trkpt>
      <trkpt lat="44.88791" lon="5.38117">
        <ele>1074.060059</ele>
        <time>2020-08-18T12:48:03Z</time>
      </trkpt>
      <trkpt lat="44.88815" lon="5.38093">
        <ele>1073.02002</ele>
        <time>2020-08-18T12:48:09Z</time>
      </trkpt>
      <trkpt lat="44.88851" lon="5.38064">
        <ele>1071.439941</ele>
        <time>2020-08-18T12:48:18Z</time>
      </trkpt>
      <trkpt lat="44.88887" lon="5.38047">
        <ele>1069.997925</ele>
        <time>2020-08-18T12:48:27Z</time>
      </trkpt>
      <trkpt lat="44.88967" lon="5.38033">
        <ele>1067.533325</ele>
        <time>2020-08-18T12:48:43Z</time>
      </trkpt>
      <trkpt lat="44.88995" lon="5.38015">
        <ele>1066.302368</ele>
        <time>2020-08-18T12:48:49Z</time>
      </trkpt>
      <trkpt lat="44.89039" lon="5.37994">
        <ele>1064.333252</ele>
        <time>2020-08-18T12:48:59Z</time>
      </trkpt>
      <trkpt lat="44.89048" lon="5.37986">
        <ele>1063.997437</ele>
        <time>2020-08-18T12:49:01Z</time>
      </trkpt>
      <trkpt lat="44.89104" lon="5.37921">
        <ele>1061.701294</ele>
        <time>2020-08-18T12:49:13Z</time>
      </trkpt>
      <trkpt lat="44.8911" lon="5.3789">
        <ele>1061.57251</ele>
        <time>2020-08-18T12:49:17Z</time>
      </trkpt>
      <trkpt lat="44.89115" lon="5.37876">
        <ele>1061.472534</ele>
        <time>2020-08-18T12:49:19Z</time>
      </trkpt>
      <trkpt lat="44.89124" lon="5.37866">
        <ele>1061.285034</ele>
        <time>2020-08-18T12:49:21Z</time>
      </trkpt>
      <trkpt lat="44.89134" lon="5.37859">
        <ele>1061.057495</ele>
        <time>2020-08-18T12:49:23Z</time>
      </trkpt>
      <trkpt lat="44.89156" lon="5.37861">
        <ele>1060.155029</ele>
        <time>2020-08-18T12:49:27Z</time>
      </trkpt>
      <trkpt lat="44.89165" lon="5.37858">
        <ele>1059.771606</ele>
        <time>2020-08-18T12:49:29Z</time>
      </trkpt>
      <trkpt lat="44.89172" lon="5.3785">
        <ele>1059.540161</ele>
        <time>2020-08-18T12:49:31Z</time>
      </trkpt>
      <trkpt lat="44.89191" lon="5.37818">
        <ele>1059.368286</ele>
        <time>2020-08-18T12:49:37Z</time>
      </trkpt>
      <trkpt lat="44.89205" lon="5.37778">
        <ele>1058.407471</ele>
        <time>2020-08-18T12:49:43Z</time>
      </trkpt>
      <trkpt lat="44.89209" lon="5.37708">
        <ele>1056.342651</ele>
        <time>2020-08-18T12:49:51Z</time>
      </trkpt>
      <trkpt lat="44.89219" lon="5.37672">
        <ele>1055.281616</ele>
        <time>2020-08-18T12:49:55Z</time>
      </trkpt>
      <trkpt lat="44.89233" lon="5.37644">
        <ele>1054.526001</ele>
        <time>2020-08-18T12:49:59Z</time>
      </trkpt>
      <trkpt lat="44.89309" lon="5.37509">
        <ele>1051.392456</ele>
        <time>2020-08-18T12:50:23Z</time>
      </trkpt>
      <trkpt lat="44.89415" lon="5.37306">
        <ele>1048.206299</ele>
        <time>2020-08-18T12:51:00Z</time>
      </trkpt>
      <trkpt lat="44.89475" lon="5.37198">
        <ele>1045.804077</ele>
        <time>2020-08-18T12:51:24Z</time>
      </trkpt>
      <trkpt lat="44.89536" lon="5.3708">
        <ele>1043.343872</ele>
      </trkpt>
    </trkseg>
  </trk>
</gpx>